<?xml version="1.0" encoding="UTF-8" standalone="no" ?>
<gpx xmlns="http://www.topografix.com/GPX/1/1" xmlns:xsi="http://www.w3.org/2001/XMLSchema-instance" xsi:schemaLocation="http://www.topografix.com/GPX/1/1 http://www.topografix.com/GPX/1/1/gpx.xsd" version="1.1" creator="VisuGPX - https://www.visugpx.com">
  <metadata>
    <name>La tourelloise 2021 - circuit 27 km</name>
    <desc><![CDATA[Très beau circuit, peu de goudron, des singles.
Un peu de technique et des belles descentes.]]></desc>
  </metadata>
  <trk>
    <name><![CDATA[La Tour-de-Salvagny Cyclisme]]></name>
    <trkseg>
      <trkpt lat="45.80343" lon="4.71976">
        <ele>305.20001220703</ele>
        <time>2021-09-28T07:01:34.000Z</time>
      </trkpt>
      <trkpt lat="45.80334" lon="4.71984">
        <ele>304.60000610352</ele>
        <time>2021-09-28T07:01:34.004Z</time>
      </trkpt>
      <trkpt lat="45.80323" lon="4.71994">
        <ele>304.20001220703</ele>
        <time>2021-09-28T07:01:34.012Z</time>
      </trkpt>
      <trkpt lat="45.8029" lon="4.72028">
        <ele>304</ele>
        <time>2021-09-28T07:01:34.033Z</time>
      </trkpt>
      <trkpt lat="45.80283" lon="4.72036">
        <ele>304</ele>
        <time>2021-09-28T07:01:34.058Z</time>
      </trkpt>
      <trkpt lat="45.80275" lon="4.72044">
        <ele>304</ele>
        <time>2021-09-28T07:01:34.086Z</time>
      </trkpt>
      <trkpt lat="45.80271" lon="4.72049">
        <ele>304</ele>
        <time>2021-09-28T07:01:34.115Z</time>
      </trkpt>
      <trkpt lat="45.80238" lon="4.72083">
        <ele>304.20001220703</ele>
        <time>2021-09-28T07:01:34.158Z</time>
      </trkpt>
      <trkpt lat="45.8021" lon="4.72114">
        <ele>303.20001220703</ele>
        <time>2021-09-28T07:01:34.213Z</time>
      </trkpt>
      <trkpt lat="45.80191" lon="4.7213">
        <ele>302</ele>
        <time>2021-09-28T07:01:34.275Z</time>
      </trkpt>
      <trkpt lat="45.80186" lon="4.72132">
        <ele>301.79998779297</ele>
        <time>2021-09-28T07:01:34.339Z</time>
      </trkpt>
      <trkpt lat="45.80182" lon="4.72134">
        <ele>301.60000610352</ele>
        <time>2021-09-28T07:01:34.404Z</time>
      </trkpt>
      <trkpt lat="45.80168" lon="4.72145">
        <ele>300.39999389648</ele>
        <time>2021-09-28T07:01:34.475Z</time>
      </trkpt>
      <trkpt lat="45.80164" lon="4.72148">
        <ele>300</ele>
        <time>2021-09-28T07:01:34.547Z</time>
      </trkpt>
      <trkpt lat="45.80152" lon="4.72157">
        <ele>298.79998779297</ele>
        <time>2021-09-28T07:01:34.624Z</time>
      </trkpt>
      <trkpt lat="45.80147" lon="4.72157">
        <ele>298.60000610352</ele>
        <time>2021-09-28T07:01:34.702Z</time>
      </trkpt>
      <trkpt lat="45.80131" lon="4.72153">
        <ele>298.20001220703</ele>
        <time>2021-09-28T07:01:34.786Z</time>
      </trkpt>
      <trkpt lat="45.80124" lon="4.72147">
        <ele>298</ele>
        <time>2021-09-28T07:01:34.873Z</time>
      </trkpt>
      <trkpt lat="45.80114" lon="4.72134">
        <ele>297.79998779297</ele>
        <time>2021-09-28T07:01:34.964Z</time>
      </trkpt>
      <trkpt lat="45.80095" lon="4.72108">
        <ele>297.79998779297</ele>
        <time>2021-09-28T07:01:35.064Z</time>
      </trkpt>
      <trkpt lat="45.80064" lon="4.72066">
        <ele>298.20001220703</ele>
        <time>2021-09-28T07:01:35.178Z</time>
      </trkpt>
      <trkpt lat="45.80054" lon="4.72052">
        <ele>298</ele>
        <time>2021-09-28T07:01:35.297Z</time>
      </trkpt>
      <trkpt lat="45.80043" lon="4.72037">
        <ele>297.79998779297</ele>
        <time>2021-09-28T07:01:35.421Z</time>
      </trkpt>
      <trkpt lat="45.80019" lon="4.7201">
        <ele>297.20001220703</ele>
        <time>2021-09-28T07:01:35.555Z</time>
      </trkpt>
      <trkpt lat="45.80007" lon="4.72">
        <ele>296.20001220703</ele>
        <time>2021-09-28T07:01:35.694Z</time>
      </trkpt>
      <trkpt lat="45.79993" lon="4.71991">
        <ele>295.39999389648</ele>
        <time>2021-09-28T07:01:35.838Z</time>
      </trkpt>
      <trkpt lat="45.79955" lon="4.71964">
        <ele>292.39999389648</ele>
        <time>2021-09-28T07:01:35.996Z</time>
      </trkpt>
      <trkpt lat="45.7992" lon="4.71933">
        <ele>287.60000610352</ele>
        <time>2021-09-28T07:01:36.168Z</time>
      </trkpt>
      <trkpt lat="45.79889" lon="4.71906">
        <ele>282</ele>
        <time>2021-09-28T07:01:36.352Z</time>
      </trkpt>
      <trkpt lat="45.79874" lon="4.71893">
        <ele>279.39999389648</ele>
        <time>2021-09-28T07:01:36.541Z</time>
      </trkpt>
      <trkpt lat="45.79864" lon="4.71879">
        <ele>276.79998779297</ele>
        <time>2021-09-28T07:01:36.735Z</time>
      </trkpt>
      <trkpt lat="45.79862" lon="4.71861">
        <ele>274.79998779297</ele>
        <time>2021-09-28T07:01:36.933Z</time>
      </trkpt>
      <trkpt lat="45.79868" lon="4.71842">
        <ele>272.20001220703</ele>
        <time>2021-09-28T07:01:37.136Z</time>
      </trkpt>
      <trkpt lat="45.79873" lon="4.71832">
        <ele>271.39999389648</ele>
        <time>2021-09-28T07:01:37.342Z</time>
      </trkpt>
      <trkpt lat="45.79903" lon="4.71783">
        <ele>270</ele>
        <time>2021-09-28T07:01:37.563Z</time>
      </trkpt>
      <trkpt lat="45.79909" lon="4.71775">
        <ele>270.60000610352</ele>
        <time>2021-09-28T07:01:37.787Z</time>
      </trkpt>
      <trkpt lat="45.7992" lon="4.71766">
        <ele>271.39999389648</ele>
        <time>2021-09-28T07:01:38.015Z</time>
      </trkpt>
      <trkpt lat="45.79923" lon="4.71761">
        <ele>271.20001220703</ele>
        <time>2021-09-28T07:01:38.245Z</time>
      </trkpt>
      <trkpt lat="45.79924" lon="4.71756">
        <ele>271</ele>
        <time>2021-09-28T07:01:38.476Z</time>
      </trkpt>
      <trkpt lat="45.79926" lon="4.7175">
        <ele>270.39999389648</ele>
        <time>2021-09-28T07:01:38.709Z</time>
      </trkpt>
      <trkpt lat="45.79934" lon="4.71738">
        <ele>270</ele>
        <time>2021-09-28T07:01:38.945Z</time>
      </trkpt>
      <trkpt lat="45.79948" lon="4.71719">
        <ele>269.60000610352</ele>
        <time>2021-09-28T07:01:39.188Z</time>
      </trkpt>
      <trkpt lat="45.79946" lon="4.71709">
        <ele>268.20001220703</ele>
        <time>2021-09-28T07:01:39.433Z</time>
      </trkpt>
      <trkpt lat="45.79939" lon="4.71708">
        <ele>268</ele>
        <time>2021-09-28T07:01:39.681Z</time>
      </trkpt>
      <trkpt lat="45.79934" lon="4.71707">
        <ele>268</ele>
        <time>2021-09-28T07:01:39.930Z</time>
      </trkpt>
      <trkpt lat="45.79929" lon="4.71709">
        <ele>267.79998779297</ele>
        <time>2021-09-28T07:01:40.181Z</time>
      </trkpt>
      <trkpt lat="45.7992" lon="4.71716">
        <ele>267.60000610352</ele>
        <time>2021-09-28T07:01:40.435Z</time>
      </trkpt>
      <trkpt lat="45.79906" lon="4.71732">
        <ele>267.79998779297</ele>
        <time>2021-09-28T07:01:40.695Z</time>
      </trkpt>
      <trkpt lat="45.79896" lon="4.71746">
        <ele>267</ele>
        <time>2021-09-28T07:01:40.960Z</time>
      </trkpt>
      <trkpt lat="45.79866" lon="4.7178">
        <ele>265.79998779297</ele>
        <time>2021-09-28T07:01:41.238Z</time>
      </trkpt>
      <trkpt lat="45.7985" lon="4.71786">
        <ele>266.20001220703</ele>
        <time>2021-09-28T07:01:41.521Z</time>
      </trkpt>
      <trkpt lat="45.79843" lon="4.71786">
        <ele>266.20001220703</ele>
        <time>2021-09-28T07:01:41.807Z</time>
      </trkpt>
      <trkpt lat="45.79836" lon="4.71783">
        <ele>266</ele>
        <time>2021-09-28T07:01:42.095Z</time>
      </trkpt>
      <trkpt lat="45.79826" lon="4.71775">
        <ele>266</ele>
        <time>2021-09-28T07:01:42.387Z</time>
      </trkpt>
      <trkpt lat="45.79825" lon="4.71759">
        <ele>265.60000610352</ele>
        <time>2021-09-28T07:01:42.683Z</time>
      </trkpt>
      <trkpt lat="45.79837" lon="4.71723">
        <ele>268</ele>
        <time>2021-09-28T07:01:42.988Z</time>
      </trkpt>
      <trkpt lat="45.7984" lon="4.71715">
        <ele>268.60000610352</ele>
        <time>2021-09-28T07:01:43.295Z</time>
      </trkpt>
      <trkpt lat="45.79848" lon="4.71701">
        <ele>269.79998779297</ele>
        <time>2021-09-28T07:01:43.606Z</time>
      </trkpt>
      <trkpt lat="45.79852" lon="4.71695">
        <ele>270.39999389648</ele>
        <time>2021-09-28T07:01:43.919Z</time>
      </trkpt>
      <trkpt lat="45.79865" lon="4.71676">
        <ele>271.20001220703</ele>
        <time>2021-09-28T07:01:44.238Z</time>
      </trkpt>
      <trkpt lat="45.79875" lon="4.7166">
        <ele>271.79998779297</ele>
        <time>2021-09-28T07:01:44.562Z</time>
      </trkpt>
      <trkpt lat="45.79878" lon="4.71657">
        <ele>271.79998779297</ele>
        <time>2021-09-28T07:01:44.888Z</time>
      </trkpt>
      <trkpt lat="45.79895" lon="4.71633">
        <ele>271.60000610352</ele>
        <time>2021-09-28T07:01:45.221Z</time>
      </trkpt>
      <trkpt lat="45.79906" lon="4.71621">
        <ele>271.39999389648</ele>
        <time>2021-09-28T07:01:45.559Z</time>
      </trkpt>
      <trkpt lat="45.79916" lon="4.71606">
        <ele>271.60000610352</ele>
        <time>2021-09-28T07:01:45.902Z</time>
      </trkpt>
      <trkpt lat="45.79927" lon="4.71585">
        <ele>273.20001220703</ele>
        <time>2021-09-28T07:01:46.251Z</time>
      </trkpt>
      <trkpt lat="45.79932" lon="4.71574">
        <ele>273.60000610352</ele>
        <time>2021-09-28T07:01:46.603Z</time>
      </trkpt>
      <trkpt lat="45.79937" lon="4.71567">
        <ele>273.79998779297</ele>
        <time>2021-09-28T07:01:46.957Z</time>
      </trkpt>
      <trkpt lat="45.79945" lon="4.71545">
        <ele>274.60000610352</ele>
        <time>2021-09-28T07:01:47.317Z</time>
      </trkpt>
      <trkpt lat="45.79957" lon="4.71525">
        <ele>275.20001220703</ele>
        <time>2021-09-28T07:01:47.683Z</time>
      </trkpt>
      <trkpt lat="45.79971" lon="4.71504">
        <ele>275.60000610352</ele>
        <time>2021-09-28T07:01:48.056Z</time>
      </trkpt>
      <trkpt lat="45.7998" lon="4.71493">
        <ele>276.39999389648</ele>
        <time>2021-09-28T07:01:48.433Z</time>
      </trkpt>
      <trkpt lat="45.7998" lon="4.7149">
        <ele>277</ele>
        <time>2021-09-28T07:01:48.811Z</time>
      </trkpt>
      <trkpt lat="45.79978" lon="4.71483">
        <ele>278.39999389648</ele>
        <time>2021-09-28T07:01:49.190Z</time>
      </trkpt>
      <trkpt lat="45.79976" lon="4.71481">
        <ele>279</ele>
        <time>2021-09-28T07:01:49.570Z</time>
      </trkpt>
      <trkpt lat="45.79973" lon="4.71481">
        <ele>279.39999389648</ele>
        <time>2021-09-28T07:01:49.951Z</time>
      </trkpt>
      <trkpt lat="45.79963" lon="4.71481">
        <ele>280.39999389648</ele>
        <time>2021-09-28T07:01:50.335Z</time>
      </trkpt>
      <trkpt lat="45.79948" lon="4.71495">
        <ele>279.60000610352</ele>
        <time>2021-09-28T07:01:50.725Z</time>
      </trkpt>
      <trkpt lat="45.79933" lon="4.71518">
        <ele>278.39999389648</ele>
        <time>2021-09-28T07:01:51.123Z</time>
      </trkpt>
      <trkpt lat="45.79922" lon="4.7153">
        <ele>279.20001220703</ele>
        <time>2021-09-28T07:01:51.526Z</time>
      </trkpt>
      <trkpt lat="45.79907" lon="4.71547">
        <ele>278.79998779297</ele>
        <time>2021-09-28T07:01:51.935Z</time>
      </trkpt>
      <trkpt lat="45.79894" lon="4.71561">
        <ele>279</ele>
        <time>2021-09-28T07:01:52.349Z</time>
      </trkpt>
      <trkpt lat="45.7988" lon="4.71572">
        <ele>277.79998779297</ele>
        <time>2021-09-28T07:01:52.769Z</time>
      </trkpt>
      <trkpt lat="45.79867" lon="4.7158">
        <ele>278.39999389648</ele>
        <time>2021-09-28T07:01:53.193Z</time>
      </trkpt>
      <trkpt lat="45.79854" lon="4.71586">
        <ele>279.20001220703</ele>
        <time>2021-09-28T07:01:53.622Z</time>
      </trkpt>
      <trkpt lat="45.79835" lon="4.71591">
        <ele>280.20001220703</ele>
        <time>2021-09-28T07:01:54.057Z</time>
      </trkpt>
      <trkpt lat="45.79825" lon="4.71584">
        <ele>280.79998779297</ele>
        <time>2021-09-28T07:01:54.496Z</time>
      </trkpt>
      <trkpt lat="45.79816" lon="4.71564">
        <ele>281.79998779297</ele>
        <time>2021-09-28T07:01:54.941Z</time>
      </trkpt>
      <trkpt lat="45.79817" lon="4.71537">
        <ele>282.79998779297</ele>
        <time>2021-09-28T07:01:55.392Z</time>
      </trkpt>
      <trkpt lat="45.79818" lon="4.71518">
        <ele>284.20001220703</ele>
        <time>2021-09-28T07:01:55.847Z</time>
      </trkpt>
      <trkpt lat="45.79815" lon="4.71495">
        <ele>285.39999389648</ele>
        <time>2021-09-28T07:01:56.308Z</time>
      </trkpt>
      <trkpt lat="45.79812" lon="4.71463">
        <ele>285.39999389648</ele>
        <time>2021-09-28T07:01:56.776Z</time>
      </trkpt>
      <trkpt lat="45.79806" lon="4.7143">
        <ele>284.79998779297</ele>
        <time>2021-09-28T07:01:57.252Z</time>
      </trkpt>
      <trkpt lat="45.79799" lon="4.71393">
        <ele>284</ele>
        <time>2021-09-28T07:01:57.737Z</time>
      </trkpt>
      <trkpt lat="45.79793" lon="4.71356">
        <ele>285</ele>
        <time>2021-09-28T07:01:58.231Z</time>
      </trkpt>
      <trkpt lat="45.79792" lon="4.71327">
        <ele>286</ele>
        <time>2021-09-28T07:01:58.732Z</time>
      </trkpt>
      <trkpt lat="45.79799" lon="4.71304">
        <ele>287.79998779297</ele>
        <time>2021-09-28T07:01:59.239Z</time>
      </trkpt>
      <trkpt lat="45.7981" lon="4.71293">
        <ele>289</ele>
        <time>2021-09-28T07:01:59.750Z</time>
      </trkpt>
      <trkpt lat="45.79828" lon="4.71279">
        <ele>292.39999389648</ele>
        <time>2021-09-28T07:02:00.268Z</time>
      </trkpt>
      <trkpt lat="45.79842" lon="4.71266">
        <ele>295.20001220703</ele>
        <time>2021-09-28T07:02:00.791Z</time>
      </trkpt>
      <trkpt lat="45.79851" lon="4.71257">
        <ele>296.20001220703</ele>
        <time>2021-09-28T07:02:01.318Z</time>
      </trkpt>
      <trkpt lat="45.79853" lon="4.71256">
        <ele>296.39999389648</ele>
        <time>2021-09-28T07:02:01.846Z</time>
      </trkpt>
      <trkpt lat="45.79863" lon="4.71243">
        <ele>296.39999389648</ele>
        <time>2021-09-28T07:02:02.378Z</time>
      </trkpt>
      <trkpt lat="45.79876" lon="4.71228">
        <ele>296.39999389648</ele>
        <time>2021-09-28T07:02:02.916Z</time>
      </trkpt>
      <trkpt lat="45.79893" lon="4.7121">
        <ele>296.39999389648</ele>
        <time>2021-09-28T07:02:03.461Z</time>
      </trkpt>
      <trkpt lat="45.79906" lon="4.71195">
        <ele>295.79998779297</ele>
        <time>2021-09-28T07:02:04.011Z</time>
      </trkpt>
      <trkpt lat="45.79918" lon="4.71182">
        <ele>295.20001220703</ele>
        <time>2021-09-28T07:02:04.567Z</time>
      </trkpt>
      <trkpt lat="45.79934" lon="4.7117">
        <ele>295</ele>
        <time>2021-09-28T07:02:05.129Z</time>
      </trkpt>
      <trkpt lat="45.79949" lon="4.71152">
        <ele>294.79998779297</ele>
        <time>2021-09-28T07:02:05.697Z</time>
      </trkpt>
      <trkpt lat="45.79966" lon="4.71131">
        <ele>294</ele>
        <time>2021-09-28T07:02:06.272Z</time>
      </trkpt>
      <trkpt lat="45.79985" lon="4.71097">
        <ele>293.20001220703</ele>
        <time>2021-09-28T07:02:06.858Z</time>
      </trkpt>
      <trkpt lat="45.79994" lon="4.71078">
        <ele>293.39999389648</ele>
        <time>2021-09-28T07:02:07.449Z</time>
      </trkpt>
      <trkpt lat="45.80004" lon="4.71055">
        <ele>294.39999389648</ele>
        <time>2021-09-28T07:02:08.046Z</time>
      </trkpt>
      <trkpt lat="45.80012" lon="4.71027">
        <ele>297.79998779297</ele>
        <time>2021-09-28T07:02:08.650Z</time>
      </trkpt>
      <trkpt lat="45.80016" lon="4.70996">
        <ele>301.60000610352</ele>
        <time>2021-09-28T07:02:09.262Z</time>
      </trkpt>
      <trkpt lat="45.80021" lon="4.70969">
        <ele>304.60000610352</ele>
        <time>2021-09-28T07:02:09.880Z</time>
      </trkpt>
      <trkpt lat="45.80034" lon="4.70944">
        <ele>306</ele>
        <time>2021-09-28T07:02:10.506Z</time>
      </trkpt>
      <trkpt lat="45.80042" lon="4.70933">
        <ele>305.79998779297</ele>
        <time>2021-09-28T07:02:11.135Z</time>
      </trkpt>
      <trkpt lat="45.80042" lon="4.70929">
        <ele>305.79998779297</ele>
        <time>2021-09-28T07:02:11.765Z</time>
      </trkpt>
      <trkpt lat="45.80039" lon="4.70923">
        <ele>305.79998779297</ele>
        <time>2021-09-28T07:02:12.397Z</time>
      </trkpt>
      <trkpt lat="45.80036" lon="4.70921">
        <ele>306</ele>
        <time>2021-09-28T07:02:13.030Z</time>
      </trkpt>
      <trkpt lat="45.80019" lon="4.70913">
        <ele>305.39999389648</ele>
        <time>2021-09-28T07:02:13.669Z</time>
      </trkpt>
      <trkpt lat="45.8" lon="4.70908">
        <ele>304.79998779297</ele>
        <time>2021-09-28T07:02:14.314Z</time>
      </trkpt>
      <trkpt lat="45.79984" lon="4.70902">
        <ele>304</ele>
        <time>2021-09-28T07:02:14.965Z</time>
      </trkpt>
      <trkpt lat="45.79972" lon="4.70896">
        <ele>303.39999389648</ele>
        <time>2021-09-28T07:02:15.620Z</time>
      </trkpt>
      <trkpt lat="45.7995" lon="4.70892">
        <ele>302</ele>
        <time>2021-09-28T07:02:16.282Z</time>
      </trkpt>
      <trkpt lat="45.79932" lon="4.70886">
        <ele>301.79998779297</ele>
        <time>2021-09-28T07:02:16.951Z</time>
      </trkpt>
      <trkpt lat="45.79913" lon="4.70885">
        <ele>301.20001220703</ele>
        <time>2021-09-28T07:02:17.626Z</time>
      </trkpt>
      <trkpt lat="45.79909" lon="4.70884">
        <ele>301</ele>
        <time>2021-09-28T07:02:18.302Z</time>
      </trkpt>
      <trkpt lat="45.79903" lon="4.70877">
        <ele>301.39999389648</ele>
        <time>2021-09-28T07:02:18.981Z</time>
      </trkpt>
      <trkpt lat="45.79897" lon="4.7087">
        <ele>301.60000610352</ele>
        <time>2021-09-28T07:02:19.663Z</time>
      </trkpt>
      <trkpt lat="45.79887" lon="4.70857">
        <ele>302.39999389648</ele>
        <time>2021-09-28T07:02:20.349Z</time>
      </trkpt>
      <trkpt lat="45.79876" lon="4.70842">
        <ele>303</ele>
        <time>2021-09-28T07:02:21.040Z</time>
      </trkpt>
      <trkpt lat="45.79868" lon="4.70833">
        <ele>303.39999389648</ele>
        <time>2021-09-28T07:02:21.735Z</time>
      </trkpt>
      <trkpt lat="45.79864" lon="4.70828">
        <ele>303.20001220703</ele>
        <time>2021-09-28T07:02:22.431Z</time>
      </trkpt>
      <trkpt lat="45.79853" lon="4.70814">
        <ele>303</ele>
        <time>2021-09-28T07:02:23.132Z</time>
      </trkpt>
      <trkpt lat="45.7985" lon="4.7081">
        <ele>303</ele>
        <time>2021-09-28T07:02:23.835Z</time>
      </trkpt>
      <trkpt lat="45.79838" lon="4.70789">
        <ele>303.20001220703</ele>
        <time>2021-09-28T07:02:24.544Z</time>
      </trkpt>
      <trkpt lat="45.79831" lon="4.70768">
        <ele>303.60000610352</ele>
        <time>2021-09-28T07:02:25.258Z</time>
      </trkpt>
      <trkpt lat="45.79826" lon="4.70751">
        <ele>304</ele>
        <time>2021-09-28T07:02:25.977Z</time>
      </trkpt>
      <trkpt lat="45.79819" lon="4.70723">
        <ele>303.60000610352</ele>
        <time>2021-09-28T07:02:26.703Z</time>
      </trkpt>
      <trkpt lat="45.79809" lon="4.70693">
        <ele>302.60000610352</ele>
        <time>2021-09-28T07:02:27.436Z</time>
      </trkpt>
      <trkpt lat="45.79805" lon="4.70676">
        <ele>302.60000610352</ele>
        <time>2021-09-28T07:02:28.173Z</time>
      </trkpt>
      <trkpt lat="45.79806" lon="4.7067">
        <ele>303</ele>
        <time>2021-09-28T07:02:28.912Z</time>
      </trkpt>
      <trkpt lat="45.79811" lon="4.70657">
        <ele>303</ele>
        <time>2021-09-28T07:02:29.654Z</time>
      </trkpt>
      <trkpt lat="45.79814" lon="4.70654">
        <ele>303.39999389648</ele>
        <time>2021-09-28T07:02:30.397Z</time>
      </trkpt>
      <trkpt lat="45.79832" lon="4.70636">
        <ele>304.79998779297</ele>
        <time>2021-09-28T07:02:31.148Z</time>
      </trkpt>
      <trkpt lat="45.79845" lon="4.70625">
        <ele>306.20001220703</ele>
        <time>2021-09-28T07:02:31.904Z</time>
      </trkpt>
      <trkpt lat="45.79859" lon="4.70616">
        <ele>307.20001220703</ele>
        <time>2021-09-28T07:02:32.665Z</time>
      </trkpt>
      <trkpt lat="45.79875" lon="4.70604">
        <ele>308</ele>
        <time>2021-09-28T07:02:33.432Z</time>
      </trkpt>
      <trkpt lat="45.79878" lon="4.70601">
        <ele>308</ele>
        <time>2021-09-28T07:02:34.200Z</time>
      </trkpt>
      <trkpt lat="45.79881" lon="4.70594">
        <ele>308.39999389648</ele>
        <time>2021-09-28T07:02:34.970Z</time>
      </trkpt>
      <trkpt lat="45.7988" lon="4.7059">
        <ele>308.79998779297</ele>
        <time>2021-09-28T07:02:35.741Z</time>
      </trkpt>
      <trkpt lat="45.79881" lon="4.70585">
        <ele>308.79998779297</ele>
        <time>2021-09-28T07:02:36.513Z</time>
      </trkpt>
      <trkpt lat="45.79881" lon="4.70581">
        <ele>308.79998779297</ele>
        <time>2021-09-28T07:02:37.286Z</time>
      </trkpt>
      <trkpt lat="45.79881" lon="4.70577">
        <ele>308.79998779297</ele>
        <time>2021-09-28T07:02:38.060Z</time>
      </trkpt>
      <trkpt lat="45.79881" lon="4.70572">
        <ele>308.79998779297</ele>
        <time>2021-09-28T07:02:38.835Z</time>
      </trkpt>
      <trkpt lat="45.79878" lon="4.70553">
        <ele>308.39999389648</ele>
        <time>2021-09-28T07:02:39.615Z</time>
      </trkpt>
      <trkpt lat="45.79868" lon="4.7054">
        <ele>307.20001220703</ele>
        <time>2021-09-28T07:02:40.399Z</time>
      </trkpt>
      <trkpt lat="45.79864" lon="4.70527">
        <ele>306.60000610352</ele>
        <time>2021-09-28T07:02:41.187Z</time>
      </trkpt>
      <trkpt lat="45.79863" lon="4.70521">
        <ele>306.20001220703</ele>
        <time>2021-09-28T07:02:41.976Z</time>
      </trkpt>
      <trkpt lat="45.79858" lon="4.7051">
        <ele>305.20001220703</ele>
        <time>2021-09-28T07:02:42.768Z</time>
      </trkpt>
      <trkpt lat="45.79855" lon="4.70503">
        <ele>305.20001220703</ele>
        <time>2021-09-28T07:02:43.562Z</time>
      </trkpt>
      <trkpt lat="45.79853" lon="4.70503">
        <ele>305.20001220703</ele>
        <time>2021-09-28T07:02:44.357Z</time>
      </trkpt>
      <trkpt lat="45.79852" lon="4.70504">
        <ele>305.20001220703</ele>
        <time>2021-09-28T07:02:45.152Z</time>
      </trkpt>
      <trkpt lat="45.79848" lon="4.70505">
        <ele>305</ele>
        <time>2021-09-28T07:02:45.948Z</time>
      </trkpt>
      <trkpt lat="45.79845" lon="4.70505">
        <ele>305</ele>
        <time>2021-09-28T07:02:46.745Z</time>
      </trkpt>
      <trkpt lat="45.79841" lon="4.70503">
        <ele>305.20001220703</ele>
        <time>2021-09-28T07:02:47.544Z</time>
      </trkpt>
      <trkpt lat="45.79835" lon="4.70501">
        <ele>305.60000610352</ele>
        <time>2021-09-28T07:02:48.345Z</time>
      </trkpt>
      <trkpt lat="45.79821" lon="4.70491">
        <ele>306.60000610352</ele>
        <time>2021-09-28T07:02:49.151Z</time>
      </trkpt>
      <trkpt lat="45.79808" lon="4.70489">
        <ele>306.60000610352</ele>
        <time>2021-09-28T07:02:49.961Z</time>
      </trkpt>
      <trkpt lat="45.79793" lon="4.70485">
        <ele>306.39999389648</ele>
        <time>2021-09-28T07:02:50.777Z</time>
      </trkpt>
      <trkpt lat="45.79781" lon="4.70485">
        <ele>306.60000610352</ele>
        <time>2021-09-28T07:02:51.597Z</time>
      </trkpt>
      <trkpt lat="45.79769" lon="4.70489">
        <ele>306</ele>
        <time>2021-09-28T07:02:52.421Z</time>
      </trkpt>
      <trkpt lat="45.79757" lon="4.70494">
        <ele>305.39999389648</ele>
        <time>2021-09-28T07:02:53.249Z</time>
      </trkpt>
      <trkpt lat="45.7974" lon="4.70505">
        <ele>304.39999389648</ele>
        <time>2021-09-28T07:02:54.083Z</time>
      </trkpt>
      <trkpt lat="45.79718" lon="4.70517">
        <ele>301.79998779297</ele>
        <time>2021-09-28T07:02:54.925Z</time>
      </trkpt>
      <trkpt lat="45.79702" lon="4.70521">
        <ele>300.39999389648</ele>
        <time>2021-09-28T07:02:55.772Z</time>
      </trkpt>
      <trkpt lat="45.79685" lon="4.70532">
        <ele>298.79998779297</ele>
        <time>2021-09-28T07:02:56.625Z</time>
      </trkpt>
      <trkpt lat="45.79676" lon="4.70544">
        <ele>298</ele>
        <time>2021-09-28T07:02:57.483Z</time>
      </trkpt>
      <trkpt lat="45.79667" lon="4.70551">
        <ele>297.79998779297</ele>
        <time>2021-09-28T07:02:58.344Z</time>
      </trkpt>
      <trkpt lat="45.79663" lon="4.70553">
        <ele>297.60000610352</ele>
        <time>2021-09-28T07:02:59.206Z</time>
      </trkpt>
      <trkpt lat="45.79651" lon="4.70561">
        <ele>297.20001220703</ele>
        <time>2021-09-28T07:03:00.073Z</time>
      </trkpt>
      <trkpt lat="45.79637" lon="4.70576">
        <ele>296.60000610352</ele>
        <time>2021-09-28T07:03:00.946Z</time>
      </trkpt>
      <trkpt lat="45.7962" lon="4.70582">
        <ele>296</ele>
        <time>2021-09-28T07:03:01.824Z</time>
      </trkpt>
      <trkpt lat="45.79594" lon="4.70601">
        <ele>294</ele>
        <time>2021-09-28T07:03:02.712Z</time>
      </trkpt>
      <trkpt lat="45.79579" lon="4.70613">
        <ele>293.79998779297</ele>
        <time>2021-09-28T07:03:03.606Z</time>
      </trkpt>
      <trkpt lat="45.79575" lon="4.70618">
        <ele>294</ele>
        <time>2021-09-28T07:03:04.502Z</time>
      </trkpt>
      <trkpt lat="45.7957" lon="4.70622">
        <ele>293.79998779297</ele>
        <time>2021-09-28T07:03:05.400Z</time>
      </trkpt>
      <trkpt lat="45.79559" lon="4.70628">
        <ele>293.20001220703</ele>
        <time>2021-09-28T07:03:06.301Z</time>
      </trkpt>
      <trkpt lat="45.79544" lon="4.70639">
        <ele>291.60000610352</ele>
        <time>2021-09-28T07:03:07.208Z</time>
      </trkpt>
      <trkpt lat="45.79533" lon="4.70644">
        <ele>290.60000610352</ele>
        <time>2021-09-28T07:03:08.119Z</time>
      </trkpt>
      <trkpt lat="45.79522" lon="4.70643">
        <ele>289</ele>
        <time>2021-09-28T07:03:09.034Z</time>
      </trkpt>
      <trkpt lat="45.79518" lon="4.70641">
        <ele>288.39999389648</ele>
        <time>2021-09-28T07:03:09.950Z</time>
      </trkpt>
      <trkpt lat="45.79508" lon="4.70629">
        <ele>287.60000610352</ele>
        <time>2021-09-28T07:03:10.870Z</time>
      </trkpt>
      <trkpt lat="45.79506" lon="4.70628">
        <ele>287.39999389648</ele>
        <time>2021-09-28T07:03:11.791Z</time>
      </trkpt>
      <trkpt lat="45.79497" lon="4.70625">
        <ele>286.79998779297</ele>
        <time>2021-09-28T07:03:12.715Z</time>
      </trkpt>
      <trkpt lat="45.79491" lon="4.70625">
        <ele>286.60000610352</ele>
        <time>2021-09-28T07:03:13.641Z</time>
      </trkpt>
      <trkpt lat="45.79484" lon="4.70626">
        <ele>286.20001220703</ele>
        <time>2021-09-28T07:03:14.570Z</time>
      </trkpt>
      <trkpt lat="45.79478" lon="4.70628">
        <ele>286</ele>
        <time>2021-09-28T07:03:15.501Z</time>
      </trkpt>
      <trkpt lat="45.79473" lon="4.7063">
        <ele>286.20001220703</ele>
        <time>2021-09-28T07:03:16.434Z</time>
      </trkpt>
      <trkpt lat="45.79457" lon="4.70638">
        <ele>286.79998779297</ele>
        <time>2021-09-28T07:03:17.372Z</time>
      </trkpt>
      <trkpt lat="45.79454" lon="4.7064">
        <ele>287</ele>
        <time>2021-09-28T07:03:18.311Z</time>
      </trkpt>
      <trkpt lat="45.79445" lon="4.70648">
        <ele>287.79998779297</ele>
        <time>2021-09-28T07:03:19.254Z</time>
      </trkpt>
      <trkpt lat="45.79432" lon="4.70652">
        <ele>289.20001220703</ele>
        <time>2021-09-28T07:03:20.201Z</time>
      </trkpt>
      <trkpt lat="45.79424" lon="4.70647">
        <ele>290</ele>
        <time>2021-09-28T07:03:21.151Z</time>
      </trkpt>
      <trkpt lat="45.79422" lon="4.70645">
        <ele>290.39999389648</ele>
        <time>2021-09-28T07:03:22.102Z</time>
      </trkpt>
      <trkpt lat="45.79418" lon="4.70642">
        <ele>290.60000610352</ele>
        <time>2021-09-28T07:03:23.054Z</time>
      </trkpt>
      <trkpt lat="45.79416" lon="4.7064">
        <ele>290.79998779297</ele>
        <time>2021-09-28T07:03:24.007Z</time>
      </trkpt>
      <trkpt lat="45.79413" lon="4.7064">
        <ele>291.20001220703</ele>
        <time>2021-09-28T07:03:24.961Z</time>
      </trkpt>
      <trkpt lat="45.7941" lon="4.7063">
        <ele>290.60000610352</ele>
        <time>2021-09-28T07:03:25.918Z</time>
      </trkpt>
      <trkpt lat="45.79408" lon="4.70625">
        <ele>290.39999389648</ele>
        <time>2021-09-28T07:03:26.876Z</time>
      </trkpt>
      <trkpt lat="45.79407" lon="4.70622">
        <ele>290.39999389648</ele>
        <time>2021-09-28T07:03:27.835Z</time>
      </trkpt>
      <trkpt lat="45.794" lon="4.70604">
        <ele>289.39999389648</ele>
        <time>2021-09-28T07:03:28.799Z</time>
      </trkpt>
      <trkpt lat="45.79394" lon="4.7059">
        <ele>288.39999389648</ele>
        <time>2021-09-28T07:03:29.767Z</time>
      </trkpt>
      <trkpt lat="45.79391" lon="4.70584">
        <ele>287.79998779297</ele>
        <time>2021-09-28T07:03:30.736Z</time>
      </trkpt>
      <trkpt lat="45.79389" lon="4.70581">
        <ele>287.79998779297</ele>
        <time>2021-09-28T07:03:31.706Z</time>
      </trkpt>
      <trkpt lat="45.79381" lon="4.70567">
        <ele>286.79998779297</ele>
        <time>2021-09-28T07:03:32.680Z</time>
      </trkpt>
      <trkpt lat="45.79367" lon="4.70559">
        <ele>287.20001220703</ele>
        <time>2021-09-28T07:03:33.659Z</time>
      </trkpt>
      <trkpt lat="45.79358" lon="4.70552">
        <ele>287.60000610352</ele>
        <time>2021-09-28T07:03:34.642Z</time>
      </trkpt>
      <trkpt lat="45.79342" lon="4.70543">
        <ele>289</ele>
        <time>2021-09-28T07:03:35.631Z</time>
      </trkpt>
      <trkpt lat="45.79331" lon="4.70531">
        <ele>289.20001220703</ele>
        <time>2021-09-28T07:03:36.624Z</time>
      </trkpt>
      <trkpt lat="45.79319" lon="4.70515">
        <ele>288.60000610352</ele>
        <time>2021-09-28T07:03:37.623Z</time>
      </trkpt>
      <trkpt lat="45.79317" lon="4.70512">
        <ele>288.60000610352</ele>
        <time>2021-09-28T07:03:38.623Z</time>
      </trkpt>
      <trkpt lat="45.79309" lon="4.70506">
        <ele>289</ele>
        <time>2021-09-28T07:03:39.625Z</time>
      </trkpt>
      <trkpt lat="45.79294" lon="4.70488">
        <ele>290.39999389648</ele>
        <time>2021-09-28T07:03:40.634Z</time>
      </trkpt>
      <trkpt lat="45.79284" lon="4.70476">
        <ele>291.20001220703</ele>
        <time>2021-09-28T07:03:41.647Z</time>
      </trkpt>
      <trkpt lat="45.79282" lon="4.70473">
        <ele>291.60000610352</ele>
        <time>2021-09-28T07:03:42.661Z</time>
      </trkpt>
      <trkpt lat="45.79278" lon="4.70465">
        <ele>292.20001220703</ele>
        <time>2021-09-28T07:03:43.678Z</time>
      </trkpt>
      <trkpt lat="45.7927" lon="4.70446">
        <ele>292.60000610352</ele>
        <time>2021-09-28T07:03:44.700Z</time>
      </trkpt>
      <trkpt lat="45.79266" lon="4.70437">
        <ele>292.60000610352</ele>
        <time>2021-09-28T07:03:45.724Z</time>
      </trkpt>
      <trkpt lat="45.79267" lon="4.70436">
        <ele>292.20001220703</ele>
        <time>2021-09-28T07:03:46.749Z</time>
      </trkpt>
      <trkpt lat="45.79267" lon="4.70429">
        <ele>291.60000610352</ele>
        <time>2021-09-28T07:03:47.775Z</time>
      </trkpt>
      <trkpt lat="45.79268" lon="4.70428">
        <ele>291.39999389648</ele>
        <time>2021-09-28T07:03:48.802Z</time>
      </trkpt>
      <trkpt lat="45.79275" lon="4.70428">
        <ele>290.20001220703</ele>
        <time>2021-09-28T07:03:49.831Z</time>
      </trkpt>
      <trkpt lat="45.79279" lon="4.70422">
        <ele>289.39999389648</ele>
        <time>2021-09-28T07:03:50.862Z</time>
      </trkpt>
      <trkpt lat="45.79281" lon="4.7042">
        <ele>288.60000610352</ele>
        <time>2021-09-28T07:03:51.894Z</time>
      </trkpt>
      <trkpt lat="45.79282" lon="4.70418">
        <ele>288.20001220703</ele>
        <time>2021-09-28T07:03:52.926Z</time>
      </trkpt>
      <trkpt lat="45.79288" lon="4.70412">
        <ele>288</ele>
        <time>2021-09-28T07:03:53.961Z</time>
      </trkpt>
      <trkpt lat="45.79301" lon="4.70408">
        <ele>287.60000610352</ele>
        <time>2021-09-28T07:03:55.000Z</time>
      </trkpt>
      <trkpt lat="45.79305" lon="4.70408">
        <ele>287.60000610352</ele>
        <time>2021-09-28T07:03:56.041Z</time>
      </trkpt>
      <trkpt lat="45.79308" lon="4.70408">
        <ele>287.79998779297</ele>
        <time>2021-09-28T07:03:57.082Z</time>
      </trkpt>
      <trkpt lat="45.79311" lon="4.70408">
        <ele>288</ele>
        <time>2021-09-28T07:03:58.125Z</time>
      </trkpt>
      <trkpt lat="45.79315" lon="4.70406">
        <ele>288.20001220703</ele>
        <time>2021-09-28T07:03:59.169Z</time>
      </trkpt>
      <trkpt lat="45.79317" lon="4.70404">
        <ele>288.39999389648</ele>
        <time>2021-09-28T07:04:00.214Z</time>
      </trkpt>
      <trkpt lat="45.79322" lon="4.70396">
        <ele>289</ele>
        <time>2021-09-28T07:04:01.261Z</time>
      </trkpt>
      <trkpt lat="45.79325" lon="4.70394">
        <ele>289</ele>
        <time>2021-09-28T07:04:02.310Z</time>
      </trkpt>
      <trkpt lat="45.7933" lon="4.70392">
        <ele>289</ele>
        <time>2021-09-28T07:04:03.360Z</time>
      </trkpt>
      <trkpt lat="45.79334" lon="4.70393">
        <ele>289</ele>
        <time>2021-09-28T07:04:04.412Z</time>
      </trkpt>
      <trkpt lat="45.79337" lon="4.70391">
        <ele>289.20001220703</ele>
        <time>2021-09-28T07:04:05.465Z</time>
      </trkpt>
      <trkpt lat="45.79344" lon="4.70386">
        <ele>289.79998779297</ele>
        <time>2021-09-28T07:04:06.520Z</time>
      </trkpt>
      <trkpt lat="45.79345" lon="4.70384">
        <ele>289.79998779297</ele>
        <time>2021-09-28T07:04:07.576Z</time>
      </trkpt>
      <trkpt lat="45.79351" lon="4.70378">
        <ele>290.60000610352</ele>
        <time>2021-09-28T07:04:08.634Z</time>
      </trkpt>
      <trkpt lat="45.79352" lon="4.70376">
        <ele>290.79998779297</ele>
        <time>2021-09-28T07:04:09.693Z</time>
      </trkpt>
      <trkpt lat="45.79357" lon="4.70374">
        <ele>291</ele>
        <time>2021-09-28T07:04:10.754Z</time>
      </trkpt>
      <trkpt lat="45.79358" lon="4.70374">
        <ele>291</ele>
        <time>2021-09-28T07:04:11.815Z</time>
      </trkpt>
      <trkpt lat="45.79363" lon="4.70372">
        <ele>291.39999389648</ele>
        <time>2021-09-28T07:04:12.877Z</time>
      </trkpt>
      <trkpt lat="45.79368" lon="4.70371">
        <ele>291.60000610352</ele>
        <time>2021-09-28T07:04:13.941Z</time>
      </trkpt>
      <trkpt lat="45.7937" lon="4.70371">
        <ele>291.79998779297</ele>
        <time>2021-09-28T07:04:15.006Z</time>
      </trkpt>
      <trkpt lat="45.79379" lon="4.70368">
        <ele>292</ele>
        <time>2021-09-28T07:04:16.074Z</time>
      </trkpt>
      <trkpt lat="45.7939" lon="4.70366">
        <ele>292</ele>
        <time>2021-09-28T07:04:17.146Z</time>
      </trkpt>
      <trkpt lat="45.79395" lon="4.70364">
        <ele>292.20001220703</ele>
        <time>2021-09-28T07:04:18.220Z</time>
      </trkpt>
      <trkpt lat="45.79398" lon="4.70363">
        <ele>292.20001220703</ele>
        <time>2021-09-28T07:04:19.295Z</time>
      </trkpt>
      <trkpt lat="45.794" lon="4.70361">
        <ele>292.39999389648</ele>
        <time>2021-09-28T07:04:20.370Z</time>
      </trkpt>
      <trkpt lat="45.79406" lon="4.70354">
        <ele>292.79998779297</ele>
        <time>2021-09-28T07:04:21.448Z</time>
      </trkpt>
      <trkpt lat="45.79411" lon="4.70344">
        <ele>293.20001220703</ele>
        <time>2021-09-28T07:04:22.529Z</time>
      </trkpt>
      <trkpt lat="45.79412" lon="4.7034">
        <ele>293.60000610352</ele>
        <time>2021-09-28T07:04:23.611Z</time>
      </trkpt>
      <trkpt lat="45.79414" lon="4.70334">
        <ele>293.79998779297</ele>
        <time>2021-09-28T07:04:24.694Z</time>
      </trkpt>
      <trkpt lat="45.79413" lon="4.7033">
        <ele>293.79998779297</ele>
        <time>2021-09-28T07:04:25.778Z</time>
      </trkpt>
      <trkpt lat="45.79413" lon="4.70322">
        <ele>294.20001220703</ele>
        <time>2021-09-28T07:04:26.864Z</time>
      </trkpt>
      <trkpt lat="45.79414" lon="4.70321">
        <ele>294.20001220703</ele>
        <time>2021-09-28T07:04:27.951Z</time>
      </trkpt>
      <trkpt lat="45.79415" lon="4.70315">
        <ele>294.39999389648</ele>
        <time>2021-09-28T07:04:29.039Z</time>
      </trkpt>
      <trkpt lat="45.79416" lon="4.7031">
        <ele>294.79998779297</ele>
        <time>2021-09-28T07:04:30.128Z</time>
      </trkpt>
      <trkpt lat="45.79417" lon="4.70306">
        <ele>295</ele>
        <time>2021-09-28T07:04:31.218Z</time>
      </trkpt>
      <trkpt lat="45.79418" lon="4.70298">
        <ele>295.20001220703</ele>
        <time>2021-09-28T07:04:32.310Z</time>
      </trkpt>
      <trkpt lat="45.79417" lon="4.70281">
        <ele>295.79998779297</ele>
        <time>2021-09-28T07:04:33.406Z</time>
      </trkpt>
      <trkpt lat="45.79417" lon="4.70266">
        <ele>296</ele>
        <time>2021-09-28T07:04:34.506Z</time>
      </trkpt>
      <trkpt lat="45.79414" lon="4.70251">
        <ele>296.39999389648</ele>
        <time>2021-09-28T07:04:35.609Z</time>
      </trkpt>
      <trkpt lat="45.79406" lon="4.70231">
        <ele>297.79998779297</ele>
        <time>2021-09-28T07:04:36.718Z</time>
      </trkpt>
      <trkpt lat="45.79398" lon="4.70214">
        <ele>298.39999389648</ele>
        <time>2021-09-28T07:04:37.831Z</time>
      </trkpt>
      <trkpt lat="45.79388" lon="4.70199">
        <ele>299.20001220703</ele>
        <time>2021-09-28T07:04:38.949Z</time>
      </trkpt>
      <trkpt lat="45.79382" lon="4.70189">
        <ele>299.79998779297</ele>
        <time>2021-09-28T07:04:40.070Z</time>
      </trkpt>
      <trkpt lat="45.7938" lon="4.70187">
        <ele>300</ele>
        <time>2021-09-28T07:04:41.192Z</time>
      </trkpt>
      <trkpt lat="45.79365" lon="4.70176">
        <ele>300.39999389648</ele>
        <time>2021-09-28T07:04:42.320Z</time>
      </trkpt>
      <trkpt lat="45.79357" lon="4.70164">
        <ele>300.39999389648</ele>
        <time>2021-09-28T07:04:43.451Z</time>
      </trkpt>
      <trkpt lat="45.79351" lon="4.70153">
        <ele>300.39999389648</ele>
        <time>2021-09-28T07:04:44.586Z</time>
      </trkpt>
      <trkpt lat="45.7935" lon="4.70152">
        <ele>300.20001220703</ele>
        <time>2021-09-28T07:04:45.721Z</time>
      </trkpt>
      <trkpt lat="45.79352" lon="4.70134">
        <ele>300.39999389648</ele>
        <time>2021-09-28T07:04:46.861Z</time>
      </trkpt>
      <trkpt lat="45.79353" lon="4.70131">
        <ele>300.39999389648</ele>
        <time>2021-09-28T07:04:48.001Z</time>
      </trkpt>
      <trkpt lat="45.79356" lon="4.70119">
        <ele>301</ele>
        <time>2021-09-28T07:04:49.144Z</time>
      </trkpt>
      <trkpt lat="45.79357" lon="4.70117">
        <ele>301.20001220703</ele>
        <time>2021-09-28T07:04:50.288Z</time>
      </trkpt>
      <trkpt lat="45.7936" lon="4.70106">
        <ele>301.60000610352</ele>
        <time>2021-09-28T07:04:51.435Z</time>
      </trkpt>
      <trkpt lat="45.79368" lon="4.7009">
        <ele>302</ele>
        <time>2021-09-28T07:04:52.586Z</time>
      </trkpt>
      <trkpt lat="45.79372" lon="4.70081">
        <ele>302</ele>
        <time>2021-09-28T07:04:53.740Z</time>
      </trkpt>
      <trkpt lat="45.79376" lon="4.70066">
        <ele>302</ele>
        <time>2021-09-28T07:04:54.898Z</time>
      </trkpt>
      <trkpt lat="45.79368" lon="4.70053">
        <ele>301.79998779297</ele>
        <time>2021-09-28T07:04:56.060Z</time>
      </trkpt>
      <trkpt lat="45.79357" lon="4.70046">
        <ele>301.39999389648</ele>
        <time>2021-09-28T07:04:57.225Z</time>
      </trkpt>
      <trkpt lat="45.79351" lon="4.7003">
        <ele>301</ele>
        <time>2021-09-28T07:04:58.395Z</time>
      </trkpt>
      <trkpt lat="45.79352" lon="4.70001">
        <ele>301</ele>
        <time>2021-09-28T07:04:59.571Z</time>
      </trkpt>
      <trkpt lat="45.79355" lon="4.69966">
        <ele>302.39999389648</ele>
        <time>2021-09-28T07:05:00.756Z</time>
      </trkpt>
      <trkpt lat="45.79353" lon="4.69946">
        <ele>303.79998779297</ele>
        <time>2021-09-28T07:05:01.945Z</time>
      </trkpt>
      <trkpt lat="45.79352" lon="4.69927">
        <ele>305.20001220703</ele>
        <time>2021-09-28T07:05:03.139Z</time>
      </trkpt>
      <trkpt lat="45.79355" lon="4.69908">
        <ele>306</ele>
        <time>2021-09-28T07:05:04.337Z</time>
      </trkpt>
      <trkpt lat="45.79356" lon="4.69883">
        <ele>306</ele>
        <time>2021-09-28T07:05:05.541Z</time>
      </trkpt>
      <trkpt lat="45.7936" lon="4.69851">
        <ele>305.60000610352</ele>
        <time>2021-09-28T07:05:06.753Z</time>
      </trkpt>
      <trkpt lat="45.79363" lon="4.69824">
        <ele>306</ele>
        <time>2021-09-28T07:05:07.971Z</time>
      </trkpt>
      <trkpt lat="45.79369" lon="4.69791">
        <ele>306.79998779297</ele>
        <time>2021-09-28T07:05:09.197Z</time>
      </trkpt>
      <trkpt lat="45.79373" lon="4.69765">
        <ele>308.60000610352</ele>
        <time>2021-09-28T07:05:10.429Z</time>
      </trkpt>
      <trkpt lat="45.79377" lon="4.69742">
        <ele>310.60000610352</ele>
        <time>2021-09-28T07:05:11.667Z</time>
      </trkpt>
      <trkpt lat="45.7938" lon="4.69718">
        <ele>311.79998779297</ele>
        <time>2021-09-28T07:05:12.911Z</time>
      </trkpt>
      <trkpt lat="45.79382" lon="4.69699">
        <ele>312.39999389648</ele>
        <time>2021-09-28T07:05:14.159Z</time>
      </trkpt>
      <trkpt lat="45.79386" lon="4.69678">
        <ele>312.60000610352</ele>
        <time>2021-09-28T07:05:15.412Z</time>
      </trkpt>
      <trkpt lat="45.79388" lon="4.6966">
        <ele>313.20001220703</ele>
        <time>2021-09-28T07:05:16.669Z</time>
      </trkpt>
      <trkpt lat="45.79391" lon="4.69638">
        <ele>315</ele>
        <time>2021-09-28T07:05:17.931Z</time>
      </trkpt>
      <trkpt lat="45.79393" lon="4.69623">
        <ele>316.20001220703</ele>
        <time>2021-09-28T07:05:19.197Z</time>
      </trkpt>
      <trkpt lat="45.79393" lon="4.6962">
        <ele>316.39999389648</ele>
        <time>2021-09-28T07:05:20.464Z</time>
      </trkpt>
      <trkpt lat="45.79395" lon="4.69609">
        <ele>317</ele>
        <time>2021-09-28T07:05:21.733Z</time>
      </trkpt>
      <trkpt lat="45.79396" lon="4.69596">
        <ele>317.60000610352</ele>
        <time>2021-09-28T07:05:23.006Z</time>
      </trkpt>
      <trkpt lat="45.79396" lon="4.69593">
        <ele>317.79998779297</ele>
        <time>2021-09-28T07:05:24.279Z</time>
      </trkpt>
      <trkpt lat="45.79399" lon="4.69572">
        <ele>318</ele>
        <time>2021-09-28T07:05:25.557Z</time>
      </trkpt>
      <trkpt lat="45.79404" lon="4.6955">
        <ele>317.39999389648</ele>
        <time>2021-09-28T07:05:26.841Z</time>
      </trkpt>
      <trkpt lat="45.79408" lon="4.69528">
        <ele>316.60000610352</ele>
        <time>2021-09-28T07:05:28.130Z</time>
      </trkpt>
      <trkpt lat="45.79413" lon="4.69505">
        <ele>317</ele>
        <time>2021-09-28T07:05:29.424Z</time>
      </trkpt>
      <trkpt lat="45.79417" lon="4.69488">
        <ele>317.60000610352</ele>
        <time>2021-09-28T07:05:30.723Z</time>
      </trkpt>
      <trkpt lat="45.79423" lon="4.6946">
        <ele>319.20001220703</ele>
        <time>2021-09-28T07:05:32.028Z</time>
      </trkpt>
      <trkpt lat="45.79426" lon="4.69443">
        <ele>320.79998779297</ele>
        <time>2021-09-28T07:05:33.338Z</time>
      </trkpt>
      <trkpt lat="45.79429" lon="4.69421">
        <ele>323</ele>
        <time>2021-09-28T07:05:34.653Z</time>
      </trkpt>
      <trkpt lat="45.79433" lon="4.69388">
        <ele>324.39999389648</ele>
        <time>2021-09-28T07:05:35.976Z</time>
      </trkpt>
      <trkpt lat="45.79433" lon="4.69361">
        <ele>325</ele>
        <time>2021-09-28T07:05:37.305Z</time>
      </trkpt>
      <trkpt lat="45.79434" lon="4.6934">
        <ele>326.20001220703</ele>
        <time>2021-09-28T07:05:38.639Z</time>
      </trkpt>
      <trkpt lat="45.79438" lon="4.69314">
        <ele>327</ele>
        <time>2021-09-28T07:05:39.979Z</time>
      </trkpt>
      <trkpt lat="45.79442" lon="4.69288">
        <ele>328.39999389648</ele>
        <time>2021-09-28T07:05:41.325Z</time>
      </trkpt>
      <trkpt lat="45.79447" lon="4.69259">
        <ele>330</ele>
        <time>2021-09-28T07:05:42.678Z</time>
      </trkpt>
      <trkpt lat="45.79447" lon="4.69235">
        <ele>331.20001220703</ele>
        <time>2021-09-28T07:05:44.037Z</time>
      </trkpt>
      <trkpt lat="45.79445" lon="4.69238">
        <ele>331.20001220703</ele>
        <time>2021-09-28T07:05:45.397Z</time>
      </trkpt>
      <trkpt lat="45.79445" lon="4.6924">
        <ele>331.20001220703</ele>
        <time>2021-09-28T07:05:46.758Z</time>
      </trkpt>
      <trkpt lat="45.79447" lon="4.69243">
        <ele>330.79998779297</ele>
        <time>2021-09-28T07:05:48.120Z</time>
      </trkpt>
      <trkpt lat="45.79449" lon="4.69243">
        <ele>330.79998779297</ele>
        <time>2021-09-28T07:05:49.482Z</time>
      </trkpt>
      <trkpt lat="45.7945" lon="4.69242">
        <ele>330.60000610352</ele>
        <time>2021-09-28T07:05:50.844Z</time>
      </trkpt>
      <trkpt lat="45.79451" lon="4.69237">
        <ele>330.79998779297</ele>
        <time>2021-09-28T07:05:52.208Z</time>
      </trkpt>
      <trkpt lat="45.79451" lon="4.69234">
        <ele>330.79998779297</ele>
        <time>2021-09-28T07:05:53.572Z</time>
      </trkpt>
      <trkpt lat="45.79452" lon="4.69221">
        <ele>331.20001220703</ele>
        <time>2021-09-28T07:05:54.940Z</time>
      </trkpt>
      <trkpt lat="45.79457" lon="4.69192">
        <ele>331.79998779297</ele>
        <time>2021-09-28T07:05:56.314Z</time>
      </trkpt>
      <trkpt lat="45.79461" lon="4.69169">
        <ele>331.79998779297</ele>
        <time>2021-09-28T07:05:57.694Z</time>
      </trkpt>
      <trkpt lat="45.79464" lon="4.69142">
        <ele>331.60000610352</ele>
        <time>2021-09-28T07:05:59.080Z</time>
      </trkpt>
      <trkpt lat="45.79468" lon="4.69121">
        <ele>332.79998779297</ele>
        <time>2021-09-28T07:06:00.472Z</time>
      </trkpt>
      <trkpt lat="45.7947" lon="4.69103">
        <ele>333.60000610352</ele>
        <time>2021-09-28T07:06:01.868Z</time>
      </trkpt>
      <trkpt lat="45.7947" lon="4.69086">
        <ele>334.79998779297</ele>
        <time>2021-09-28T07:06:03.268Z</time>
      </trkpt>
      <trkpt lat="45.7947" lon="4.6906">
        <ele>335.79998779297</ele>
        <time>2021-09-28T07:06:04.674Z</time>
      </trkpt>
      <trkpt lat="45.7947" lon="4.69033">
        <ele>336.39999389648</ele>
        <time>2021-09-28T07:06:06.086Z</time>
      </trkpt>
      <trkpt lat="45.79472" lon="4.69007">
        <ele>336.60000610352</ele>
        <time>2021-09-28T07:06:07.504Z</time>
      </trkpt>
      <trkpt lat="45.79472" lon="4.68988">
        <ele>337.20001220703</ele>
        <time>2021-09-28T07:06:08.926Z</time>
      </trkpt>
      <trkpt lat="45.79471" lon="4.68961">
        <ele>337.60000610352</ele>
        <time>2021-09-28T07:06:10.355Z</time>
      </trkpt>
      <trkpt lat="45.79472" lon="4.68933">
        <ele>337.60000610352</ele>
        <time>2021-09-28T07:06:11.790Z</time>
      </trkpt>
      <trkpt lat="45.79474" lon="4.68903">
        <ele>338</ele>
        <time>2021-09-28T07:06:13.232Z</time>
      </trkpt>
      <trkpt lat="45.79475" lon="4.68883">
        <ele>338.60000610352</ele>
        <time>2021-09-28T07:06:14.679Z</time>
      </trkpt>
      <trkpt lat="45.7948" lon="4.68856">
        <ele>340</ele>
        <time>2021-09-28T07:06:16.133Z</time>
      </trkpt>
      <trkpt lat="45.79479" lon="4.68834">
        <ele>340</ele>
        <time>2021-09-28T07:06:17.592Z</time>
      </trkpt>
      <trkpt lat="45.79482" lon="4.68807">
        <ele>340</ele>
        <time>2021-09-28T07:06:19.057Z</time>
      </trkpt>
      <trkpt lat="45.79485" lon="4.68777">
        <ele>339.60000610352</ele>
        <time>2021-09-28T07:06:20.529Z</time>
      </trkpt>
      <trkpt lat="45.79493" lon="4.6875">
        <ele>340.39999389648</ele>
        <time>2021-09-28T07:06:22.008Z</time>
      </trkpt>
      <trkpt lat="45.79507" lon="4.68717">
        <ele>342</ele>
        <time>2021-09-28T07:06:23.496Z</time>
      </trkpt>
      <trkpt lat="45.79519" lon="4.68692">
        <ele>342.20001220703</ele>
        <time>2021-09-28T07:06:24.991Z</time>
      </trkpt>
      <trkpt lat="45.7953" lon="4.6867">
        <ele>343.20001220703</ele>
        <time>2021-09-28T07:06:26.492Z</time>
      </trkpt>
      <trkpt lat="45.79541" lon="4.68648">
        <ele>344.79998779297</ele>
        <time>2021-09-28T07:06:28.000Z</time>
      </trkpt>
      <trkpt lat="45.79552" lon="4.68624">
        <ele>345.79998779297</ele>
        <time>2021-09-28T07:06:29.514Z</time>
      </trkpt>
      <trkpt lat="45.79562" lon="4.68604">
        <ele>346.60000610352</ele>
        <time>2021-09-28T07:06:31.034Z</time>
      </trkpt>
      <trkpt lat="45.79574" lon="4.68572">
        <ele>349.20001220703</ele>
        <time>2021-09-28T07:06:32.562Z</time>
      </trkpt>
      <trkpt lat="45.79581" lon="4.68546">
        <ele>351.39999389648</ele>
        <time>2021-09-28T07:06:34.097Z</time>
      </trkpt>
      <trkpt lat="45.79589" lon="4.68521">
        <ele>353.20001220703</ele>
        <time>2021-09-28T07:06:35.638Z</time>
      </trkpt>
      <trkpt lat="45.79598" lon="4.68492">
        <ele>355</ele>
        <time>2021-09-28T07:06:37.187Z</time>
      </trkpt>
      <trkpt lat="45.79607" lon="4.68469">
        <ele>356</ele>
        <time>2021-09-28T07:06:38.742Z</time>
      </trkpt>
      <trkpt lat="45.79613" lon="4.6845">
        <ele>358</ele>
        <time>2021-09-28T07:06:40.302Z</time>
      </trkpt>
      <trkpt lat="45.7962" lon="4.68433">
        <ele>359.79998779297</ele>
        <time>2021-09-28T07:06:41.866Z</time>
      </trkpt>
      <trkpt lat="45.79628" lon="4.68414">
        <ele>361.79998779297</ele>
        <time>2021-09-28T07:06:43.436Z</time>
      </trkpt>
      <trkpt lat="45.79637" lon="4.68394">
        <ele>364</ele>
        <time>2021-09-28T07:06:45.011Z</time>
      </trkpt>
      <trkpt lat="45.79644" lon="4.68377">
        <ele>365.60000610352</ele>
        <time>2021-09-28T07:06:46.591Z</time>
      </trkpt>
      <trkpt lat="45.79648" lon="4.68363">
        <ele>367.20001220703</ele>
        <time>2021-09-28T07:06:48.174Z</time>
      </trkpt>
      <trkpt lat="45.79656" lon="4.68346">
        <ele>367.79998779297</ele>
        <time>2021-09-28T07:06:49.762Z</time>
      </trkpt>
      <trkpt lat="45.79659" lon="4.68323">
        <ele>369</ele>
        <time>2021-09-28T07:06:51.356Z</time>
      </trkpt>
      <trkpt lat="45.79662" lon="4.68306">
        <ele>369.79998779297</ele>
        <time>2021-09-28T07:06:52.954Z</time>
      </trkpt>
      <trkpt lat="45.79665" lon="4.68289">
        <ele>370.79998779297</ele>
        <time>2021-09-28T07:06:54.556Z</time>
      </trkpt>
      <trkpt lat="45.79669" lon="4.68274">
        <ele>371.60000610352</ele>
        <time>2021-09-28T07:06:56.161Z</time>
      </trkpt>
      <trkpt lat="45.7967" lon="4.68258">
        <ele>372.39999389648</ele>
        <time>2021-09-28T07:06:57.770Z</time>
      </trkpt>
      <trkpt lat="45.79674" lon="4.68242">
        <ele>372.39999389648</ele>
        <time>2021-09-28T07:06:59.383Z</time>
      </trkpt>
      <trkpt lat="45.79675" lon="4.68219">
        <ele>371.60000610352</ele>
        <time>2021-09-28T07:07:01.001Z</time>
      </trkpt>
      <trkpt lat="45.79675" lon="4.68198">
        <ele>371</ele>
        <time>2021-09-28T07:07:02.624Z</time>
      </trkpt>
      <trkpt lat="45.79677" lon="4.68177">
        <ele>372</ele>
        <time>2021-09-28T07:07:04.252Z</time>
      </trkpt>
      <trkpt lat="45.79677" lon="4.68156">
        <ele>372.79998779297</ele>
        <time>2021-09-28T07:07:05.885Z</time>
      </trkpt>
      <trkpt lat="45.79677" lon="4.68153">
        <ele>373</ele>
        <time>2021-09-28T07:07:07.519Z</time>
      </trkpt>
      <trkpt lat="45.79675" lon="4.68149">
        <ele>372.79998779297</ele>
        <time>2021-09-28T07:07:09.154Z</time>
      </trkpt>
      <trkpt lat="45.79675" lon="4.68142">
        <ele>373</ele>
        <time>2021-09-28T07:07:10.790Z</time>
      </trkpt>
      <trkpt lat="45.79671" lon="4.68115">
        <ele>373.20001220703</ele>
        <time>2021-09-28T07:07:12.433Z</time>
      </trkpt>
      <trkpt lat="45.79667" lon="4.68082">
        <ele>373.79998779297</ele>
        <time>2021-09-28T07:07:14.084Z</time>
      </trkpt>
      <trkpt lat="45.79662" lon="4.68049">
        <ele>374.39999389648</ele>
        <time>2021-09-28T07:07:15.743Z</time>
      </trkpt>
      <trkpt lat="45.79657" lon="4.68019">
        <ele>375.20001220703</ele>
        <time>2021-09-28T07:07:17.409Z</time>
      </trkpt>
      <trkpt lat="45.7965" lon="4.67979">
        <ele>376</ele>
        <time>2021-09-28T07:07:19.084Z</time>
      </trkpt>
      <trkpt lat="45.79634" lon="4.67935">
        <ele>376</ele>
        <time>2021-09-28T07:07:20.771Z</time>
      </trkpt>
      <trkpt lat="45.7962" lon="4.67895">
        <ele>377</ele>
        <time>2021-09-28T07:07:22.468Z</time>
      </trkpt>
      <trkpt lat="45.79606" lon="4.67852">
        <ele>379.39999389648</ele>
        <time>2021-09-28T07:07:24.177Z</time>
      </trkpt>
      <trkpt lat="45.79595" lon="4.6782">
        <ele>381.39999389648</ele>
        <time>2021-09-28T07:07:25.894Z</time>
      </trkpt>
      <trkpt lat="45.79584" lon="4.67786">
        <ele>382.60000610352</ele>
        <time>2021-09-28T07:07:27.619Z</time>
      </trkpt>
      <trkpt lat="45.79576" lon="4.67757">
        <ele>383.20001220703</ele>
        <time>2021-09-28T07:07:29.352Z</time>
      </trkpt>
      <trkpt lat="45.79568" lon="4.67735">
        <ele>384.39999389648</ele>
        <time>2021-09-28T07:07:31.091Z</time>
      </trkpt>
      <trkpt lat="45.79559" lon="4.67712">
        <ele>385.60000610352</ele>
        <time>2021-09-28T07:07:32.836Z</time>
      </trkpt>
      <trkpt lat="45.7955" lon="4.67696">
        <ele>387</ele>
        <time>2021-09-28T07:07:34.585Z</time>
      </trkpt>
      <trkpt lat="45.79542" lon="4.67679">
        <ele>388.20001220703</ele>
        <time>2021-09-28T07:07:36.339Z</time>
      </trkpt>
      <trkpt lat="45.79541" lon="4.67677">
        <ele>388.20001220703</ele>
        <time>2021-09-28T07:07:38.094Z</time>
      </trkpt>
      <trkpt lat="45.79539" lon="4.67667">
        <ele>388.79998779297</ele>
        <time>2021-09-28T07:07:39.851Z</time>
      </trkpt>
      <trkpt lat="45.79532" lon="4.67652">
        <ele>390.20001220703</ele>
        <time>2021-09-28T07:07:41.613Z</time>
      </trkpt>
      <trkpt lat="45.79527" lon="4.6764">
        <ele>391.20001220703</ele>
        <time>2021-09-28T07:07:43.378Z</time>
      </trkpt>
      <trkpt lat="45.79525" lon="4.67632">
        <ele>391.60000610352</ele>
        <time>2021-09-28T07:07:45.145Z</time>
      </trkpt>
      <trkpt lat="45.79522" lon="4.67625">
        <ele>392.20001220703</ele>
        <time>2021-09-28T07:07:46.914Z</time>
      </trkpt>
      <trkpt lat="45.79521" lon="4.67621">
        <ele>392.39999389648</ele>
        <time>2021-09-28T07:07:48.684Z</time>
      </trkpt>
      <trkpt lat="45.79518" lon="4.6761">
        <ele>393.60000610352</ele>
        <time>2021-09-28T07:07:50.456Z</time>
      </trkpt>
      <trkpt lat="45.79515" lon="4.67597">
        <ele>395.20001220703</ele>
        <time>2021-09-28T07:07:52.231Z</time>
      </trkpt>
      <trkpt lat="45.79512" lon="4.67583">
        <ele>397.20001220703</ele>
        <time>2021-09-28T07:07:54.010Z</time>
      </trkpt>
      <trkpt lat="45.7951" lon="4.67574">
        <ele>398.20001220703</ele>
        <time>2021-09-28T07:07:55.791Z</time>
      </trkpt>
      <trkpt lat="45.79509" lon="4.67573">
        <ele>398.60000610352</ele>
        <time>2021-09-28T07:07:57.573Z</time>
      </trkpt>
      <trkpt lat="45.79508" lon="4.67563">
        <ele>399.79998779297</ele>
        <time>2021-09-28T07:07:59.357Z</time>
      </trkpt>
      <trkpt lat="45.79507" lon="4.6755">
        <ele>401.20001220703</ele>
        <time>2021-09-28T07:08:01.144Z</time>
      </trkpt>
      <trkpt lat="45.79507" lon="4.67545">
        <ele>401.60000610352</ele>
        <time>2021-09-28T07:08:02.932Z</time>
      </trkpt>
      <trkpt lat="45.79506" lon="4.67536">
        <ele>402.60000610352</ele>
        <time>2021-09-28T07:08:04.722Z</time>
      </trkpt>
      <trkpt lat="45.79505" lon="4.67525">
        <ele>403.60000610352</ele>
        <time>2021-09-28T07:08:06.515Z</time>
      </trkpt>
      <trkpt lat="45.79505" lon="4.67523">
        <ele>403.79998779297</ele>
        <time>2021-09-28T07:08:08.308Z</time>
      </trkpt>
      <trkpt lat="45.79504" lon="4.67514">
        <ele>404.39999389648</ele>
        <time>2021-09-28T07:08:10.103Z</time>
      </trkpt>
      <trkpt lat="45.79503" lon="4.67501">
        <ele>405.20001220703</ele>
        <time>2021-09-28T07:08:11.901Z</time>
      </trkpt>
      <trkpt lat="45.795" lon="4.67488">
        <ele>406.20001220703</ele>
        <time>2021-09-28T07:08:13.703Z</time>
      </trkpt>
      <trkpt lat="45.79499" lon="4.67474">
        <ele>407.39999389648</ele>
        <time>2021-09-28T07:08:15.508Z</time>
      </trkpt>
      <trkpt lat="45.79498" lon="4.67464">
        <ele>408.60000610352</ele>
        <time>2021-09-28T07:08:17.315Z</time>
      </trkpt>
      <trkpt lat="45.79495" lon="4.67451">
        <ele>409.79998779297</ele>
        <time>2021-09-28T07:08:19.125Z</time>
      </trkpt>
      <trkpt lat="45.79494" lon="4.67447">
        <ele>410.79998779297</ele>
        <time>2021-09-28T07:08:20.937Z</time>
      </trkpt>
      <trkpt lat="45.79494" lon="4.67442">
        <ele>412</ele>
        <time>2021-09-28T07:08:22.750Z</time>
      </trkpt>
      <trkpt lat="45.79495" lon="4.6744">
        <ele>412.60000610352</ele>
        <time>2021-09-28T07:08:24.563Z</time>
      </trkpt>
      <trkpt lat="45.79499" lon="4.67424">
        <ele>415.20001220703</ele>
        <time>2021-09-28T07:08:26.380Z</time>
      </trkpt>
      <trkpt lat="45.79499" lon="4.67411">
        <ele>417.79998779297</ele>
        <time>2021-09-28T07:08:28.200Z</time>
      </trkpt>
      <trkpt lat="45.79503" lon="4.67394">
        <ele>419.39999389648</ele>
        <time>2021-09-28T07:08:30.024Z</time>
      </trkpt>
      <trkpt lat="45.79509" lon="4.67386">
        <ele>417.79998779297</ele>
        <time>2021-09-28T07:08:31.851Z</time>
      </trkpt>
      <trkpt lat="45.7951" lon="4.67385">
        <ele>417.39999389648</ele>
        <time>2021-09-28T07:08:33.679Z</time>
      </trkpt>
      <trkpt lat="45.79513" lon="4.67381">
        <ele>416.79998779297</ele>
        <time>2021-09-28T07:08:35.508Z</time>
      </trkpt>
      <trkpt lat="45.79513" lon="4.67378">
        <ele>416.60000610352</ele>
        <time>2021-09-28T07:08:37.337Z</time>
      </trkpt>
      <trkpt lat="45.79516" lon="4.67369">
        <ele>416</ele>
        <time>2021-09-28T07:08:39.169Z</time>
      </trkpt>
      <trkpt lat="45.79517" lon="4.67363">
        <ele>416</ele>
        <time>2021-09-28T07:08:41.002Z</time>
      </trkpt>
      <trkpt lat="45.79518" lon="4.67357">
        <ele>416</ele>
        <time>2021-09-28T07:08:42.837Z</time>
      </trkpt>
      <trkpt lat="45.79518" lon="4.67354">
        <ele>416</ele>
        <time>2021-09-28T07:08:44.672Z</time>
      </trkpt>
      <trkpt lat="45.79519" lon="4.67351">
        <ele>415.79998779297</ele>
        <time>2021-09-28T07:08:46.508Z</time>
      </trkpt>
      <trkpt lat="45.79519" lon="4.67348">
        <ele>415.79998779297</ele>
        <time>2021-09-28T07:08:48.345Z</time>
      </trkpt>
      <trkpt lat="45.79522" lon="4.67338">
        <ele>416</ele>
        <time>2021-09-28T07:08:50.184Z</time>
      </trkpt>
      <trkpt lat="45.79524" lon="4.67326">
        <ele>416.60000610352</ele>
        <time>2021-09-28T07:08:52.026Z</time>
      </trkpt>
      <trkpt lat="45.79527" lon="4.67314">
        <ele>417</ele>
        <time>2021-09-28T07:08:53.871Z</time>
      </trkpt>
      <trkpt lat="45.79531" lon="4.67307">
        <ele>417.20001220703</ele>
        <time>2021-09-28T07:08:55.718Z</time>
      </trkpt>
      <trkpt lat="45.79531" lon="4.67302">
        <ele>417.79998779297</ele>
        <time>2021-09-28T07:08:57.566Z</time>
      </trkpt>
      <trkpt lat="45.79532" lon="4.67298">
        <ele>418.20001220703</ele>
        <time>2021-09-28T07:08:59.415Z</time>
      </trkpt>
      <trkpt lat="45.79536" lon="4.67285">
        <ele>419.60000610352</ele>
        <time>2021-09-28T07:09:01.268Z</time>
      </trkpt>
      <trkpt lat="45.7954" lon="4.67279">
        <ele>420.39999389648</ele>
        <time>2021-09-28T07:09:03.122Z</time>
      </trkpt>
      <trkpt lat="45.79544" lon="4.6727">
        <ele>421.60000610352</ele>
        <time>2021-09-28T07:09:04.979Z</time>
      </trkpt>
      <trkpt lat="45.79545" lon="4.67268">
        <ele>421.79998779297</ele>
        <time>2021-09-28T07:09:06.837Z</time>
      </trkpt>
      <trkpt lat="45.79551" lon="4.67257">
        <ele>422.60000610352</ele>
        <time>2021-09-28T07:09:08.698Z</time>
      </trkpt>
      <trkpt lat="45.79552" lon="4.67255">
        <ele>422.79998779297</ele>
        <time>2021-09-28T07:09:10.559Z</time>
      </trkpt>
      <trkpt lat="45.79555" lon="4.67247">
        <ele>424</ele>
        <time>2021-09-28T07:09:12.422Z</time>
      </trkpt>
      <trkpt lat="45.79555" lon="4.67245">
        <ele>424.60000610352</ele>
        <time>2021-09-28T07:09:14.286Z</time>
      </trkpt>
      <trkpt lat="45.7956" lon="4.67237">
        <ele>426</ele>
        <time>2021-09-28T07:09:16.153Z</time>
      </trkpt>
      <trkpt lat="45.79567" lon="4.67228">
        <ele>427.79998779297</ele>
        <time>2021-09-28T07:09:18.023Z</time>
      </trkpt>
      <trkpt lat="45.79573" lon="4.67219">
        <ele>429.79998779297</ele>
        <time>2021-09-28T07:09:19.895Z</time>
      </trkpt>
      <trkpt lat="45.79581" lon="4.67209">
        <ele>431.39999389648</ele>
        <time>2021-09-28T07:09:21.771Z</time>
      </trkpt>
      <trkpt lat="45.79583" lon="4.67202">
        <ele>432.20001220703</ele>
        <time>2021-09-28T07:09:23.649Z</time>
      </trkpt>
      <trkpt lat="45.79589" lon="4.67192">
        <ele>433</ele>
        <time>2021-09-28T07:09:25.530Z</time>
      </trkpt>
      <trkpt lat="45.79593" lon="4.67185">
        <ele>433.39999389648</ele>
        <time>2021-09-28T07:09:27.413Z</time>
      </trkpt>
      <trkpt lat="45.79595" lon="4.67177">
        <ele>434.20001220703</ele>
        <time>2021-09-28T07:09:29.298Z</time>
      </trkpt>
      <trkpt lat="45.79596" lon="4.67161">
        <ele>435.79998779297</ele>
        <time>2021-09-28T07:09:31.187Z</time>
      </trkpt>
      <trkpt lat="45.79597" lon="4.67144">
        <ele>437.20001220703</ele>
        <time>2021-09-28T07:09:33.080Z</time>
      </trkpt>
      <trkpt lat="45.79596" lon="4.67133">
        <ele>438.20001220703</ele>
        <time>2021-09-28T07:09:34.975Z</time>
      </trkpt>
      <trkpt lat="45.79597" lon="4.67119">
        <ele>438.79998779297</ele>
        <time>2021-09-28T07:09:36.873Z</time>
      </trkpt>
      <trkpt lat="45.79597" lon="4.67104">
        <ele>439</ele>
        <time>2021-09-28T07:09:38.775Z</time>
      </trkpt>
      <trkpt lat="45.79597" lon="4.67103">
        <ele>439</ele>
        <time>2021-09-28T07:09:40.677Z</time>
      </trkpt>
      <trkpt lat="45.796" lon="4.6709">
        <ele>438.39999389648</ele>
        <time>2021-09-28T07:09:42.582Z</time>
      </trkpt>
      <trkpt lat="45.79601" lon="4.67087">
        <ele>438.20001220703</ele>
        <time>2021-09-28T07:09:44.488Z</time>
      </trkpt>
      <trkpt lat="45.79605" lon="4.67061">
        <ele>436.60000610352</ele>
        <time>2021-09-28T07:09:46.401Z</time>
      </trkpt>
      <trkpt lat="45.79606" lon="4.67041">
        <ele>435.79998779297</ele>
        <time>2021-09-28T07:09:48.318Z</time>
      </trkpt>
      <trkpt lat="45.79605" lon="4.67028">
        <ele>435.79998779297</ele>
        <time>2021-09-28T07:09:50.238Z</time>
      </trkpt>
      <trkpt lat="45.79602" lon="4.67008">
        <ele>435.60000610352</ele>
        <time>2021-09-28T07:09:52.163Z</time>
      </trkpt>
      <trkpt lat="45.79598" lon="4.66997">
        <ele>435.79998779297</ele>
        <time>2021-09-28T07:09:54.091Z</time>
      </trkpt>
      <trkpt lat="45.79594" lon="4.66985">
        <ele>435.79998779297</ele>
        <time>2021-09-28T07:09:56.022Z</time>
      </trkpt>
      <trkpt lat="45.79595" lon="4.66969">
        <ele>435.20001220703</ele>
        <time>2021-09-28T07:09:57.957Z</time>
      </trkpt>
      <trkpt lat="45.79595" lon="4.66954">
        <ele>434.60000610352</ele>
        <time>2021-09-28T07:09:59.895Z</time>
      </trkpt>
      <trkpt lat="45.79594" lon="4.66945">
        <ele>434</ele>
        <time>2021-09-28T07:10:01.835Z</time>
      </trkpt>
      <trkpt lat="45.79594" lon="4.66896">
        <ele>429.60000610352</ele>
        <time>2021-09-28T07:10:03.787Z</time>
      </trkpt>
      <trkpt lat="45.79595" lon="4.66885">
        <ele>428.60000610352</ele>
        <time>2021-09-28T07:10:05.741Z</time>
      </trkpt>
      <trkpt lat="45.79594" lon="4.66863">
        <ele>426.39999389648</ele>
        <time>2021-09-28T07:10:07.700Z</time>
      </trkpt>
      <trkpt lat="45.79594" lon="4.66851">
        <ele>425.60000610352</ele>
        <time>2021-09-28T07:10:09.662Z</time>
      </trkpt>
      <trkpt lat="45.79596" lon="4.66827">
        <ele>424.79998779297</ele>
        <time>2021-09-28T07:10:11.630Z</time>
      </trkpt>
      <trkpt lat="45.79595" lon="4.66807">
        <ele>425.60000610352</ele>
        <time>2021-09-28T07:10:13.602Z</time>
      </trkpt>
      <trkpt lat="45.79595" lon="4.66798">
        <ele>425.79998779297</ele>
        <time>2021-09-28T07:10:15.577Z</time>
      </trkpt>
      <trkpt lat="45.79597" lon="4.66777">
        <ele>425.79998779297</ele>
        <time>2021-09-28T07:10:17.556Z</time>
      </trkpt>
      <trkpt lat="45.79595" lon="4.66768">
        <ele>425.60000610352</ele>
        <time>2021-09-28T07:10:19.538Z</time>
      </trkpt>
      <trkpt lat="45.79592" lon="4.66745">
        <ele>425.39999389648</ele>
        <time>2021-09-28T07:10:21.525Z</time>
      </trkpt>
      <trkpt lat="45.79591" lon="4.66738">
        <ele>425.60000610352</ele>
        <time>2021-09-28T07:10:23.514Z</time>
      </trkpt>
      <trkpt lat="45.79586" lon="4.66724">
        <ele>426.20001220703</ele>
        <time>2021-09-28T07:10:25.507Z</time>
      </trkpt>
      <trkpt lat="45.79582" lon="4.66716">
        <ele>427</ele>
        <time>2021-09-28T07:10:27.502Z</time>
      </trkpt>
      <trkpt lat="45.79574" lon="4.66705">
        <ele>428.60000610352</ele>
        <time>2021-09-28T07:10:29.501Z</time>
      </trkpt>
      <trkpt lat="45.79571" lon="4.66698">
        <ele>429.20001220703</ele>
        <time>2021-09-28T07:10:31.501Z</time>
      </trkpt>
      <trkpt lat="45.79567" lon="4.66685">
        <ele>430.20001220703</ele>
        <time>2021-09-28T07:10:33.505Z</time>
      </trkpt>
      <trkpt lat="45.79565" lon="4.66672">
        <ele>430.60000610352</ele>
        <time>2021-09-28T07:10:35.512Z</time>
      </trkpt>
      <trkpt lat="45.79563" lon="4.66661">
        <ele>430.79998779297</ele>
        <time>2021-09-28T07:10:37.521Z</time>
      </trkpt>
      <trkpt lat="45.79562" lon="4.66654">
        <ele>430.60000610352</ele>
        <time>2021-09-28T07:10:39.532Z</time>
      </trkpt>
      <trkpt lat="45.79563" lon="4.66648">
        <ele>430.20001220703</ele>
        <time>2021-09-28T07:10:41.545Z</time>
      </trkpt>
      <trkpt lat="45.79569" lon="4.66636">
        <ele>429.20001220703</ele>
        <time>2021-09-28T07:10:43.561Z</time>
      </trkpt>
      <trkpt lat="45.79576" lon="4.66627">
        <ele>428</ele>
        <time>2021-09-28T07:10:45.580Z</time>
      </trkpt>
      <trkpt lat="45.79583" lon="4.66616">
        <ele>429</ele>
        <time>2021-09-28T07:10:47.602Z</time>
      </trkpt>
      <trkpt lat="45.79589" lon="4.66609">
        <ele>429.39999389648</ele>
        <time>2021-09-28T07:10:49.627Z</time>
      </trkpt>
      <trkpt lat="45.79594" lon="4.66606">
        <ele>429</ele>
        <time>2021-09-28T07:10:51.654Z</time>
      </trkpt>
      <trkpt lat="45.79595" lon="4.66606">
        <ele>428.79998779297</ele>
        <time>2021-09-28T07:10:53.681Z</time>
      </trkpt>
      <trkpt lat="45.79602" lon="4.66603">
        <ele>428.39999389648</ele>
        <time>2021-09-28T07:10:55.711Z</time>
      </trkpt>
      <trkpt lat="45.79609" lon="4.666">
        <ele>428.20001220703</ele>
        <time>2021-09-28T07:10:57.743Z</time>
      </trkpt>
      <trkpt lat="45.7961" lon="4.66599">
        <ele>428.20001220703</ele>
        <time>2021-09-28T07:10:59.776Z</time>
      </trkpt>
      <trkpt lat="45.79613" lon="4.66598">
        <ele>428.39999389648</ele>
        <time>2021-09-28T07:11:01.810Z</time>
      </trkpt>
      <trkpt lat="45.79616" lon="4.66596">
        <ele>428.39999389648</ele>
        <time>2021-09-28T07:11:03.845Z</time>
      </trkpt>
      <trkpt lat="45.7962" lon="4.66595">
        <ele>428.20001220703</ele>
        <time>2021-09-28T07:11:05.881Z</time>
      </trkpt>
      <trkpt lat="45.79623" lon="4.66591">
        <ele>428.39999389648</ele>
        <time>2021-09-28T07:11:07.919Z</time>
      </trkpt>
      <trkpt lat="45.79628" lon="4.66579">
        <ele>428.39999389648</ele>
        <time>2021-09-28T07:11:09.960Z</time>
      </trkpt>
      <trkpt lat="45.79631" lon="4.66572">
        <ele>428</ele>
        <time>2021-09-28T07:11:12.003Z</time>
      </trkpt>
      <trkpt lat="45.79635" lon="4.66565">
        <ele>428.60000610352</ele>
        <time>2021-09-28T07:11:14.048Z</time>
      </trkpt>
      <trkpt lat="45.79636" lon="4.66563">
        <ele>428.79998779297</ele>
        <time>2021-09-28T07:11:16.093Z</time>
      </trkpt>
      <trkpt lat="45.79638" lon="4.66555">
        <ele>429</ele>
        <time>2021-09-28T07:11:18.140Z</time>
      </trkpt>
      <trkpt lat="45.79641" lon="4.66543">
        <ele>429</ele>
        <time>2021-09-28T07:11:20.190Z</time>
      </trkpt>
      <trkpt lat="45.79645" lon="4.66537">
        <ele>429</ele>
        <time>2021-09-28T07:11:22.242Z</time>
      </trkpt>
      <trkpt lat="45.79656" lon="4.66524">
        <ele>427.60000610352</ele>
        <time>2021-09-28T07:11:24.299Z</time>
      </trkpt>
      <trkpt lat="45.79664" lon="4.66515">
        <ele>426.60000610352</ele>
        <time>2021-09-28T07:11:26.359Z</time>
      </trkpt>
      <trkpt lat="45.79673" lon="4.665">
        <ele>425.60000610352</ele>
        <time>2021-09-28T07:11:28.424Z</time>
      </trkpt>
      <trkpt lat="45.79685" lon="4.66482">
        <ele>423.39999389648</ele>
        <time>2021-09-28T07:11:30.495Z</time>
      </trkpt>
      <trkpt lat="45.79688" lon="4.66477">
        <ele>423.20001220703</ele>
        <time>2021-09-28T07:11:32.567Z</time>
      </trkpt>
      <trkpt lat="45.79692" lon="4.66466">
        <ele>422.60000610352</ele>
        <time>2021-09-28T07:11:34.642Z</time>
      </trkpt>
      <trkpt lat="45.797" lon="4.66454">
        <ele>422</ele>
        <time>2021-09-28T07:11:36.721Z</time>
      </trkpt>
      <trkpt lat="45.79708" lon="4.66446">
        <ele>421.60000610352</ele>
        <time>2021-09-28T07:11:38.803Z</time>
      </trkpt>
      <trkpt lat="45.79715" lon="4.66438">
        <ele>421.39999389648</ele>
        <time>2021-09-28T07:11:40.888Z</time>
      </trkpt>
      <trkpt lat="45.79725" lon="4.66424">
        <ele>422.79998779297</ele>
        <time>2021-09-28T07:11:42.978Z</time>
      </trkpt>
      <trkpt lat="45.79727" lon="4.66422">
        <ele>423</ele>
        <time>2021-09-28T07:11:45.069Z</time>
      </trkpt>
      <trkpt lat="45.7973" lon="4.66419">
        <ele>423.39999389648</ele>
        <time>2021-09-28T07:11:47.161Z</time>
      </trkpt>
      <trkpt lat="45.79734" lon="4.66415">
        <ele>423.60000610352</ele>
        <time>2021-09-28T07:11:49.255Z</time>
      </trkpt>
      <trkpt lat="45.7974" lon="4.66409">
        <ele>423.79998779297</ele>
        <time>2021-09-28T07:11:51.351Z</time>
      </trkpt>
      <trkpt lat="45.79746" lon="4.66401">
        <ele>424.20001220703</ele>
        <time>2021-09-28T07:11:53.450Z</time>
      </trkpt>
      <trkpt lat="45.79748" lon="4.66398">
        <ele>424.39999389648</ele>
        <time>2021-09-28T07:11:55.550Z</time>
      </trkpt>
      <trkpt lat="45.79757" lon="4.66381">
        <ele>425</ele>
        <time>2021-09-28T07:11:57.655Z</time>
      </trkpt>
      <trkpt lat="45.79762" lon="4.66369">
        <ele>424.60000610352</ele>
        <time>2021-09-28T07:11:59.763Z</time>
      </trkpt>
      <trkpt lat="45.79765" lon="4.66361">
        <ele>424.79998779297</ele>
        <time>2021-09-28T07:12:01.873Z</time>
      </trkpt>
      <trkpt lat="45.79774" lon="4.66338">
        <ele>425.60000610352</ele>
        <time>2021-09-28T07:12:03.989Z</time>
      </trkpt>
      <trkpt lat="45.7978" lon="4.66322">
        <ele>426.79998779297</ele>
        <time>2021-09-28T07:12:06.109Z</time>
      </trkpt>
      <trkpt lat="45.79788" lon="4.663">
        <ele>428.79998779297</ele>
        <time>2021-09-28T07:12:08.235Z</time>
      </trkpt>
      <trkpt lat="45.79798" lon="4.66276">
        <ele>429.60000610352</ele>
        <time>2021-09-28T07:12:10.368Z</time>
      </trkpt>
      <trkpt lat="45.79805" lon="4.66248">
        <ele>431</ele>
        <time>2021-09-28T07:12:12.508Z</time>
      </trkpt>
      <trkpt lat="45.7981" lon="4.6623">
        <ele>432.20001220703</ele>
        <time>2021-09-28T07:12:14.652Z</time>
      </trkpt>
      <trkpt lat="45.79809" lon="4.66228">
        <ele>432.39999389648</ele>
        <time>2021-09-28T07:12:16.797Z</time>
      </trkpt>
      <trkpt lat="45.79813" lon="4.66223">
        <ele>432.20001220703</ele>
        <time>2021-09-28T07:12:18.943Z</time>
      </trkpt>
      <trkpt lat="45.79815" lon="4.66221">
        <ele>432</ele>
        <time>2021-09-28T07:12:21.090Z</time>
      </trkpt>
      <trkpt lat="45.79826" lon="4.66208">
        <ele>431.39999389648</ele>
        <time>2021-09-28T07:12:23.242Z</time>
      </trkpt>
      <trkpt lat="45.79842" lon="4.6619">
        <ele>431.20001220703</ele>
        <time>2021-09-28T07:12:25.401Z</time>
      </trkpt>
      <trkpt lat="45.79855" lon="4.6617">
        <ele>430.60000610352</ele>
        <time>2021-09-28T07:12:27.566Z</time>
      </trkpt>
      <trkpt lat="45.79863" lon="4.66145">
        <ele>430.39999389648</ele>
        <time>2021-09-28T07:12:29.737Z</time>
      </trkpt>
      <trkpt lat="45.79871" lon="4.66115">
        <ele>430.79998779297</ele>
        <time>2021-09-28T07:12:31.916Z</time>
      </trkpt>
      <trkpt lat="45.79876" lon="4.66087">
        <ele>432</ele>
        <time>2021-09-28T07:12:34.102Z</time>
      </trkpt>
      <trkpt lat="45.79883" lon="4.66056">
        <ele>432</ele>
        <time>2021-09-28T07:12:36.295Z</time>
      </trkpt>
      <trkpt lat="45.7989" lon="4.66029">
        <ele>431.60000610352</ele>
        <time>2021-09-28T07:12:38.495Z</time>
      </trkpt>
      <trkpt lat="45.799" lon="4.65991">
        <ele>430.20001220703</ele>
        <time>2021-09-28T07:12:40.704Z</time>
      </trkpt>
      <trkpt lat="45.7991" lon="4.65965">
        <ele>430.60000610352</ele>
        <time>2021-09-28T07:12:42.920Z</time>
      </trkpt>
      <trkpt lat="45.79922" lon="4.65936">
        <ele>432.79998779297</ele>
        <time>2021-09-28T07:12:45.144Z</time>
      </trkpt>
      <trkpt lat="45.7994" lon="4.65907">
        <ele>435</ele>
        <time>2021-09-28T07:12:47.377Z</time>
      </trkpt>
      <trkpt lat="45.79954" lon="4.65883">
        <ele>435.39999389648</ele>
        <time>2021-09-28T07:12:49.618Z</time>
      </trkpt>
      <trkpt lat="45.79964" lon="4.65858">
        <ele>435.79998779297</ele>
        <time>2021-09-28T07:12:51.865Z</time>
      </trkpt>
      <trkpt lat="45.79968" lon="4.65825">
        <ele>437</ele>
        <time>2021-09-28T07:12:54.120Z</time>
      </trkpt>
      <trkpt lat="45.79971" lon="4.65806">
        <ele>438.39999389648</ele>
        <time>2021-09-28T07:12:56.380Z</time>
      </trkpt>
      <trkpt lat="45.79975" lon="4.65774">
        <ele>440.20001220703</ele>
        <time>2021-09-28T07:12:58.647Z</time>
      </trkpt>
      <trkpt lat="45.79976" lon="4.6576">
        <ele>440.20001220703</ele>
        <time>2021-09-28T07:13:00.917Z</time>
      </trkpt>
      <trkpt lat="45.79974" lon="4.65757">
        <ele>440.20001220703</ele>
        <time>2021-09-28T07:13:03.188Z</time>
      </trkpt>
      <trkpt lat="45.79966" lon="4.65753">
        <ele>440.60000610352</ele>
        <time>2021-09-28T07:13:05.462Z</time>
      </trkpt>
      <trkpt lat="45.79947" lon="4.6575">
        <ele>441.39999389648</ele>
        <time>2021-09-28T07:13:07.742Z</time>
      </trkpt>
      <trkpt lat="45.79928" lon="4.65748">
        <ele>442</ele>
        <time>2021-09-28T07:13:10.029Z</time>
      </trkpt>
      <trkpt lat="45.7991" lon="4.65751">
        <ele>442.20001220703</ele>
        <time>2021-09-28T07:13:12.322Z</time>
      </trkpt>
      <trkpt lat="45.79878" lon="4.65754">
        <ele>442</ele>
        <time>2021-09-28T07:13:14.625Z</time>
      </trkpt>
      <trkpt lat="45.79852" lon="4.65757">
        <ele>441.79998779297</ele>
        <time>2021-09-28T07:13:16.937Z</time>
      </trkpt>
      <trkpt lat="45.79827" lon="4.6576">
        <ele>441</ele>
        <time>2021-09-28T07:13:19.258Z</time>
      </trkpt>
      <trkpt lat="45.79794" lon="4.65761">
        <ele>440</ele>
        <time>2021-09-28T07:13:21.590Z</time>
      </trkpt>
      <trkpt lat="45.79768" lon="4.65765">
        <ele>438.79998779297</ele>
        <time>2021-09-28T07:13:23.930Z</time>
      </trkpt>
      <trkpt lat="45.79755" lon="4.65769">
        <ele>439</ele>
        <time>2021-09-28T07:13:26.275Z</time>
      </trkpt>
      <trkpt lat="45.79739" lon="4.65779">
        <ele>439</ele>
        <time>2021-09-28T07:13:28.626Z</time>
      </trkpt>
      <trkpt lat="45.79722" lon="4.65789">
        <ele>440</ele>
        <time>2021-09-28T07:13:30.983Z</time>
      </trkpt>
      <trkpt lat="45.79699" lon="4.658">
        <ele>441.39999389648</ele>
        <time>2021-09-28T07:13:33.348Z</time>
      </trkpt>
      <trkpt lat="45.79687" lon="4.65806">
        <ele>441.60000610352</ele>
        <time>2021-09-28T07:13:35.717Z</time>
      </trkpt>
      <trkpt lat="45.79668" lon="4.65815">
        <ele>442.60000610352</ele>
        <time>2021-09-28T07:13:38.093Z</time>
      </trkpt>
      <trkpt lat="45.79649" lon="4.65823">
        <ele>444.20001220703</ele>
        <time>2021-09-28T07:13:40.475Z</time>
      </trkpt>
      <trkpt lat="45.79632" lon="4.65827">
        <ele>446.39999389648</ele>
        <time>2021-09-28T07:13:42.863Z</time>
      </trkpt>
      <trkpt lat="45.7962" lon="4.65828">
        <ele>448</ele>
        <time>2021-09-28T07:13:45.255Z</time>
      </trkpt>
      <trkpt lat="45.79618" lon="4.6583">
        <ele>448.20001220703</ele>
        <time>2021-09-28T07:13:47.648Z</time>
      </trkpt>
      <trkpt lat="45.79601" lon="4.6583">
        <ele>448.39999389648</ele>
        <time>2021-09-28T07:13:50.046Z</time>
      </trkpt>
      <trkpt lat="45.79592" lon="4.65828">
        <ele>448.39999389648</ele>
        <time>2021-09-28T07:13:52.447Z</time>
      </trkpt>
      <trkpt lat="45.7959" lon="4.65826">
        <ele>448.20001220703</ele>
        <time>2021-09-28T07:13:54.849Z</time>
      </trkpt>
      <trkpt lat="45.7958" lon="4.65825">
        <ele>448.79998779297</ele>
        <time>2021-09-28T07:13:57.255Z</time>
      </trkpt>
      <trkpt lat="45.79566" lon="4.65818">
        <ele>449.60000610352</ele>
        <time>2021-09-28T07:13:59.666Z</time>
      </trkpt>
      <trkpt lat="45.79554" lon="4.65811">
        <ele>452.79998779297</ele>
        <time>2021-09-28T07:14:02.081Z</time>
      </trkpt>
      <trkpt lat="45.79539" lon="4.65803">
        <ele>456.20001220703</ele>
        <time>2021-09-28T07:14:04.501Z</time>
      </trkpt>
      <trkpt lat="45.79524" lon="4.65794">
        <ele>458.60000610352</ele>
        <time>2021-09-28T07:14:06.927Z</time>
      </trkpt>
      <trkpt lat="45.79514" lon="4.65786">
        <ele>459.39999389648</ele>
        <time>2021-09-28T07:14:09.357Z</time>
      </trkpt>
      <trkpt lat="45.79508" lon="4.65784">
        <ele>460.60000610352</ele>
        <time>2021-09-28T07:14:11.789Z</time>
      </trkpt>
      <trkpt lat="45.79506" lon="4.65783">
        <ele>460.60000610352</ele>
        <time>2021-09-28T07:14:14.221Z</time>
      </trkpt>
      <trkpt lat="45.79504" lon="4.65782">
        <ele>460.39999389648</ele>
        <time>2021-09-28T07:14:16.654Z</time>
      </trkpt>
      <trkpt lat="45.795" lon="4.6578">
        <ele>460.39999389648</ele>
        <time>2021-09-28T07:14:19.088Z</time>
      </trkpt>
      <trkpt lat="45.79495" lon="4.65779">
        <ele>460.60000610352</ele>
        <time>2021-09-28T07:14:21.524Z</time>
      </trkpt>
      <trkpt lat="45.7949" lon="4.65778">
        <ele>460.60000610352</ele>
        <time>2021-09-28T07:14:23.962Z</time>
      </trkpt>
      <trkpt lat="45.79486" lon="4.65777">
        <ele>461</ele>
        <time>2021-09-28T07:14:26.401Z</time>
      </trkpt>
      <trkpt lat="45.79482" lon="4.65776">
        <ele>461</ele>
        <time>2021-09-28T07:14:28.842Z</time>
      </trkpt>
      <trkpt lat="45.7948" lon="4.65776">
        <ele>461.20001220703</ele>
        <time>2021-09-28T07:14:31.283Z</time>
      </trkpt>
      <trkpt lat="45.79473" lon="4.65776">
        <ele>462.39999389648</ele>
        <time>2021-09-28T07:14:33.727Z</time>
      </trkpt>
      <trkpt lat="45.79471" lon="4.65775">
        <ele>462.20001220703</ele>
        <time>2021-09-28T07:14:36.171Z</time>
      </trkpt>
      <trkpt lat="45.79469" lon="4.65775">
        <ele>462.39999389648</ele>
        <time>2021-09-28T07:14:38.616Z</time>
      </trkpt>
      <trkpt lat="45.79465" lon="4.65774">
        <ele>462.60000610352</ele>
        <time>2021-09-28T07:14:41.062Z</time>
      </trkpt>
      <trkpt lat="45.79462" lon="4.65772">
        <ele>462.39999389648</ele>
        <time>2021-09-28T07:14:43.509Z</time>
      </trkpt>
      <trkpt lat="45.79456" lon="4.65769">
        <ele>462.20001220703</ele>
        <time>2021-09-28T07:14:45.959Z</time>
      </trkpt>
      <trkpt lat="45.79453" lon="4.65768">
        <ele>462.39999389648</ele>
        <time>2021-09-28T07:14:48.410Z</time>
      </trkpt>
      <trkpt lat="45.7945" lon="4.65768">
        <ele>462.79998779297</ele>
        <time>2021-09-28T07:14:50.862Z</time>
      </trkpt>
      <trkpt lat="45.79446" lon="4.65768">
        <ele>463.20001220703</ele>
        <time>2021-09-28T07:14:53.315Z</time>
      </trkpt>
      <trkpt lat="45.79441" lon="4.65768">
        <ele>464</ele>
        <time>2021-09-28T07:14:55.769Z</time>
      </trkpt>
      <trkpt lat="45.79435" lon="4.65766">
        <ele>464.39999389648</ele>
        <time>2021-09-28T07:14:58.225Z</time>
      </trkpt>
      <trkpt lat="45.79433" lon="4.65766">
        <ele>464.79998779297</ele>
        <time>2021-09-28T07:15:00.682Z</time>
      </trkpt>
      <trkpt lat="45.79431" lon="4.65765">
        <ele>465.20001220703</ele>
        <time>2021-09-28T07:15:03.140Z</time>
      </trkpt>
      <trkpt lat="45.79425" lon="4.65763">
        <ele>465.79998779297</ele>
        <time>2021-09-28T07:15:05.600Z</time>
      </trkpt>
      <trkpt lat="45.79421" lon="4.65762">
        <ele>466.39999389648</ele>
        <time>2021-09-28T07:15:08.062Z</time>
      </trkpt>
      <trkpt lat="45.79419" lon="4.65762">
        <ele>466.39999389648</ele>
        <time>2021-09-28T07:15:10.524Z</time>
      </trkpt>
      <trkpt lat="45.79409" lon="4.6576">
        <ele>467.60000610352</ele>
        <time>2021-09-28T07:15:12.989Z</time>
      </trkpt>
      <trkpt lat="45.79402" lon="4.65758">
        <ele>468.20001220703</ele>
        <time>2021-09-28T07:15:15.457Z</time>
      </trkpt>
      <trkpt lat="45.79395" lon="4.65754">
        <ele>468.60000610352</ele>
        <time>2021-09-28T07:15:17.927Z</time>
      </trkpt>
      <trkpt lat="45.79391" lon="4.65754">
        <ele>469.39999389648</ele>
        <time>2021-09-28T07:15:20.399Z</time>
      </trkpt>
      <trkpt lat="45.79384" lon="4.65752">
        <ele>471</ele>
        <time>2021-09-28T07:15:22.873Z</time>
      </trkpt>
      <trkpt lat="45.79379" lon="4.65752">
        <ele>472.20001220703</ele>
        <time>2021-09-28T07:15:25.349Z</time>
      </trkpt>
      <trkpt lat="45.79369" lon="4.65748">
        <ele>473.20001220703</ele>
        <time>2021-09-28T07:15:27.828Z</time>
      </trkpt>
      <trkpt lat="45.79364" lon="4.65748">
        <ele>474.79998779297</ele>
        <time>2021-09-28T07:15:30.309Z</time>
      </trkpt>
      <trkpt lat="45.79357" lon="4.65749">
        <ele>477.39999389648</ele>
        <time>2021-09-28T07:15:32.792Z</time>
      </trkpt>
      <trkpt lat="45.79355" lon="4.65749">
        <ele>478.20001220703</ele>
        <time>2021-09-28T07:15:35.276Z</time>
      </trkpt>
      <trkpt lat="45.79348" lon="4.65751">
        <ele>481.60000610352</ele>
        <time>2021-09-28T07:15:37.762Z</time>
      </trkpt>
      <trkpt lat="45.79345" lon="4.65751">
        <ele>482.39999389648</ele>
        <time>2021-09-28T07:15:40.249Z</time>
      </trkpt>
      <trkpt lat="45.79338" lon="4.65751">
        <ele>484</ele>
        <time>2021-09-28T07:15:42.739Z</time>
      </trkpt>
      <trkpt lat="45.79335" lon="4.65751">
        <ele>483.79998779297</ele>
        <time>2021-09-28T07:15:45.229Z</time>
      </trkpt>
      <trkpt lat="45.79332" lon="4.65749">
        <ele>483.39999389648</ele>
        <time>2021-09-28T07:15:47.721Z</time>
      </trkpt>
      <trkpt lat="45.79329" lon="4.65751">
        <ele>483.79998779297</ele>
        <time>2021-09-28T07:15:50.214Z</time>
      </trkpt>
      <trkpt lat="45.79323" lon="4.65754">
        <ele>484.20001220703</ele>
        <time>2021-09-28T07:15:52.709Z</time>
      </trkpt>
      <trkpt lat="45.79317" lon="4.65753">
        <ele>483.79998779297</ele>
        <time>2021-09-28T07:15:55.206Z</time>
      </trkpt>
      <trkpt lat="45.79315" lon="4.65753">
        <ele>483.60000610352</ele>
        <time>2021-09-28T07:15:57.704Z</time>
      </trkpt>
      <trkpt lat="45.79312" lon="4.65752">
        <ele>483.60000610352</ele>
        <time>2021-09-28T07:16:00.202Z</time>
      </trkpt>
      <trkpt lat="45.79309" lon="4.65752">
        <ele>484</ele>
        <time>2021-09-28T07:16:02.702Z</time>
      </trkpt>
      <trkpt lat="45.79303" lon="4.65754">
        <ele>485.20001220703</ele>
        <time>2021-09-28T07:16:05.204Z</time>
      </trkpt>
      <trkpt lat="45.79301" lon="4.65755">
        <ele>485.60000610352</ele>
        <time>2021-09-28T07:16:07.706Z</time>
      </trkpt>
      <trkpt lat="45.79294" lon="4.65755">
        <ele>486.39999389648</ele>
        <time>2021-09-28T07:16:10.211Z</time>
      </trkpt>
      <trkpt lat="45.79292" lon="4.65755">
        <ele>486.60000610352</ele>
        <time>2021-09-28T07:16:12.716Z</time>
      </trkpt>
      <trkpt lat="45.79291" lon="4.65756">
        <ele>486.79998779297</ele>
        <time>2021-09-28T07:16:15.222Z</time>
      </trkpt>
      <trkpt lat="45.79286" lon="4.65757">
        <ele>487.79998779297</ele>
        <time>2021-09-28T07:16:17.729Z</time>
      </trkpt>
      <trkpt lat="45.79279" lon="4.65757">
        <ele>488.60000610352</ele>
        <time>2021-09-28T07:16:20.239Z</time>
      </trkpt>
      <trkpt lat="45.79278" lon="4.65758">
        <ele>489</ele>
        <time>2021-09-28T07:16:22.749Z</time>
      </trkpt>
      <trkpt lat="45.79273" lon="4.65758">
        <ele>489.60000610352</ele>
        <time>2021-09-28T07:16:25.261Z</time>
      </trkpt>
      <trkpt lat="45.79271" lon="4.65757">
        <ele>489.79998779297</ele>
        <time>2021-09-28T07:16:27.773Z</time>
      </trkpt>
      <trkpt lat="45.79263" lon="4.6576">
        <ele>491.60000610352</ele>
        <time>2021-09-28T07:16:30.288Z</time>
      </trkpt>
      <trkpt lat="45.7926" lon="4.6576">
        <ele>492</ele>
        <time>2021-09-28T07:16:32.804Z</time>
      </trkpt>
      <trkpt lat="45.79252" lon="4.65758">
        <ele>492.20001220703</ele>
        <time>2021-09-28T07:16:35.323Z</time>
      </trkpt>
      <trkpt lat="45.79251" lon="4.65757">
        <ele>492</ele>
        <time>2021-09-28T07:16:37.842Z</time>
      </trkpt>
      <trkpt lat="45.79243" lon="4.65756">
        <ele>491.79998779297</ele>
        <time>2021-09-28T07:16:40.364Z</time>
      </trkpt>
      <trkpt lat="45.79237" lon="4.65756">
        <ele>492.20001220703</ele>
        <time>2021-09-28T07:16:42.888Z</time>
      </trkpt>
      <trkpt lat="45.79236" lon="4.65756">
        <ele>492</ele>
        <time>2021-09-28T07:16:45.412Z</time>
      </trkpt>
      <trkpt lat="45.79228" lon="4.65752">
        <ele>492.39999389648</ele>
        <time>2021-09-28T07:16:47.939Z</time>
      </trkpt>
      <trkpt lat="45.79224" lon="4.65752">
        <ele>493.39999389648</ele>
        <time>2021-09-28T07:16:50.467Z</time>
      </trkpt>
      <trkpt lat="45.79222" lon="4.65752">
        <ele>493.79998779297</ele>
        <time>2021-09-28T07:16:52.996Z</time>
      </trkpt>
      <trkpt lat="45.79216" lon="4.65751">
        <ele>495</ele>
        <time>2021-09-28T07:16:55.527Z</time>
      </trkpt>
      <trkpt lat="45.79215" lon="4.65751">
        <ele>495.20001220703</ele>
        <time>2021-09-28T07:16:58.058Z</time>
      </trkpt>
      <trkpt lat="45.79205" lon="4.65749">
        <ele>497.39999389648</ele>
        <time>2021-09-28T07:17:00.593Z</time>
      </trkpt>
      <trkpt lat="45.79195" lon="4.65747">
        <ele>499.79998779297</ele>
        <time>2021-09-28T07:17:03.131Z</time>
      </trkpt>
      <trkpt lat="45.79187" lon="4.65747">
        <ele>502</ele>
        <time>2021-09-28T07:17:05.672Z</time>
      </trkpt>
      <trkpt lat="45.79177" lon="4.65745">
        <ele>504</ele>
        <time>2021-09-28T07:17:08.216Z</time>
      </trkpt>
      <trkpt lat="45.79169" lon="4.65744">
        <ele>505.20001220703</ele>
        <time>2021-09-28T07:17:10.763Z</time>
      </trkpt>
      <trkpt lat="45.79161" lon="4.65743">
        <ele>505.79998779297</ele>
        <time>2021-09-28T07:17:13.313Z</time>
      </trkpt>
      <trkpt lat="45.7916" lon="4.65742">
        <ele>505.79998779297</ele>
        <time>2021-09-28T07:17:15.863Z</time>
      </trkpt>
      <trkpt lat="45.79155" lon="4.65737">
        <ele>505.60000610352</ele>
        <time>2021-09-28T07:17:18.415Z</time>
      </trkpt>
      <trkpt lat="45.79153" lon="4.65735">
        <ele>505.60000610352</ele>
        <time>2021-09-28T07:17:20.968Z</time>
      </trkpt>
      <trkpt lat="45.79149" lon="4.65732">
        <ele>505.60000610352</ele>
        <time>2021-09-28T07:17:23.522Z</time>
      </trkpt>
      <trkpt lat="45.79146" lon="4.65732">
        <ele>505.79998779297</ele>
        <time>2021-09-28T07:17:26.077Z</time>
      </trkpt>
      <trkpt lat="45.79143" lon="4.65732">
        <ele>506</ele>
        <time>2021-09-28T07:17:28.633Z</time>
      </trkpt>
      <trkpt lat="45.79142" lon="4.65731">
        <ele>506</ele>
        <time>2021-09-28T07:17:31.190Z</time>
      </trkpt>
      <trkpt lat="45.7914" lon="4.6573">
        <ele>506</ele>
        <time>2021-09-28T07:17:33.747Z</time>
      </trkpt>
      <trkpt lat="45.79137" lon="4.6573">
        <ele>506.20001220703</ele>
        <time>2021-09-28T07:17:36.305Z</time>
      </trkpt>
      <trkpt lat="45.79135" lon="4.6573">
        <ele>506.39999389648</ele>
        <time>2021-09-28T07:17:38.864Z</time>
      </trkpt>
      <trkpt lat="45.79131" lon="4.65729">
        <ele>506.39999389648</ele>
        <time>2021-09-28T07:17:41.424Z</time>
      </trkpt>
      <trkpt lat="45.79126" lon="4.65726">
        <ele>506.60000610352</ele>
        <time>2021-09-28T07:17:43.986Z</time>
      </trkpt>
      <trkpt lat="45.79123" lon="4.65724">
        <ele>506.79998779297</ele>
        <time>2021-09-28T07:17:46.549Z</time>
      </trkpt>
      <trkpt lat="45.79119" lon="4.65725">
        <ele>507</ele>
        <time>2021-09-28T07:17:49.114Z</time>
      </trkpt>
      <trkpt lat="45.79109" lon="4.65728">
        <ele>506.60000610352</ele>
        <time>2021-09-28T07:17:51.682Z</time>
      </trkpt>
      <trkpt lat="45.79104" lon="4.6572">
        <ele>507</ele>
        <time>2021-09-28T07:17:54.252Z</time>
      </trkpt>
      <trkpt lat="45.79104" lon="4.65719">
        <ele>507</ele>
        <time>2021-09-28T07:17:56.823Z</time>
      </trkpt>
      <trkpt lat="45.79092" lon="4.65707">
        <ele>507.39999389648</ele>
        <time>2021-09-28T07:17:59.398Z</time>
      </trkpt>
      <trkpt lat="45.79089" lon="4.65706">
        <ele>507.20001220703</ele>
        <time>2021-09-28T07:18:01.975Z</time>
      </trkpt>
      <trkpt lat="45.79087" lon="4.65705">
        <ele>507.20001220703</ele>
        <time>2021-09-28T07:18:04.552Z</time>
      </trkpt>
      <trkpt lat="45.79079" lon="4.65695">
        <ele>507.39999389648</ele>
        <time>2021-09-28T07:18:07.133Z</time>
      </trkpt>
      <trkpt lat="45.79067" lon="4.65682">
        <ele>507.39999389648</ele>
        <time>2021-09-28T07:18:09.719Z</time>
      </trkpt>
      <trkpt lat="45.79056" lon="4.65672">
        <ele>507.20001220703</ele>
        <time>2021-09-28T07:18:12.309Z</time>
      </trkpt>
      <trkpt lat="45.79054" lon="4.65669">
        <ele>507.20001220703</ele>
        <time>2021-09-28T07:18:14.900Z</time>
      </trkpt>
      <trkpt lat="45.7905" lon="4.65665">
        <ele>507.20001220703</ele>
        <time>2021-09-28T07:18:17.493Z</time>
      </trkpt>
      <trkpt lat="45.79039" lon="4.65651">
        <ele>507.39999389648</ele>
        <time>2021-09-28T07:18:20.091Z</time>
      </trkpt>
      <trkpt lat="45.79029" lon="4.65637">
        <ele>507.60000610352</ele>
        <time>2021-09-28T07:18:22.693Z</time>
      </trkpt>
      <trkpt lat="45.7902" lon="4.65622">
        <ele>508.39999389648</ele>
        <time>2021-09-28T07:18:25.300Z</time>
      </trkpt>
      <trkpt lat="45.79013" lon="4.6561">
        <ele>508.79998779297</ele>
        <time>2021-09-28T07:18:27.911Z</time>
      </trkpt>
      <trkpt lat="45.79009" lon="4.65594">
        <ele>510.20001220703</ele>
        <time>2021-09-28T07:18:30.526Z</time>
      </trkpt>
      <trkpt lat="45.79006" lon="4.65582">
        <ele>511</ele>
        <time>2021-09-28T07:18:33.144Z</time>
      </trkpt>
      <trkpt lat="45.79006" lon="4.6558">
        <ele>511</ele>
        <time>2021-09-28T07:18:35.762Z</time>
      </trkpt>
      <trkpt lat="45.79005" lon="4.65577">
        <ele>511.20001220703</ele>
        <time>2021-09-28T07:18:38.381Z</time>
      </trkpt>
      <trkpt lat="45.79004" lon="4.65568">
        <ele>511.79998779297</ele>
        <time>2021-09-28T07:18:41.002Z</time>
      </trkpt>
      <trkpt lat="45.79003" lon="4.65565">
        <ele>512</ele>
        <time>2021-09-28T07:18:43.624Z</time>
      </trkpt>
      <trkpt lat="45.79002" lon="4.65556">
        <ele>512.59997558594</ele>
        <time>2021-09-28T07:18:46.248Z</time>
      </trkpt>
      <trkpt lat="45.79" lon="4.65545">
        <ele>512.79998779297</ele>
        <time>2021-09-28T07:18:48.874Z</time>
      </trkpt>
      <trkpt lat="45.78999" lon="4.65539">
        <ele>512.79998779297</ele>
        <time>2021-09-28T07:18:51.502Z</time>
      </trkpt>
      <trkpt lat="45.78996" lon="4.65525">
        <ele>513.40002441406</ele>
        <time>2021-09-28T07:18:54.133Z</time>
      </trkpt>
      <trkpt lat="45.78993" lon="4.65512">
        <ele>514.40002441406</ele>
        <time>2021-09-28T07:18:56.767Z</time>
      </trkpt>
      <trkpt lat="45.78989" lon="4.65498">
        <ele>515.40002441406</ele>
        <time>2021-09-28T07:18:59.405Z</time>
      </trkpt>
      <trkpt lat="45.78987" lon="4.65487">
        <ele>516.20001220703</ele>
        <time>2021-09-28T07:19:02.046Z</time>
      </trkpt>
      <trkpt lat="45.78986" lon="4.65479">
        <ele>516.79998779297</ele>
        <time>2021-09-28T07:19:04.689Z</time>
      </trkpt>
      <trkpt lat="45.78985" lon="4.65474">
        <ele>517.20001220703</ele>
        <time>2021-09-28T07:19:07.333Z</time>
      </trkpt>
      <trkpt lat="45.78985" lon="4.65471">
        <ele>517.40002441406</ele>
        <time>2021-09-28T07:19:09.977Z</time>
      </trkpt>
      <trkpt lat="45.78984" lon="4.65466">
        <ele>517.79998779297</ele>
        <time>2021-09-28T07:19:12.623Z</time>
      </trkpt>
      <trkpt lat="45.78984" lon="4.65461">
        <ele>518.20001220703</ele>
        <time>2021-09-28T07:19:15.270Z</time>
      </trkpt>
      <trkpt lat="45.78981" lon="4.65447">
        <ele>519.40002441406</ele>
        <time>2021-09-28T07:19:17.920Z</time>
      </trkpt>
      <trkpt lat="45.78982" lon="4.65443">
        <ele>520</ele>
        <time>2021-09-28T07:19:20.571Z</time>
      </trkpt>
      <trkpt lat="45.78983" lon="4.65435">
        <ele>521.40002441406</ele>
        <time>2021-09-28T07:19:23.224Z</time>
      </trkpt>
      <trkpt lat="45.78983" lon="4.65423">
        <ele>523.20001220703</ele>
        <time>2021-09-28T07:19:25.880Z</time>
      </trkpt>
      <trkpt lat="45.78983" lon="4.65412">
        <ele>523.40002441406</ele>
        <time>2021-09-28T07:19:28.538Z</time>
      </trkpt>
      <trkpt lat="45.78983" lon="4.65405">
        <ele>523.79998779297</ele>
        <time>2021-09-28T07:19:31.198Z</time>
      </trkpt>
      <trkpt lat="45.78983" lon="4.65401">
        <ele>524</ele>
        <time>2021-09-28T07:19:33.859Z</time>
      </trkpt>
      <trkpt lat="45.78984" lon="4.65389">
        <ele>524.59997558594</ele>
        <time>2021-09-28T07:19:36.523Z</time>
      </trkpt>
      <trkpt lat="45.78985" lon="4.65387">
        <ele>524.79998779297</ele>
        <time>2021-09-28T07:19:39.187Z</time>
      </trkpt>
      <trkpt lat="45.78986" lon="4.65378">
        <ele>525.59997558594</ele>
        <time>2021-09-28T07:19:41.853Z</time>
      </trkpt>
      <trkpt lat="45.78987" lon="4.65371">
        <ele>526</ele>
        <time>2021-09-28T07:19:44.521Z</time>
      </trkpt>
      <trkpt lat="45.78988" lon="4.65367">
        <ele>526.20001220703</ele>
        <time>2021-09-28T07:19:47.190Z</time>
      </trkpt>
      <trkpt lat="45.78992" lon="4.65353">
        <ele>526.79998779297</ele>
        <time>2021-09-28T07:19:49.863Z</time>
      </trkpt>
      <trkpt lat="45.78996" lon="4.65347">
        <ele>527.20001220703</ele>
        <time>2021-09-28T07:19:52.538Z</time>
      </trkpt>
      <trkpt lat="45.78997" lon="4.65343">
        <ele>527.40002441406</ele>
        <time>2021-09-28T07:19:55.214Z</time>
      </trkpt>
      <trkpt lat="45.78998" lon="4.65338">
        <ele>527.59997558594</ele>
        <time>2021-09-28T07:19:57.891Z</time>
      </trkpt>
      <trkpt lat="45.79" lon="4.65328">
        <ele>528.40002441406</ele>
        <time>2021-09-28T07:20:00.570Z</time>
      </trkpt>
      <trkpt lat="45.79001" lon="4.65315">
        <ele>528.79998779297</ele>
        <time>2021-09-28T07:20:03.252Z</time>
      </trkpt>
      <trkpt lat="45.79002" lon="4.653">
        <ele>530</ele>
        <time>2021-09-28T07:20:05.938Z</time>
      </trkpt>
      <trkpt lat="45.79002" lon="4.65289">
        <ele>530.79998779297</ele>
        <time>2021-09-28T07:20:08.626Z</time>
      </trkpt>
      <trkpt lat="45.79" lon="4.65275">
        <ele>532</ele>
        <time>2021-09-28T07:20:11.318Z</time>
      </trkpt>
      <trkpt lat="45.78999" lon="4.6526">
        <ele>533.20001220703</ele>
        <time>2021-09-28T07:20:14.013Z</time>
      </trkpt>
      <trkpt lat="45.79" lon="4.65251">
        <ele>534</ele>
        <time>2021-09-28T07:20:16.710Z</time>
      </trkpt>
      <trkpt lat="45.79" lon="4.65248">
        <ele>534.20001220703</ele>
        <time>2021-09-28T07:20:19.408Z</time>
      </trkpt>
      <trkpt lat="45.79004" lon="4.6523">
        <ele>534.40002441406</ele>
        <time>2021-09-28T07:20:22.110Z</time>
      </trkpt>
      <trkpt lat="45.7901" lon="4.65211">
        <ele>534.20001220703</ele>
        <time>2021-09-28T07:20:24.817Z</time>
      </trkpt>
      <trkpt lat="45.79012" lon="4.65204">
        <ele>534.40002441406</ele>
        <time>2021-09-28T07:20:27.526Z</time>
      </trkpt>
      <trkpt lat="45.79013" lon="4.65196">
        <ele>534.20001220703</ele>
        <time>2021-09-28T07:20:30.237Z</time>
      </trkpt>
      <trkpt lat="45.79014" lon="4.65182">
        <ele>534.40002441406</ele>
        <time>2021-09-28T07:20:32.951Z</time>
      </trkpt>
      <trkpt lat="45.79015" lon="4.65175">
        <ele>534.40002441406</ele>
        <time>2021-09-28T07:20:35.667Z</time>
      </trkpt>
      <trkpt lat="45.79015" lon="4.65154">
        <ele>535.40002441406</ele>
        <time>2021-09-28T07:20:38.388Z</time>
      </trkpt>
      <trkpt lat="45.79015" lon="4.65142">
        <ele>535.59997558594</ele>
        <time>2021-09-28T07:20:41.112Z</time>
      </trkpt>
      <trkpt lat="45.79015" lon="4.6514">
        <ele>536</ele>
        <time>2021-09-28T07:20:43.836Z</time>
      </trkpt>
      <trkpt lat="45.79016" lon="4.65124">
        <ele>537.20001220703</ele>
        <time>2021-09-28T07:20:46.564Z</time>
      </trkpt>
      <trkpt lat="45.79018" lon="4.65106">
        <ele>537</ele>
        <time>2021-09-28T07:20:49.296Z</time>
      </trkpt>
      <trkpt lat="45.79019" lon="4.65102">
        <ele>536.59997558594</ele>
        <time>2021-09-28T07:20:52.029Z</time>
      </trkpt>
      <trkpt lat="45.7902" lon="4.65097">
        <ele>536.40002441406</ele>
        <time>2021-09-28T07:20:54.763Z</time>
      </trkpt>
      <trkpt lat="45.79022" lon="4.65084">
        <ele>536.40002441406</ele>
        <time>2021-09-28T07:20:57.500Z</time>
      </trkpt>
      <trkpt lat="45.79025" lon="4.65051">
        <ele>536.20001220703</ele>
        <time>2021-09-28T07:21:00.245Z</time>
      </trkpt>
      <trkpt lat="45.79025" lon="4.65032">
        <ele>536.20001220703</ele>
        <time>2021-09-28T07:21:02.995Z</time>
      </trkpt>
      <trkpt lat="45.79025" lon="4.65019">
        <ele>535.79998779297</ele>
        <time>2021-09-28T07:21:05.747Z</time>
      </trkpt>
      <trkpt lat="45.79025" lon="4.65016">
        <ele>535.79998779297</ele>
        <time>2021-09-28T07:21:08.500Z</time>
      </trkpt>
      <trkpt lat="45.79027" lon="4.65007">
        <ele>535</ele>
        <time>2021-09-28T07:21:11.255Z</time>
      </trkpt>
      <trkpt lat="45.79027" lon="4.65">
        <ele>534.59997558594</ele>
        <time>2021-09-28T07:21:14.012Z</time>
      </trkpt>
      <trkpt lat="45.79027" lon="4.64998">
        <ele>534.20001220703</ele>
        <time>2021-09-28T07:21:16.770Z</time>
      </trkpt>
      <trkpt lat="45.79026" lon="4.6499">
        <ele>533.79998779297</ele>
        <time>2021-09-28T07:21:19.529Z</time>
      </trkpt>
      <trkpt lat="45.79026" lon="4.64986">
        <ele>533.59997558594</ele>
        <time>2021-09-28T07:21:22.289Z</time>
      </trkpt>
      <trkpt lat="45.79025" lon="4.64978">
        <ele>533</ele>
        <time>2021-09-28T07:21:25.051Z</time>
      </trkpt>
      <trkpt lat="45.79027" lon="4.64964">
        <ele>531.59997558594</ele>
        <time>2021-09-28T07:21:27.817Z</time>
      </trkpt>
      <trkpt lat="45.79025" lon="4.64942">
        <ele>530.59997558594</ele>
        <time>2021-09-28T07:21:30.588Z</time>
      </trkpt>
      <trkpt lat="45.7902" lon="4.64928">
        <ele>530.79998779297</ele>
        <time>2021-09-28T07:21:33.362Z</time>
      </trkpt>
      <trkpt lat="45.79018" lon="4.64919">
        <ele>531</ele>
        <time>2021-09-28T07:21:36.139Z</time>
      </trkpt>
      <trkpt lat="45.79012" lon="4.64899">
        <ele>531.59997558594</ele>
        <time>2021-09-28T07:21:38.921Z</time>
      </trkpt>
      <trkpt lat="45.79009" lon="4.64888">
        <ele>531.40002441406</ele>
        <time>2021-09-28T07:21:41.705Z</time>
      </trkpt>
      <trkpt lat="45.79008" lon="4.64882">
        <ele>531.20001220703</ele>
        <time>2021-09-28T07:21:44.491Z</time>
      </trkpt>
      <trkpt lat="45.78997" lon="4.64866">
        <ele>531.59997558594</ele>
        <time>2021-09-28T07:21:47.282Z</time>
      </trkpt>
      <trkpt lat="45.78985" lon="4.64853">
        <ele>530.79998779297</ele>
        <time>2021-09-28T07:21:50.078Z</time>
      </trkpt>
      <trkpt lat="45.7898" lon="4.64843">
        <ele>529.20001220703</ele>
        <time>2021-09-28T07:21:52.877Z</time>
      </trkpt>
      <trkpt lat="45.78975" lon="4.64831">
        <ele>528</ele>
        <time>2021-09-28T07:21:55.679Z</time>
      </trkpt>
      <trkpt lat="45.78972" lon="4.64824">
        <ele>527</ele>
        <time>2021-09-28T07:21:58.483Z</time>
      </trkpt>
      <trkpt lat="45.78969" lon="4.64817">
        <ele>526</ele>
        <time>2021-09-28T07:22:01.289Z</time>
      </trkpt>
      <trkpt lat="45.78956" lon="4.64794">
        <ele>524.59997558594</ele>
        <time>2021-09-28T07:22:04.102Z</time>
      </trkpt>
      <trkpt lat="45.78952" lon="4.64787">
        <ele>524.40002441406</ele>
        <time>2021-09-28T07:22:06.917Z</time>
      </trkpt>
      <trkpt lat="45.78948" lon="4.64781">
        <ele>524.40002441406</ele>
        <time>2021-09-28T07:22:09.734Z</time>
      </trkpt>
      <trkpt lat="45.7894" lon="4.64771">
        <ele>525</ele>
        <time>2021-09-28T07:22:12.554Z</time>
      </trkpt>
      <trkpt lat="45.78937" lon="4.64768">
        <ele>525.40002441406</ele>
        <time>2021-09-28T07:22:15.376Z</time>
      </trkpt>
      <trkpt lat="45.78925" lon="4.64752">
        <ele>526.40002441406</ele>
        <time>2021-09-28T07:22:18.203Z</time>
      </trkpt>
      <trkpt lat="45.78918" lon="4.64744">
        <ele>527.40002441406</ele>
        <time>2021-09-28T07:22:21.033Z</time>
      </trkpt>
      <trkpt lat="45.78915" lon="4.64742">
        <ele>527.79998779297</ele>
        <time>2021-09-28T07:22:23.864Z</time>
      </trkpt>
      <trkpt lat="45.78908" lon="4.64733">
        <ele>528.59997558594</ele>
        <time>2021-09-28T07:22:26.698Z</time>
      </trkpt>
      <trkpt lat="45.78904" lon="4.64726">
        <ele>528.59997558594</ele>
        <time>2021-09-28T07:22:29.534Z</time>
      </trkpt>
      <trkpt lat="45.78894" lon="4.64716">
        <ele>530.20001220703</ele>
        <time>2021-09-28T07:22:32.374Z</time>
      </trkpt>
      <trkpt lat="45.78892" lon="4.64716">
        <ele>531</ele>
        <time>2021-09-28T07:22:35.215Z</time>
      </trkpt>
      <trkpt lat="45.7889" lon="4.64714">
        <ele>531.40002441406</ele>
        <time>2021-09-28T07:22:38.057Z</time>
      </trkpt>
      <trkpt lat="45.78888" lon="4.64712">
        <ele>531.40002441406</ele>
        <time>2021-09-28T07:22:40.900Z</time>
      </trkpt>
      <trkpt lat="45.78882" lon="4.64703">
        <ele>532</ele>
        <time>2021-09-28T07:22:43.746Z</time>
      </trkpt>
      <trkpt lat="45.78881" lon="4.647">
        <ele>531.79998779297</ele>
        <time>2021-09-28T07:22:46.593Z</time>
      </trkpt>
      <trkpt lat="45.78873" lon="4.64691">
        <ele>532.79998779297</ele>
        <time>2021-09-28T07:22:49.443Z</time>
      </trkpt>
      <trkpt lat="45.78867" lon="4.64682">
        <ele>533.40002441406</ele>
        <time>2021-09-28T07:22:52.296Z</time>
      </trkpt>
      <trkpt lat="45.78866" lon="4.6468">
        <ele>533.59997558594</ele>
        <time>2021-09-28T07:22:55.149Z</time>
      </trkpt>
      <trkpt lat="45.78865" lon="4.64677">
        <ele>533.59997558594</ele>
        <time>2021-09-28T07:22:58.003Z</time>
      </trkpt>
      <trkpt lat="45.78862" lon="4.64674">
        <ele>534.20001220703</ele>
        <time>2021-09-28T07:23:00.858Z</time>
      </trkpt>
      <trkpt lat="45.78858" lon="4.64667">
        <ele>535</ele>
        <time>2021-09-28T07:23:03.715Z</time>
      </trkpt>
      <trkpt lat="45.78858" lon="4.64665">
        <ele>535.20001220703</ele>
        <time>2021-09-28T07:23:06.573Z</time>
      </trkpt>
      <trkpt lat="45.78854" lon="4.64656">
        <ele>535.79998779297</ele>
        <time>2021-09-28T07:23:09.433Z</time>
      </trkpt>
      <trkpt lat="45.78851" lon="4.64645">
        <ele>536.20001220703</ele>
        <time>2021-09-28T07:23:12.296Z</time>
      </trkpt>
      <trkpt lat="45.78851" lon="4.64642">
        <ele>536.40002441406</ele>
        <time>2021-09-28T07:23:15.160Z</time>
      </trkpt>
      <trkpt lat="45.78847" lon="4.64631">
        <ele>537.79998779297</ele>
        <time>2021-09-28T07:23:18.027Z</time>
      </trkpt>
      <trkpt lat="45.78844" lon="4.64614">
        <ele>539.20001220703</ele>
        <time>2021-09-28T07:23:20.898Z</time>
      </trkpt>
      <trkpt lat="45.78841" lon="4.64605">
        <ele>541</ele>
        <time>2021-09-28T07:23:23.771Z</time>
      </trkpt>
      <trkpt lat="45.78841" lon="4.64597">
        <ele>541.20001220703</ele>
        <time>2021-09-28T07:23:26.646Z</time>
      </trkpt>
      <trkpt lat="45.78842" lon="4.64591">
        <ele>541.20001220703</ele>
        <time>2021-09-28T07:23:29.522Z</time>
      </trkpt>
      <trkpt lat="45.78847" lon="4.6458">
        <ele>539.79998779297</ele>
        <time>2021-09-28T07:23:32.401Z</time>
      </trkpt>
      <trkpt lat="45.78848" lon="4.64574">
        <ele>539.59997558594</ele>
        <time>2021-09-28T07:23:35.282Z</time>
      </trkpt>
      <trkpt lat="45.78848" lon="4.64565">
        <ele>539.40002441406</ele>
        <time>2021-09-28T07:23:38.165Z</time>
      </trkpt>
      <trkpt lat="45.78851" lon="4.64545">
        <ele>538.20001220703</ele>
        <time>2021-09-28T07:23:41.053Z</time>
      </trkpt>
      <trkpt lat="45.78851" lon="4.64525">
        <ele>536.40002441406</ele>
        <time>2021-09-28T07:23:43.945Z</time>
      </trkpt>
      <trkpt lat="45.78849" lon="4.64515">
        <ele>535.79998779297</ele>
        <time>2021-09-28T07:23:46.840Z</time>
      </trkpt>
      <trkpt lat="45.78849" lon="4.64506">
        <ele>535</ele>
        <time>2021-09-28T07:23:49.737Z</time>
      </trkpt>
      <trkpt lat="45.78848" lon="4.64492">
        <ele>534</ele>
        <time>2021-09-28T07:23:52.637Z</time>
      </trkpt>
      <trkpt lat="45.78848" lon="4.64486">
        <ele>533.59997558594</ele>
        <time>2021-09-28T07:23:55.538Z</time>
      </trkpt>
      <trkpt lat="45.78846" lon="4.6448">
        <ele>533.79998779297</ele>
        <time>2021-09-28T07:23:58.441Z</time>
      </trkpt>
      <trkpt lat="45.78843" lon="4.64464">
        <ele>533.79998779297</ele>
        <time>2021-09-28T07:24:01.348Z</time>
      </trkpt>
      <trkpt lat="45.78839" lon="4.64442">
        <ele>534.40002441406</ele>
        <time>2021-09-28T07:24:04.260Z</time>
      </trkpt>
      <trkpt lat="45.78837" lon="4.64427">
        <ele>535.59997558594</ele>
        <time>2021-09-28T07:24:07.176Z</time>
      </trkpt>
      <trkpt lat="45.78837" lon="4.64421">
        <ele>535.79998779297</ele>
        <time>2021-09-28T07:24:10.093Z</time>
      </trkpt>
      <trkpt lat="45.78838" lon="4.64408">
        <ele>535.79998779297</ele>
        <time>2021-09-28T07:24:13.013Z</time>
      </trkpt>
      <trkpt lat="45.78837" lon="4.64405">
        <ele>536.20001220703</ele>
        <time>2021-09-28T07:24:15.934Z</time>
      </trkpt>
      <trkpt lat="45.78829" lon="4.64388">
        <ele>539.20001220703</ele>
        <time>2021-09-28T07:24:18.859Z</time>
      </trkpt>
      <trkpt lat="45.78823" lon="4.64374">
        <ele>539.79998779297</ele>
        <time>2021-09-28T07:24:21.788Z</time>
      </trkpt>
      <trkpt lat="45.78817" lon="4.64361">
        <ele>541</ele>
        <time>2021-09-28T07:24:24.721Z</time>
      </trkpt>
      <trkpt lat="45.78816" lon="4.64359">
        <ele>541</ele>
        <time>2021-09-28T07:24:27.655Z</time>
      </trkpt>
      <trkpt lat="45.78812" lon="4.6435">
        <ele>540</ele>
        <time>2021-09-28T07:24:30.591Z</time>
      </trkpt>
      <trkpt lat="45.7881" lon="4.64342">
        <ele>538.79998779297</ele>
        <time>2021-09-28T07:24:33.529Z</time>
      </trkpt>
      <trkpt lat="45.78809" lon="4.64334">
        <ele>537.79998779297</ele>
        <time>2021-09-28T07:24:36.469Z</time>
      </trkpt>
      <trkpt lat="45.78801" lon="4.6432">
        <ele>537.79998779297</ele>
        <time>2021-09-28T07:24:39.413Z</time>
      </trkpt>
      <trkpt lat="45.78798" lon="4.64315">
        <ele>538</ele>
        <time>2021-09-28T07:24:42.359Z</time>
      </trkpt>
      <trkpt lat="45.78795" lon="4.6431">
        <ele>538</ele>
        <time>2021-09-28T07:24:45.306Z</time>
      </trkpt>
      <trkpt lat="45.78794" lon="4.64308">
        <ele>538.20001220703</ele>
        <time>2021-09-28T07:24:48.254Z</time>
      </trkpt>
      <trkpt lat="45.78787" lon="4.64299">
        <ele>539</ele>
        <time>2021-09-28T07:24:51.205Z</time>
      </trkpt>
      <trkpt lat="45.78778" lon="4.64281">
        <ele>540.40002441406</ele>
        <time>2021-09-28T07:24:54.161Z</time>
      </trkpt>
      <trkpt lat="45.78777" lon="4.64262">
        <ele>540</ele>
        <time>2021-09-28T07:24:57.121Z</time>
      </trkpt>
      <trkpt lat="45.7878" lon="4.64239">
        <ele>539.59997558594</ele>
        <time>2021-09-28T07:25:00.087Z</time>
      </trkpt>
      <trkpt lat="45.78788" lon="4.64228">
        <ele>538.59997558594</ele>
        <time>2021-09-28T07:25:03.057Z</time>
      </trkpt>
      <trkpt lat="45.78802" lon="4.64222">
        <ele>538.40002441406</ele>
        <time>2021-09-28T07:25:06.031Z</time>
      </trkpt>
      <trkpt lat="45.78817" lon="4.64222">
        <ele>537</ele>
        <time>2021-09-28T07:25:09.010Z</time>
      </trkpt>
      <trkpt lat="45.7882" lon="4.64222">
        <ele>536.59997558594</ele>
        <time>2021-09-28T07:25:11.990Z</time>
      </trkpt>
      <trkpt lat="45.78833" lon="4.64218">
        <ele>535.59997558594</ele>
        <time>2021-09-28T07:25:14.975Z</time>
      </trkpt>
      <trkpt lat="45.78842" lon="4.64213">
        <ele>534.79998779297</ele>
        <time>2021-09-28T07:25:17.963Z</time>
      </trkpt>
      <trkpt lat="45.78852" lon="4.64203">
        <ele>534.40002441406</ele>
        <time>2021-09-28T07:25:20.955Z</time>
      </trkpt>
      <trkpt lat="45.78864" lon="4.64187">
        <ele>534.40002441406</ele>
        <time>2021-09-28T07:25:23.953Z</time>
      </trkpt>
      <trkpt lat="45.78868" lon="4.64181">
        <ele>534.40002441406</ele>
        <time>2021-09-28T07:25:26.953Z</time>
      </trkpt>
      <trkpt lat="45.78871" lon="4.64175">
        <ele>534.59997558594</ele>
        <time>2021-09-28T07:25:29.954Z</time>
      </trkpt>
      <trkpt lat="45.78881" lon="4.64158">
        <ele>535</ele>
        <time>2021-09-28T07:25:32.960Z</time>
      </trkpt>
      <trkpt lat="45.78881" lon="4.64155">
        <ele>535.20001220703</ele>
        <time>2021-09-28T07:25:35.967Z</time>
      </trkpt>
      <trkpt lat="45.78878" lon="4.6415">
        <ele>535.79998779297</ele>
        <time>2021-09-28T07:25:38.976Z</time>
      </trkpt>
      <trkpt lat="45.78869" lon="4.64149">
        <ele>536.59997558594</ele>
        <time>2021-09-28T07:25:41.988Z</time>
      </trkpt>
      <trkpt lat="45.7886" lon="4.6415">
        <ele>537.59997558594</ele>
        <time>2021-09-28T07:25:45.003Z</time>
      </trkpt>
      <trkpt lat="45.78856" lon="4.64149">
        <ele>538</ele>
        <time>2021-09-28T07:25:48.019Z</time>
      </trkpt>
      <trkpt lat="45.78839" lon="4.64148">
        <ele>540</ele>
        <time>2021-09-28T07:25:51.041Z</time>
      </trkpt>
      <trkpt lat="45.78828" lon="4.64151">
        <ele>541.40002441406</ele>
        <time>2021-09-28T07:25:54.067Z</time>
      </trkpt>
      <trkpt lat="45.78825" lon="4.64153">
        <ele>541.59997558594</ele>
        <time>2021-09-28T07:25:57.094Z</time>
      </trkpt>
      <trkpt lat="45.78821" lon="4.64154">
        <ele>542</ele>
        <time>2021-09-28T07:26:00.122Z</time>
      </trkpt>
      <trkpt lat="45.7881" lon="4.64158">
        <ele>543</ele>
        <time>2021-09-28T07:26:03.154Z</time>
      </trkpt>
      <trkpt lat="45.788" lon="4.6416">
        <ele>544.79998779297</ele>
        <time>2021-09-28T07:26:06.189Z</time>
      </trkpt>
      <trkpt lat="45.78793" lon="4.6416">
        <ele>546.20001220703</ele>
        <time>2021-09-28T07:26:09.227Z</time>
      </trkpt>
      <trkpt lat="45.78792" lon="4.64159">
        <ele>546.59997558594</ele>
        <time>2021-09-28T07:26:12.265Z</time>
      </trkpt>
      <trkpt lat="45.78784" lon="4.64154">
        <ele>548.59997558594</ele>
        <time>2021-09-28T07:26:15.306Z</time>
      </trkpt>
      <trkpt lat="45.7878" lon="4.64144">
        <ele>550</ele>
        <time>2021-09-28T07:26:18.349Z</time>
      </trkpt>
      <trkpt lat="45.78772" lon="4.64138">
        <ele>551.20001220703</ele>
        <time>2021-09-28T07:26:21.395Z</time>
      </trkpt>
      <trkpt lat="45.78765" lon="4.64128">
        <ele>552.20001220703</ele>
        <time>2021-09-28T07:26:24.445Z</time>
      </trkpt>
      <trkpt lat="45.78764" lon="4.64125">
        <ele>552.20001220703</ele>
        <time>2021-09-28T07:26:27.496Z</time>
      </trkpt>
      <trkpt lat="45.78761" lon="4.64122">
        <ele>552.59997558594</ele>
        <time>2021-09-28T07:26:30.548Z</time>
      </trkpt>
      <trkpt lat="45.7876" lon="4.6412">
        <ele>552.79998779297</ele>
        <time>2021-09-28T07:26:33.600Z</time>
      </trkpt>
      <trkpt lat="45.78756" lon="4.64118">
        <ele>553.59997558594</ele>
        <time>2021-09-28T07:26:36.654Z</time>
      </trkpt>
      <trkpt lat="45.78754" lon="4.64116">
        <ele>554</ele>
        <time>2021-09-28T07:26:39.708Z</time>
      </trkpt>
      <trkpt lat="45.78752" lon="4.64113">
        <ele>554.59997558594</ele>
        <time>2021-09-28T07:26:42.763Z</time>
      </trkpt>
      <trkpt lat="45.7875" lon="4.64111">
        <ele>555.20001220703</ele>
        <time>2021-09-28T07:26:45.819Z</time>
      </trkpt>
      <trkpt lat="45.78748" lon="4.64107">
        <ele>555.59997558594</ele>
        <time>2021-09-28T07:26:48.876Z</time>
      </trkpt>
      <trkpt lat="45.78744" lon="4.64102">
        <ele>556.40002441406</ele>
        <time>2021-09-28T07:26:51.935Z</time>
      </trkpt>
      <trkpt lat="45.78742" lon="4.641">
        <ele>557</ele>
        <time>2021-09-28T07:26:54.995Z</time>
      </trkpt>
      <trkpt lat="45.78735" lon="4.64092">
        <ele>558.79998779297</ele>
        <time>2021-09-28T07:26:58.058Z</time>
      </trkpt>
      <trkpt lat="45.78727" lon="4.64084">
        <ele>561</ele>
        <time>2021-09-28T07:27:01.124Z</time>
      </trkpt>
      <trkpt lat="45.78725" lon="4.64083">
        <ele>561.40002441406</ele>
        <time>2021-09-28T07:27:04.191Z</time>
      </trkpt>
      <trkpt lat="45.78719" lon="4.64079">
        <ele>563.40002441406</ele>
        <time>2021-09-28T07:27:07.260Z</time>
      </trkpt>
      <trkpt lat="45.78712" lon="4.64076">
        <ele>565.79998779297</ele>
        <time>2021-09-28T07:27:10.332Z</time>
      </trkpt>
      <trkpt lat="45.78708" lon="4.64075">
        <ele>567</ele>
        <time>2021-09-28T07:27:13.405Z</time>
      </trkpt>
      <trkpt lat="45.78686" lon="4.64062">
        <ele>571</ele>
        <time>2021-09-28T07:27:16.486Z</time>
      </trkpt>
      <trkpt lat="45.78685" lon="4.64062">
        <ele>571.20001220703</ele>
        <time>2021-09-28T07:27:19.567Z</time>
      </trkpt>
      <trkpt lat="45.78678" lon="4.64056">
        <ele>572.20001220703</ele>
        <time>2021-09-28T07:27:22.651Z</time>
      </trkpt>
      <trkpt lat="45.78673" lon="4.64051">
        <ele>573</ele>
        <time>2021-09-28T07:27:25.737Z</time>
      </trkpt>
      <trkpt lat="45.78667" lon="4.64046">
        <ele>573.59997558594</ele>
        <time>2021-09-28T07:27:28.825Z</time>
      </trkpt>
      <trkpt lat="45.78664" lon="4.64042">
        <ele>573.79998779297</ele>
        <time>2021-09-28T07:27:31.915Z</time>
      </trkpt>
      <trkpt lat="45.78661" lon="4.64038">
        <ele>574.20001220703</ele>
        <time>2021-09-28T07:27:35.006Z</time>
      </trkpt>
      <trkpt lat="45.78658" lon="4.64036">
        <ele>574.59997558594</ele>
        <time>2021-09-28T07:27:38.098Z</time>
      </trkpt>
      <trkpt lat="45.78655" lon="4.6403">
        <ele>574.79998779297</ele>
        <time>2021-09-28T07:27:41.192Z</time>
      </trkpt>
      <trkpt lat="45.78653" lon="4.64027">
        <ele>574.79998779297</ele>
        <time>2021-09-28T07:27:44.287Z</time>
      </trkpt>
      <trkpt lat="45.78649" lon="4.64021">
        <ele>574.79998779297</ele>
        <time>2021-09-28T07:27:47.384Z</time>
      </trkpt>
      <trkpt lat="45.78648" lon="4.64018">
        <ele>574.79998779297</ele>
        <time>2021-09-28T07:27:50.482Z</time>
      </trkpt>
      <trkpt lat="45.78642" lon="4.64015">
        <ele>574.59997558594</ele>
        <time>2021-09-28T07:27:53.582Z</time>
      </trkpt>
      <trkpt lat="45.78636" lon="4.64012">
        <ele>574.20001220703</ele>
        <time>2021-09-28T07:27:56.684Z</time>
      </trkpt>
      <trkpt lat="45.78635" lon="4.64011">
        <ele>574</ele>
        <time>2021-09-28T07:27:59.786Z</time>
      </trkpt>
      <trkpt lat="45.78629" lon="4.64008">
        <ele>573.79998779297</ele>
        <time>2021-09-28T07:28:02.890Z</time>
      </trkpt>
      <trkpt lat="45.78628" lon="4.64008">
        <ele>573.59997558594</ele>
        <time>2021-09-28T07:28:05.995Z</time>
      </trkpt>
      <trkpt lat="45.78621" lon="4.64009">
        <ele>573.59997558594</ele>
        <time>2021-09-28T07:28:09.102Z</time>
      </trkpt>
      <trkpt lat="45.78613" lon="4.64017">
        <ele>574.40002441406</ele>
        <time>2021-09-28T07:28:12.212Z</time>
      </trkpt>
      <trkpt lat="45.78606" lon="4.64024">
        <ele>575.20001220703</ele>
        <time>2021-09-28T07:28:15.325Z</time>
      </trkpt>
      <trkpt lat="45.78605" lon="4.64026">
        <ele>575.40002441406</ele>
        <time>2021-09-28T07:28:18.439Z</time>
      </trkpt>
      <trkpt lat="45.786" lon="4.64032">
        <ele>576.40002441406</ele>
        <time>2021-09-28T07:28:21.555Z</time>
      </trkpt>
      <trkpt lat="45.78599" lon="4.64034">
        <ele>576.40002441406</ele>
        <time>2021-09-28T07:28:24.671Z</time>
      </trkpt>
      <trkpt lat="45.78596" lon="4.64039">
        <ele>577</ele>
        <time>2021-09-28T07:28:27.789Z</time>
      </trkpt>
      <trkpt lat="45.78596" lon="4.64043">
        <ele>577.59997558594</ele>
        <time>2021-09-28T07:28:30.908Z</time>
      </trkpt>
      <trkpt lat="45.78596" lon="4.64048">
        <ele>578.20001220703</ele>
        <time>2021-09-28T07:28:34.028Z</time>
      </trkpt>
      <trkpt lat="45.78596" lon="4.64049">
        <ele>578.40002441406</ele>
        <time>2021-09-28T07:28:37.148Z</time>
      </trkpt>
      <trkpt lat="45.78596" lon="4.64063">
        <ele>580.20001220703</ele>
        <time>2021-09-28T07:28:40.271Z</time>
      </trkpt>
      <trkpt lat="45.78594" lon="4.64072">
        <ele>581.40002441406</ele>
        <time>2021-09-28T07:28:43.397Z</time>
      </trkpt>
      <trkpt lat="45.78591" lon="4.64076">
        <ele>581.79998779297</ele>
        <time>2021-09-28T07:28:46.524Z</time>
      </trkpt>
      <trkpt lat="45.78593" lon="4.64082">
        <ele>582.40002441406</ele>
        <time>2021-09-28T07:28:49.652Z</time>
      </trkpt>
      <trkpt lat="45.78596" lon="4.64086">
        <ele>582.79998779297</ele>
        <time>2021-09-28T07:28:52.782Z</time>
      </trkpt>
      <trkpt lat="45.78598" lon="4.64086">
        <ele>582.59997558594</ele>
        <time>2021-09-28T07:28:55.912Z</time>
      </trkpt>
      <trkpt lat="45.78599" lon="4.64083">
        <ele>582.20001220703</ele>
        <time>2021-09-28T07:28:59.043Z</time>
      </trkpt>
      <trkpt lat="45.78601" lon="4.6408">
        <ele>581.79998779297</ele>
        <time>2021-09-28T07:29:02.175Z</time>
      </trkpt>
      <trkpt lat="45.78599" lon="4.64087">
        <ele>582.59997558594</ele>
        <time>2021-09-28T07:29:05.309Z</time>
      </trkpt>
      <trkpt lat="45.78599" lon="4.64092">
        <ele>583</ele>
        <time>2021-09-28T07:29:08.444Z</time>
      </trkpt>
      <trkpt lat="45.78597" lon="4.64108">
        <ele>585.40002441406</ele>
        <time>2021-09-28T07:29:11.583Z</time>
      </trkpt>
      <trkpt lat="45.78594" lon="4.64123">
        <ele>587.40002441406</ele>
        <time>2021-09-28T07:29:14.726Z</time>
      </trkpt>
      <trkpt lat="45.78593" lon="4.64128">
        <ele>587.79998779297</ele>
        <time>2021-09-28T07:29:17.870Z</time>
      </trkpt>
      <trkpt lat="45.78592" lon="4.64137">
        <ele>588.40002441406</ele>
        <time>2021-09-28T07:29:21.016Z</time>
      </trkpt>
      <trkpt lat="45.78592" lon="4.64142">
        <ele>588.79998779297</ele>
        <time>2021-09-28T07:29:24.163Z</time>
      </trkpt>
      <trkpt lat="45.78591" lon="4.64149">
        <ele>589.59997558594</ele>
        <time>2021-09-28T07:29:27.312Z</time>
      </trkpt>
      <trkpt lat="45.7859" lon="4.64161">
        <ele>591.20001220703</ele>
        <time>2021-09-28T07:29:30.464Z</time>
      </trkpt>
      <trkpt lat="45.78589" lon="4.64164">
        <ele>591.59997558594</ele>
        <time>2021-09-28T07:29:33.616Z</time>
      </trkpt>
      <trkpt lat="45.78586" lon="4.64169">
        <ele>592.20001220703</ele>
        <time>2021-09-28T07:29:36.770Z</time>
      </trkpt>
      <trkpt lat="45.78585" lon="4.6417">
        <ele>592.40002441406</ele>
        <time>2021-09-28T07:29:39.924Z</time>
      </trkpt>
      <trkpt lat="45.78582" lon="4.64174">
        <ele>593</ele>
        <time>2021-09-28T07:29:43.080Z</time>
      </trkpt>
      <trkpt lat="45.78581" lon="4.64174">
        <ele>593.20001220703</ele>
        <time>2021-09-28T07:29:46.236Z</time>
      </trkpt>
      <trkpt lat="45.78579" lon="4.64175">
        <ele>593.40002441406</ele>
        <time>2021-09-28T07:29:49.393Z</time>
      </trkpt>
      <trkpt lat="45.78574" lon="4.64177">
        <ele>593.79998779297</ele>
        <time>2021-09-28T07:29:52.551Z</time>
      </trkpt>
      <trkpt lat="45.78571" lon="4.64179">
        <ele>594.40002441406</ele>
        <time>2021-09-28T07:29:55.710Z</time>
      </trkpt>
      <trkpt lat="45.78568" lon="4.6418">
        <ele>594.79998779297</ele>
        <time>2021-09-28T07:29:58.871Z</time>
      </trkpt>
      <trkpt lat="45.78534" lon="4.64196">
        <ele>603.20001220703</ele>
        <time>2021-09-28T07:30:02.044Z</time>
      </trkpt>
      <trkpt lat="45.78531" lon="4.64196">
        <ele>603.79998779297</ele>
        <time>2021-09-28T07:30:05.218Z</time>
      </trkpt>
      <trkpt lat="45.78528" lon="4.64197">
        <ele>604.59997558594</ele>
        <time>2021-09-28T07:30:08.393Z</time>
      </trkpt>
      <trkpt lat="45.78527" lon="4.64198">
        <ele>604.79998779297</ele>
        <time>2021-09-28T07:30:11.568Z</time>
      </trkpt>
      <trkpt lat="45.78522" lon="4.64202">
        <ele>606.40002441406</ele>
        <time>2021-09-28T07:30:14.745Z</time>
      </trkpt>
      <trkpt lat="45.78516" lon="4.64204">
        <ele>607.79998779297</ele>
        <time>2021-09-28T07:30:17.924Z</time>
      </trkpt>
      <trkpt lat="45.78511" lon="4.64207">
        <ele>609.40002441406</ele>
        <time>2021-09-28T07:30:21.105Z</time>
      </trkpt>
      <trkpt lat="45.78502" lon="4.64211">
        <ele>612.20001220703</ele>
        <time>2021-09-28T07:30:24.289Z</time>
      </trkpt>
      <trkpt lat="45.78494" lon="4.64218">
        <ele>615</ele>
        <time>2021-09-28T07:30:27.476Z</time>
      </trkpt>
      <trkpt lat="45.78492" lon="4.6422">
        <ele>615.79998779297</ele>
        <time>2021-09-28T07:30:30.664Z</time>
      </trkpt>
      <trkpt lat="45.7846" lon="4.64231">
        <ele>622.79998779297</ele>
        <time>2021-09-28T07:30:33.863Z</time>
      </trkpt>
      <trkpt lat="45.78458" lon="4.64233">
        <ele>623.40002441406</ele>
        <time>2021-09-28T07:30:37.063Z</time>
      </trkpt>
      <trkpt lat="45.78454" lon="4.64235">
        <ele>624.40002441406</ele>
        <time>2021-09-28T07:30:40.264Z</time>
      </trkpt>
      <trkpt lat="45.78446" lon="4.64237">
        <ele>626.40002441406</ele>
        <time>2021-09-28T07:30:43.468Z</time>
      </trkpt>
      <trkpt lat="45.78441" lon="4.64238">
        <ele>627.59997558594</ele>
        <time>2021-09-28T07:30:46.673Z</time>
      </trkpt>
      <trkpt lat="45.78435" lon="4.64239">
        <ele>628.79998779297</ele>
        <time>2021-09-28T07:30:49.880Z</time>
      </trkpt>
      <trkpt lat="45.78434" lon="4.64239">
        <ele>629</ele>
        <time>2021-09-28T07:30:53.088Z</time>
      </trkpt>
      <trkpt lat="45.78427" lon="4.64238">
        <ele>629.59997558594</ele>
        <time>2021-09-28T07:30:56.298Z</time>
      </trkpt>
      <trkpt lat="45.78425" lon="4.64238">
        <ele>629.79998779297</ele>
        <time>2021-09-28T07:30:59.509Z</time>
      </trkpt>
      <trkpt lat="45.78418" lon="4.64236">
        <ele>630.59997558594</ele>
        <time>2021-09-28T07:31:02.722Z</time>
      </trkpt>
      <trkpt lat="45.78417" lon="4.64234">
        <ele>630.79998779297</ele>
        <time>2021-09-28T07:31:05.936Z</time>
      </trkpt>
      <trkpt lat="45.78415" lon="4.64233">
        <ele>630.79998779297</ele>
        <time>2021-09-28T07:31:09.150Z</time>
      </trkpt>
      <trkpt lat="45.78411" lon="4.64229">
        <ele>631</ele>
        <time>2021-09-28T07:31:12.366Z</time>
      </trkpt>
      <trkpt lat="45.78408" lon="4.64225">
        <ele>631.20001220703</ele>
        <time>2021-09-28T07:31:15.583Z</time>
      </trkpt>
      <trkpt lat="45.78404" lon="4.64221">
        <ele>631.20001220703</ele>
        <time>2021-09-28T07:31:18.802Z</time>
      </trkpt>
      <trkpt lat="45.78389" lon="4.64208">
        <ele>631.79998779297</ele>
        <time>2021-09-28T07:31:22.027Z</time>
      </trkpt>
      <trkpt lat="45.78385" lon="4.64204">
        <ele>632</ele>
        <time>2021-09-28T07:31:25.253Z</time>
      </trkpt>
      <trkpt lat="45.78379" lon="4.642">
        <ele>632.59997558594</ele>
        <time>2021-09-28T07:31:28.482Z</time>
      </trkpt>
      <trkpt lat="45.78371" lon="4.64191">
        <ele>632.79998779297</ele>
        <time>2021-09-28T07:31:31.714Z</time>
      </trkpt>
      <trkpt lat="45.78369" lon="4.64189">
        <ele>633</ele>
        <time>2021-09-28T07:31:34.947Z</time>
      </trkpt>
      <trkpt lat="45.78367" lon="4.64186">
        <ele>632.79998779297</ele>
        <time>2021-09-28T07:31:38.181Z</time>
      </trkpt>
      <trkpt lat="45.78366" lon="4.64184">
        <ele>632.79998779297</ele>
        <time>2021-09-28T07:31:41.415Z</time>
      </trkpt>
      <trkpt lat="45.78365" lon="4.64183">
        <ele>632.79998779297</ele>
        <time>2021-09-28T07:31:44.650Z</time>
      </trkpt>
      <trkpt lat="45.7836" lon="4.64179">
        <ele>633.20001220703</ele>
        <time>2021-09-28T07:31:47.887Z</time>
      </trkpt>
      <trkpt lat="45.78354" lon="4.64175">
        <ele>633.59997558594</ele>
        <time>2021-09-28T07:31:51.126Z</time>
      </trkpt>
      <trkpt lat="45.78352" lon="4.64174">
        <ele>633.79998779297</ele>
        <time>2021-09-28T07:31:54.366Z</time>
      </trkpt>
      <trkpt lat="45.78344" lon="4.64167">
        <ele>634.40002441406</ele>
        <time>2021-09-28T07:31:57.609Z</time>
      </trkpt>
      <trkpt lat="45.78342" lon="4.64165">
        <ele>634.40002441406</ele>
        <time>2021-09-28T07:32:00.852Z</time>
      </trkpt>
      <trkpt lat="45.78333" lon="4.64159">
        <ele>635</ele>
        <time>2021-09-28T07:32:04.099Z</time>
      </trkpt>
      <trkpt lat="45.78329" lon="4.64155">
        <ele>635.20001220703</ele>
        <time>2021-09-28T07:32:07.348Z</time>
      </trkpt>
      <trkpt lat="45.78326" lon="4.64152">
        <ele>635.20001220703</ele>
        <time>2021-09-28T07:32:10.598Z</time>
      </trkpt>
      <trkpt lat="45.78324" lon="4.64151">
        <ele>635.40002441406</ele>
        <time>2021-09-28T07:32:13.848Z</time>
      </trkpt>
      <trkpt lat="45.78321" lon="4.64143">
        <ele>635.20001220703</ele>
        <time>2021-09-28T07:32:17.101Z</time>
      </trkpt>
      <trkpt lat="45.7832" lon="4.64142">
        <ele>635.20001220703</ele>
        <time>2021-09-28T07:32:20.354Z</time>
      </trkpt>
      <trkpt lat="45.78314" lon="4.64135">
        <ele>635.20001220703</ele>
        <time>2021-09-28T07:32:23.609Z</time>
      </trkpt>
      <trkpt lat="45.78301" lon="4.64118">
        <ele>633.20001220703</ele>
        <time>2021-09-28T07:32:26.870Z</time>
      </trkpt>
      <trkpt lat="45.78284" lon="4.64094">
        <ele>630.59997558594</ele>
        <time>2021-09-28T07:32:30.139Z</time>
      </trkpt>
      <trkpt lat="45.78272" lon="4.64078">
        <ele>628.79998779297</ele>
        <time>2021-09-28T07:32:33.414Z</time>
      </trkpt>
      <trkpt lat="45.78264" lon="4.64073">
        <ele>628.20001220703</ele>
        <time>2021-09-28T07:32:36.692Z</time>
      </trkpt>
      <trkpt lat="45.78236" lon="4.64057">
        <ele>625.79998779297</ele>
        <time>2021-09-28T07:32:39.980Z</time>
      </trkpt>
      <trkpt lat="45.7822" lon="4.6405">
        <ele>624</ele>
        <time>2021-09-28T07:32:43.273Z</time>
      </trkpt>
      <trkpt lat="45.78211" lon="4.64048">
        <ele>623.59997558594</ele>
        <time>2021-09-28T07:32:46.569Z</time>
      </trkpt>
      <trkpt lat="45.78199" lon="4.64045">
        <ele>623.40002441406</ele>
        <time>2021-09-28T07:32:49.869Z</time>
      </trkpt>
      <trkpt lat="45.78187" lon="4.64042">
        <ele>624.79998779297</ele>
        <time>2021-09-28T07:32:53.173Z</time>
      </trkpt>
      <trkpt lat="45.78177" lon="4.64036">
        <ele>625.40002441406</ele>
        <time>2021-09-28T07:32:56.481Z</time>
      </trkpt>
      <trkpt lat="45.78173" lon="4.64033">
        <ele>625.40002441406</ele>
        <time>2021-09-28T07:32:59.790Z</time>
      </trkpt>
      <trkpt lat="45.78165" lon="4.64027">
        <ele>625.59997558594</ele>
        <time>2021-09-28T07:33:03.103Z</time>
      </trkpt>
      <trkpt lat="45.78156" lon="4.6402">
        <ele>625.79998779297</ele>
        <time>2021-09-28T07:33:06.419Z</time>
      </trkpt>
      <trkpt lat="45.78149" lon="4.64011">
        <ele>625.20001220703</ele>
        <time>2021-09-28T07:33:09.738Z</time>
      </trkpt>
      <trkpt lat="45.78144" lon="4.64008">
        <ele>625</ele>
        <time>2021-09-28T07:33:13.059Z</time>
      </trkpt>
      <trkpt lat="45.78122" lon="4.64001">
        <ele>624.20001220703</ele>
        <time>2021-09-28T07:33:16.387Z</time>
      </trkpt>
      <trkpt lat="45.78117" lon="4.64001">
        <ele>624.40002441406</ele>
        <time>2021-09-28T07:33:19.717Z</time>
      </trkpt>
      <trkpt lat="45.78101" lon="4.64">
        <ele>624.79998779297</ele>
        <time>2021-09-28T07:33:23.052Z</time>
      </trkpt>
      <trkpt lat="45.78089" lon="4.63999">
        <ele>625</ele>
        <time>2021-09-28T07:33:26.392Z</time>
      </trkpt>
      <trkpt lat="45.7808" lon="4.63996">
        <ele>625.20001220703</ele>
        <time>2021-09-28T07:33:29.734Z</time>
      </trkpt>
      <trkpt lat="45.78075" lon="4.63995">
        <ele>625.40002441406</ele>
        <time>2021-09-28T07:33:33.078Z</time>
      </trkpt>
      <trkpt lat="45.78061" lon="4.63994">
        <ele>625.79998779297</ele>
        <time>2021-09-28T07:33:36.427Z</time>
      </trkpt>
      <trkpt lat="45.78053" lon="4.63988">
        <ele>624.59997558594</ele>
        <time>2021-09-28T07:33:39.779Z</time>
      </trkpt>
      <trkpt lat="45.78051" lon="4.63983">
        <ele>623.59997558594</ele>
        <time>2021-09-28T07:33:43.132Z</time>
      </trkpt>
      <trkpt lat="45.78049" lon="4.63974">
        <ele>621.59997558594</ele>
        <time>2021-09-28T07:33:46.487Z</time>
      </trkpt>
      <trkpt lat="45.78048" lon="4.63969">
        <ele>620.79998779297</ele>
        <time>2021-09-28T07:33:49.844Z</time>
      </trkpt>
      <trkpt lat="45.78041" lon="4.63959">
        <ele>618.79998779297</ele>
        <time>2021-09-28T07:33:53.204Z</time>
      </trkpt>
      <trkpt lat="45.78038" lon="4.63955">
        <ele>618.20001220703</ele>
        <time>2021-09-28T07:33:56.565Z</time>
      </trkpt>
      <trkpt lat="45.7803" lon="4.63945">
        <ele>616.79998779297</ele>
        <time>2021-09-28T07:33:59.930Z</time>
      </trkpt>
      <trkpt lat="45.78027" lon="4.63942">
        <ele>616.40002441406</ele>
        <time>2021-09-28T07:34:03.296Z</time>
      </trkpt>
      <trkpt lat="45.78019" lon="4.63935">
        <ele>615.79998779297</ele>
        <time>2021-09-28T07:34:06.665Z</time>
      </trkpt>
      <trkpt lat="45.78005" lon="4.6392">
        <ele>613.79998779297</ele>
        <time>2021-09-28T07:34:10.040Z</time>
      </trkpt>
      <trkpt lat="45.7799" lon="4.63907">
        <ele>612</ele>
        <time>2021-09-28T07:34:13.421Z</time>
      </trkpt>
      <trkpt lat="45.77978" lon="4.63893">
        <ele>610</ele>
        <time>2021-09-28T07:34:16.807Z</time>
      </trkpt>
      <trkpt lat="45.77973" lon="4.63881">
        <ele>607.20001220703</ele>
        <time>2021-09-28T07:34:20.196Z</time>
      </trkpt>
      <trkpt lat="45.77971" lon="4.63874">
        <ele>605.59997558594</ele>
        <time>2021-09-28T07:34:23.587Z</time>
      </trkpt>
      <trkpt lat="45.77966" lon="4.63868">
        <ele>604.20001220703</ele>
        <time>2021-09-28T07:34:26.980Z</time>
      </trkpt>
      <trkpt lat="45.77954" lon="4.63861">
        <ele>602</ele>
        <time>2021-09-28T07:34:30.378Z</time>
      </trkpt>
      <trkpt lat="45.77946" lon="4.63864">
        <ele>602.20001220703</ele>
        <time>2021-09-28T07:34:33.778Z</time>
      </trkpt>
      <trkpt lat="45.77943" lon="4.63863">
        <ele>602</ele>
        <time>2021-09-28T07:34:37.179Z</time>
      </trkpt>
      <trkpt lat="45.77931" lon="4.63863">
        <ele>601</ele>
        <time>2021-09-28T07:34:40.584Z</time>
      </trkpt>
      <trkpt lat="45.77925" lon="4.63861">
        <ele>600.20001220703</ele>
        <time>2021-09-28T07:34:43.992Z</time>
      </trkpt>
      <trkpt lat="45.77922" lon="4.6386">
        <ele>599.79998779297</ele>
        <time>2021-09-28T07:34:47.400Z</time>
      </trkpt>
      <trkpt lat="45.7792" lon="4.63859">
        <ele>599.40002441406</ele>
        <time>2021-09-28T07:34:50.809Z</time>
      </trkpt>
      <trkpt lat="45.77919" lon="4.63862">
        <ele>599.79998779297</ele>
        <time>2021-09-28T07:34:54.219Z</time>
      </trkpt>
      <trkpt lat="45.77914" lon="4.63859">
        <ele>598.59997558594</ele>
        <time>2021-09-28T07:34:57.631Z</time>
      </trkpt>
      <trkpt lat="45.77925" lon="4.63841">
        <ele>595.79998779297</ele>
        <time>2021-09-28T07:35:01.048Z</time>
      </trkpt>
      <trkpt lat="45.7793" lon="4.63836">
        <ele>594.79998779297</ele>
        <time>2021-09-28T07:35:04.467Z</time>
      </trkpt>
      <trkpt lat="45.77941" lon="4.63829">
        <ele>593.40002441406</ele>
        <time>2021-09-28T07:35:07.890Z</time>
      </trkpt>
      <trkpt lat="45.77946" lon="4.63826">
        <ele>593</ele>
        <time>2021-09-28T07:35:11.315Z</time>
      </trkpt>
      <trkpt lat="45.77955" lon="4.6382">
        <ele>592.40002441406</ele>
        <time>2021-09-28T07:35:14.743Z</time>
      </trkpt>
      <trkpt lat="45.7796" lon="4.6382">
        <ele>592.20001220703</ele>
        <time>2021-09-28T07:35:18.173Z</time>
      </trkpt>
      <trkpt lat="45.77989" lon="4.63812">
        <ele>588.59997558594</ele>
        <time>2021-09-28T07:35:21.613Z</time>
      </trkpt>
      <trkpt lat="45.77995" lon="4.63811">
        <ele>588</ele>
        <time>2021-09-28T07:35:25.055Z</time>
      </trkpt>
      <trkpt lat="45.78008" lon="4.63814">
        <ele>588.20001220703</ele>
        <time>2021-09-28T07:35:28.501Z</time>
      </trkpt>
      <trkpt lat="45.78021" lon="4.63816">
        <ele>588</ele>
        <time>2021-09-28T07:35:31.951Z</time>
      </trkpt>
      <trkpt lat="45.78031" lon="4.63817">
        <ele>587.79998779297</ele>
        <time>2021-09-28T07:35:35.405Z</time>
      </trkpt>
      <trkpt lat="45.78056" lon="4.63823">
        <ele>587</ele>
        <time>2021-09-28T07:35:38.867Z</time>
      </trkpt>
      <trkpt lat="45.78076" lon="4.63828">
        <ele>585</ele>
        <time>2021-09-28T07:35:42.336Z</time>
      </trkpt>
      <trkpt lat="45.78086" lon="4.63817">
        <ele>579.20001220703</ele>
        <time>2021-09-28T07:35:45.809Z</time>
      </trkpt>
      <trkpt lat="45.78092" lon="4.63802">
        <ele>573.20001220703</ele>
        <time>2021-09-28T07:35:49.286Z</time>
      </trkpt>
      <trkpt lat="45.78093" lon="4.63796">
        <ele>571.59997558594</ele>
        <time>2021-09-28T07:35:52.765Z</time>
      </trkpt>
      <trkpt lat="45.78093" lon="4.63777">
        <ele>566.79998779297</ele>
        <time>2021-09-28T07:35:56.248Z</time>
      </trkpt>
      <trkpt lat="45.78092" lon="4.63766">
        <ele>564.20001220703</ele>
        <time>2021-09-28T07:35:59.734Z</time>
      </trkpt>
      <trkpt lat="45.78091" lon="4.63725">
        <ele>555.79998779297</ele>
        <time>2021-09-28T07:36:03.229Z</time>
      </trkpt>
      <trkpt lat="45.78089" lon="4.63692">
        <ele>550.79998779297</ele>
        <time>2021-09-28T07:36:06.732Z</time>
      </trkpt>
      <trkpt lat="45.78084" lon="4.63668">
        <ele>546.79998779297</ele>
        <time>2021-09-28T07:36:10.241Z</time>
      </trkpt>
      <trkpt lat="45.78082" lon="4.6366">
        <ele>545.40002441406</ele>
        <time>2021-09-28T07:36:13.752Z</time>
      </trkpt>
      <trkpt lat="45.78081" lon="4.63652">
        <ele>544.20001220703</ele>
        <time>2021-09-28T07:36:17.265Z</time>
      </trkpt>
      <trkpt lat="45.78078" lon="4.63637">
        <ele>542</ele>
        <time>2021-09-28T07:36:20.781Z</time>
      </trkpt>
      <trkpt lat="45.78078" lon="4.63628">
        <ele>541</ele>
        <time>2021-09-28T07:36:24.299Z</time>
      </trkpt>
      <trkpt lat="45.78074" lon="4.63612">
        <ele>539.20001220703</ele>
        <time>2021-09-28T07:36:27.821Z</time>
      </trkpt>
      <trkpt lat="45.7807" lon="4.63594">
        <ele>537</ele>
        <time>2021-09-28T07:36:31.348Z</time>
      </trkpt>
      <trkpt lat="45.7807" lon="4.63587">
        <ele>536.79998779297</ele>
        <time>2021-09-28T07:36:34.876Z</time>
      </trkpt>
      <trkpt lat="45.7807" lon="4.63581">
        <ele>536.59997558594</ele>
        <time>2021-09-28T07:36:38.406Z</time>
      </trkpt>
      <trkpt lat="45.78065" lon="4.63559">
        <ele>535.20001220703</ele>
        <time>2021-09-28T07:36:41.941Z</time>
      </trkpt>
      <trkpt lat="45.78057" lon="4.63539">
        <ele>533.40002441406</ele>
        <time>2021-09-28T07:36:45.482Z</time>
      </trkpt>
      <trkpt lat="45.78053" lon="4.63532">
        <ele>532.59997558594</ele>
        <time>2021-09-28T07:36:49.025Z</time>
      </trkpt>
      <trkpt lat="45.78048" lon="4.63514">
        <ele>531.79998779297</ele>
        <time>2021-09-28T07:36:52.572Z</time>
      </trkpt>
      <trkpt lat="45.78045" lon="4.63504">
        <ele>531.40002441406</ele>
        <time>2021-09-28T07:36:56.122Z</time>
      </trkpt>
      <trkpt lat="45.78042" lon="4.63494">
        <ele>530.20001220703</ele>
        <time>2021-09-28T07:36:59.674Z</time>
      </trkpt>
      <trkpt lat="45.7803" lon="4.63463">
        <ele>526</ele>
        <time>2021-09-28T07:37:03.234Z</time>
      </trkpt>
      <trkpt lat="45.78028" lon="4.63454">
        <ele>524.59997558594</ele>
        <time>2021-09-28T07:37:06.797Z</time>
      </trkpt>
      <trkpt lat="45.78025" lon="4.63439">
        <ele>523</ele>
        <time>2021-09-28T07:37:10.363Z</time>
      </trkpt>
      <trkpt lat="45.78025" lon="4.63433">
        <ele>522.59997558594</ele>
        <time>2021-09-28T07:37:13.931Z</time>
      </trkpt>
      <trkpt lat="45.78021" lon="4.63419">
        <ele>520.79998779297</ele>
        <time>2021-09-28T07:37:17.502Z</time>
      </trkpt>
      <trkpt lat="45.78012" lon="4.63405">
        <ele>517.79998779297</ele>
        <time>2021-09-28T07:37:21.078Z</time>
      </trkpt>
      <trkpt lat="45.78011" lon="4.63395">
        <ele>517</ele>
        <time>2021-09-28T07:37:24.656Z</time>
      </trkpt>
      <trkpt lat="45.7801" lon="4.63385">
        <ele>516.20001220703</ele>
        <time>2021-09-28T07:37:28.236Z</time>
      </trkpt>
      <trkpt lat="45.78009" lon="4.63355">
        <ele>513.59997558594</ele>
        <time>2021-09-28T07:37:31.823Z</time>
      </trkpt>
      <trkpt lat="45.78007" lon="4.63337">
        <ele>511.79998779297</ele>
        <time>2021-09-28T07:37:35.414Z</time>
      </trkpt>
      <trkpt lat="45.78006" lon="4.63324">
        <ele>510.20001220703</ele>
        <time>2021-09-28T07:37:39.009Z</time>
      </trkpt>
      <trkpt lat="45.78005" lon="4.63318">
        <ele>509.20001220703</ele>
        <time>2021-09-28T07:37:42.605Z</time>
      </trkpt>
      <trkpt lat="45.78001" lon="4.63306">
        <ele>506.60000610352</ele>
        <time>2021-09-28T07:37:46.204Z</time>
      </trkpt>
      <trkpt lat="45.77998" lon="4.63299">
        <ele>504.79998779297</ele>
        <time>2021-09-28T07:37:49.805Z</time>
      </trkpt>
      <trkpt lat="45.77996" lon="4.63294">
        <ele>503.39999389648</ele>
        <time>2021-09-28T07:37:53.408Z</time>
      </trkpt>
      <trkpt lat="45.77992" lon="4.63286">
        <ele>501.39999389648</ele>
        <time>2021-09-28T07:37:57.013Z</time>
      </trkpt>
      <trkpt lat="45.77987" lon="4.63268">
        <ele>497.60000610352</ele>
        <time>2021-09-28T07:38:00.622Z</time>
      </trkpt>
      <trkpt lat="45.77985" lon="4.63262">
        <ele>496.60000610352</ele>
        <time>2021-09-28T07:38:04.233Z</time>
      </trkpt>
      <trkpt lat="45.77984" lon="4.63246">
        <ele>493.79998779297</ele>
        <time>2021-09-28T07:38:07.848Z</time>
      </trkpt>
      <trkpt lat="45.77984" lon="4.63229">
        <ele>491.39999389648</ele>
        <time>2021-09-28T07:38:11.466Z</time>
      </trkpt>
      <trkpt lat="45.77977" lon="4.63195">
        <ele>486.79998779297</ele>
        <time>2021-09-28T07:38:15.093Z</time>
      </trkpt>
      <trkpt lat="45.77974" lon="4.63178">
        <ele>484.79998779297</ele>
        <time>2021-09-28T07:38:18.724Z</time>
      </trkpt>
      <trkpt lat="45.77975" lon="4.63159">
        <ele>482.20001220703</ele>
        <time>2021-09-28T07:38:22.359Z</time>
      </trkpt>
      <trkpt lat="45.77978" lon="4.63141">
        <ele>479</ele>
        <time>2021-09-28T07:38:25.999Z</time>
      </trkpt>
      <trkpt lat="45.77982" lon="4.63124">
        <ele>478</ele>
        <time>2021-09-28T07:38:29.643Z</time>
      </trkpt>
      <trkpt lat="45.77983" lon="4.63112">
        <ele>477</ele>
        <time>2021-09-28T07:38:33.290Z</time>
      </trkpt>
      <trkpt lat="45.77984" lon="4.63105">
        <ele>476.20001220703</ele>
        <time>2021-09-28T07:38:36.938Z</time>
      </trkpt>
      <trkpt lat="45.77987" lon="4.63088">
        <ele>474.20001220703</ele>
        <time>2021-09-28T07:38:40.590Z</time>
      </trkpt>
      <trkpt lat="45.7799" lon="4.6308">
        <ele>474</ele>
        <time>2021-09-28T07:38:44.244Z</time>
      </trkpt>
      <trkpt lat="45.77996" lon="4.6305">
        <ele>471.20001220703</ele>
        <time>2021-09-28T07:38:47.906Z</time>
      </trkpt>
      <trkpt lat="45.78" lon="4.63031">
        <ele>469.20001220703</ele>
        <time>2021-09-28T07:38:51.572Z</time>
      </trkpt>
      <trkpt lat="45.78001" lon="4.63023">
        <ele>468.79998779297</ele>
        <time>2021-09-28T07:38:55.240Z</time>
      </trkpt>
      <trkpt lat="45.78003" lon="4.63015">
        <ele>467.79998779297</ele>
        <time>2021-09-28T07:38:58.910Z</time>
      </trkpt>
      <trkpt lat="45.78008" lon="4.63003">
        <ele>466</ele>
        <time>2021-09-28T07:39:02.583Z</time>
      </trkpt>
      <trkpt lat="45.78013" lon="4.62988">
        <ele>465.79998779297</ele>
        <time>2021-09-28T07:39:06.260Z</time>
      </trkpt>
      <trkpt lat="45.78018" lon="4.62971">
        <ele>464.79998779297</ele>
        <time>2021-09-28T07:39:09.942Z</time>
      </trkpt>
      <trkpt lat="45.78026" lon="4.62948">
        <ele>462.60000610352</ele>
        <time>2021-09-28T07:39:13.630Z</time>
      </trkpt>
      <trkpt lat="45.78027" lon="4.62934">
        <ele>461.79998779297</ele>
        <time>2021-09-28T07:39:17.321Z</time>
      </trkpt>
      <trkpt lat="45.78026" lon="4.62916">
        <ele>461</ele>
        <time>2021-09-28T07:39:21.016Z</time>
      </trkpt>
      <trkpt lat="45.78025" lon="4.62909">
        <ele>461</ele>
        <time>2021-09-28T07:39:24.713Z</time>
      </trkpt>
      <trkpt lat="45.78027" lon="4.62898">
        <ele>460.39999389648</ele>
        <time>2021-09-28T07:39:28.412Z</time>
      </trkpt>
      <trkpt lat="45.78034" lon="4.62875">
        <ele>458</ele>
        <time>2021-09-28T07:39:32.117Z</time>
      </trkpt>
      <trkpt lat="45.78047" lon="4.62855">
        <ele>455.79998779297</ele>
        <time>2021-09-28T07:39:35.829Z</time>
      </trkpt>
      <trkpt lat="45.78063" lon="4.62828">
        <ele>452.39999389648</ele>
        <time>2021-09-28T07:39:39.549Z</time>
      </trkpt>
      <trkpt lat="45.78074" lon="4.62804">
        <ele>449.79998779297</ele>
        <time>2021-09-28T07:39:43.276Z</time>
      </trkpt>
      <trkpt lat="45.78085" lon="4.62777">
        <ele>449.39999389648</ele>
        <time>2021-09-28T07:39:47.010Z</time>
      </trkpt>
      <trkpt lat="45.78089" lon="4.62764">
        <ele>449.60000610352</ele>
        <time>2021-09-28T07:39:50.747Z</time>
      </trkpt>
      <trkpt lat="45.78094" lon="4.62744">
        <ele>452</ele>
        <time>2021-09-28T07:39:54.489Z</time>
      </trkpt>
      <trkpt lat="45.78095" lon="4.62738">
        <ele>453.20001220703</ele>
        <time>2021-09-28T07:39:58.233Z</time>
      </trkpt>
      <trkpt lat="45.78099" lon="4.62726">
        <ele>454.39999389648</ele>
        <time>2021-09-28T07:40:01.980Z</time>
      </trkpt>
      <trkpt lat="45.78104" lon="4.6271">
        <ele>456.79998779297</ele>
        <time>2021-09-28T07:40:05.731Z</time>
      </trkpt>
      <trkpt lat="45.78114" lon="4.62685">
        <ele>459.20001220703</ele>
        <time>2021-09-28T07:40:09.488Z</time>
      </trkpt>
      <trkpt lat="45.78118" lon="4.62675">
        <ele>460</ele>
        <time>2021-09-28T07:40:13.248Z</time>
      </trkpt>
      <trkpt lat="45.78123" lon="4.62666">
        <ele>460.20001220703</ele>
        <time>2021-09-28T07:40:17.011Z</time>
      </trkpt>
      <trkpt lat="45.78134" lon="4.62646">
        <ele>460.79998779297</ele>
        <time>2021-09-28T07:40:20.780Z</time>
      </trkpt>
      <trkpt lat="45.78144" lon="4.62631">
        <ele>460.20001220703</ele>
        <time>2021-09-28T07:40:24.553Z</time>
      </trkpt>
      <trkpt lat="45.78155" lon="4.62613">
        <ele>459.79998779297</ele>
        <time>2021-09-28T07:40:28.332Z</time>
      </trkpt>
      <trkpt lat="45.78164" lon="4.62603">
        <ele>458.39999389648</ele>
        <time>2021-09-28T07:40:32.115Z</time>
      </trkpt>
      <trkpt lat="45.78171" lon="4.62596">
        <ele>457.60000610352</ele>
        <time>2021-09-28T07:40:35.901Z</time>
      </trkpt>
      <trkpt lat="45.7819" lon="4.62574">
        <ele>455.20001220703</ele>
        <time>2021-09-28T07:40:39.695Z</time>
      </trkpt>
      <trkpt lat="45.78208" lon="4.62548">
        <ele>453.39999389648</ele>
        <time>2021-09-28T07:40:43.497Z</time>
      </trkpt>
      <trkpt lat="45.78219" lon="4.62524">
        <ele>452.20001220703</ele>
        <time>2021-09-28T07:40:47.306Z</time>
      </trkpt>
      <trkpt lat="45.78228" lon="4.62489">
        <ele>451.79998779297</ele>
        <time>2021-09-28T07:40:51.124Z</time>
      </trkpt>
      <trkpt lat="45.7824" lon="4.62454">
        <ele>452.39999389648</ele>
        <time>2021-09-28T07:40:54.951Z</time>
      </trkpt>
      <trkpt lat="45.78249" lon="4.62432">
        <ele>452.60000610352</ele>
        <time>2021-09-28T07:40:58.784Z</time>
      </trkpt>
      <trkpt lat="45.78254" lon="4.62411">
        <ele>452.79998779297</ele>
        <time>2021-09-28T07:41:02.622Z</time>
      </trkpt>
      <trkpt lat="45.78256" lon="4.62392">
        <ele>452</ele>
        <time>2021-09-28T07:41:06.464Z</time>
      </trkpt>
      <trkpt lat="45.78255" lon="4.6239">
        <ele>451.79998779297</ele>
        <time>2021-09-28T07:41:10.307Z</time>
      </trkpt>
      <trkpt lat="45.78254" lon="4.62389">
        <ele>451.79998779297</ele>
        <time>2021-09-28T07:41:14.150Z</time>
      </trkpt>
      <trkpt lat="45.78251" lon="4.62392">
        <ele>452.20001220703</ele>
        <time>2021-09-28T07:41:17.994Z</time>
      </trkpt>
      <trkpt lat="45.78239" lon="4.62403">
        <ele>453</ele>
        <time>2021-09-28T07:41:21.843Z</time>
      </trkpt>
      <trkpt lat="45.78226" lon="4.62414">
        <ele>453</ele>
        <time>2021-09-28T07:41:25.697Z</time>
      </trkpt>
      <trkpt lat="45.78212" lon="4.62427">
        <ele>455.20001220703</ele>
        <time>2021-09-28T07:41:29.557Z</time>
      </trkpt>
      <trkpt lat="45.78203" lon="4.6244">
        <ele>456</ele>
        <time>2021-09-28T07:41:33.421Z</time>
      </trkpt>
      <trkpt lat="45.78189" lon="4.62453">
        <ele>458</ele>
        <time>2021-09-28T07:41:37.291Z</time>
      </trkpt>
      <trkpt lat="45.78179" lon="4.6246">
        <ele>459.60000610352</ele>
        <time>2021-09-28T07:41:41.164Z</time>
      </trkpt>
      <trkpt lat="45.78171" lon="4.6247">
        <ele>461</ele>
        <time>2021-09-28T07:41:45.041Z</time>
      </trkpt>
      <trkpt lat="45.78163" lon="4.62476">
        <ele>462.39999389648</ele>
        <time>2021-09-28T07:41:48.921Z</time>
      </trkpt>
      <trkpt lat="45.78155" lon="4.62484">
        <ele>463.60000610352</ele>
        <time>2021-09-28T07:41:52.804Z</time>
      </trkpt>
      <trkpt lat="45.78153" lon="4.62487">
        <ele>464.20001220703</ele>
        <time>2021-09-28T07:41:56.688Z</time>
      </trkpt>
      <trkpt lat="45.78149" lon="4.62492">
        <ele>464.79998779297</ele>
        <time>2021-09-28T07:42:00.574Z</time>
      </trkpt>
      <trkpt lat="45.78138" lon="4.62504">
        <ele>467</ele>
        <time>2021-09-28T07:42:04.464Z</time>
      </trkpt>
      <trkpt lat="45.7813" lon="4.62513">
        <ele>468.39999389648</ele>
        <time>2021-09-28T07:42:08.358Z</time>
      </trkpt>
      <trkpt lat="45.78122" lon="4.62521">
        <ele>470</ele>
        <time>2021-09-28T07:42:12.255Z</time>
      </trkpt>
      <trkpt lat="45.78117" lon="4.62528">
        <ele>471</ele>
        <time>2021-09-28T07:42:16.154Z</time>
      </trkpt>
      <trkpt lat="45.78115" lon="4.6253">
        <ele>471.39999389648</ele>
        <time>2021-09-28T07:42:20.054Z</time>
      </trkpt>
      <trkpt lat="45.7811" lon="4.62534">
        <ele>472</ele>
        <time>2021-09-28T07:42:23.956Z</time>
      </trkpt>
      <trkpt lat="45.78103" lon="4.6254">
        <ele>473.39999389648</ele>
        <time>2021-09-28T07:42:27.861Z</time>
      </trkpt>
      <trkpt lat="45.78095" lon="4.62548">
        <ele>474.39999389648</ele>
        <time>2021-09-28T07:42:31.769Z</time>
      </trkpt>
      <trkpt lat="45.78088" lon="4.62556">
        <ele>475</ele>
        <time>2021-09-28T07:42:35.680Z</time>
      </trkpt>
      <trkpt lat="45.78086" lon="4.62558">
        <ele>475.20001220703</ele>
        <time>2021-09-28T07:42:39.592Z</time>
      </trkpt>
      <trkpt lat="45.78077" lon="4.62568">
        <ele>475.39999389648</ele>
        <time>2021-09-28T07:42:43.508Z</time>
      </trkpt>
      <trkpt lat="45.78068" lon="4.62579">
        <ele>476.39999389648</ele>
        <time>2021-09-28T07:42:47.428Z</time>
      </trkpt>
      <trkpt lat="45.78057" lon="4.62591">
        <ele>477.39999389648</ele>
        <time>2021-09-28T07:42:51.352Z</time>
      </trkpt>
      <trkpt lat="45.78045" lon="4.626">
        <ele>478.39999389648</ele>
        <time>2021-09-28T07:42:55.281Z</time>
      </trkpt>
      <trkpt lat="45.78034" lon="4.62607">
        <ele>479.79998779297</ele>
        <time>2021-09-28T07:42:59.214Z</time>
      </trkpt>
      <trkpt lat="45.78024" lon="4.62611">
        <ele>481</ele>
        <time>2021-09-28T07:43:03.150Z</time>
      </trkpt>
      <trkpt lat="45.78014" lon="4.62617">
        <ele>482.39999389648</ele>
        <time>2021-09-28T07:43:07.090Z</time>
      </trkpt>
      <trkpt lat="45.78002" lon="4.62621">
        <ele>484.20001220703</ele>
        <time>2021-09-28T07:43:11.034Z</time>
      </trkpt>
      <trkpt lat="45.77999" lon="4.62621">
        <ele>484.79998779297</ele>
        <time>2021-09-28T07:43:14.979Z</time>
      </trkpt>
      <trkpt lat="45.77995" lon="4.62623">
        <ele>485.60000610352</ele>
        <time>2021-09-28T07:43:18.926Z</time>
      </trkpt>
      <trkpt lat="45.77984" lon="4.62625">
        <ele>487.79998779297</ele>
        <time>2021-09-28T07:43:22.876Z</time>
      </trkpt>
      <trkpt lat="45.77974" lon="4.62625">
        <ele>489.20001220703</ele>
        <time>2021-09-28T07:43:26.830Z</time>
      </trkpt>
      <trkpt lat="45.77965" lon="4.62626">
        <ele>490.60000610352</ele>
        <time>2021-09-28T07:43:30.787Z</time>
      </trkpt>
      <trkpt lat="45.77955" lon="4.62629">
        <ele>492.79998779297</ele>
        <time>2021-09-28T07:43:34.747Z</time>
      </trkpt>
      <trkpt lat="45.77946" lon="4.62632">
        <ele>495</ele>
        <time>2021-09-28T07:43:38.710Z</time>
      </trkpt>
      <trkpt lat="45.7794" lon="4.62634">
        <ele>496.39999389648</ele>
        <time>2021-09-28T07:43:42.675Z</time>
      </trkpt>
      <trkpt lat="45.77939" lon="4.62635">
        <ele>496.60000610352</ele>
        <time>2021-09-28T07:43:46.640Z</time>
      </trkpt>
      <trkpt lat="45.77937" lon="4.62635">
        <ele>497</ele>
        <time>2021-09-28T07:43:50.606Z</time>
      </trkpt>
      <trkpt lat="45.77933" lon="4.62636">
        <ele>497.79998779297</ele>
        <time>2021-09-28T07:43:54.573Z</time>
      </trkpt>
      <trkpt lat="45.7793" lon="4.62637">
        <ele>498.39999389648</ele>
        <time>2021-09-28T07:43:58.541Z</time>
      </trkpt>
      <trkpt lat="45.77927" lon="4.62638">
        <ele>499</ele>
        <time>2021-09-28T07:44:02.510Z</time>
      </trkpt>
      <trkpt lat="45.7792" lon="4.6264">
        <ele>500.39999389648</ele>
        <time>2021-09-28T07:44:06.482Z</time>
      </trkpt>
      <trkpt lat="45.77918" lon="4.62641">
        <ele>500.79998779297</ele>
        <time>2021-09-28T07:44:10.455Z</time>
      </trkpt>
      <trkpt lat="45.77915" lon="4.62642">
        <ele>501.20001220703</ele>
        <time>2021-09-28T07:44:14.429Z</time>
      </trkpt>
      <trkpt lat="45.7791" lon="4.62643">
        <ele>502</ele>
        <time>2021-09-28T07:44:18.404Z</time>
      </trkpt>
      <trkpt lat="45.77908" lon="4.62643">
        <ele>502.39999389648</ele>
        <time>2021-09-28T07:44:22.380Z</time>
      </trkpt>
      <trkpt lat="45.77901" lon="4.62645">
        <ele>503.60000610352</ele>
        <time>2021-09-28T07:44:26.358Z</time>
      </trkpt>
      <trkpt lat="45.77894" lon="4.62646">
        <ele>504.60000610352</ele>
        <time>2021-09-28T07:44:30.339Z</time>
      </trkpt>
      <trkpt lat="45.77889" lon="4.62647">
        <ele>505.39999389648</ele>
        <time>2021-09-28T07:44:34.321Z</time>
      </trkpt>
      <trkpt lat="45.77886" lon="4.62648">
        <ele>505.79998779297</ele>
        <time>2021-09-28T07:44:38.304Z</time>
      </trkpt>
      <trkpt lat="45.77884" lon="4.62649">
        <ele>506.39999389648</ele>
        <time>2021-09-28T07:44:42.288Z</time>
      </trkpt>
      <trkpt lat="45.77878" lon="4.62652">
        <ele>507.20001220703</ele>
        <time>2021-09-28T07:44:46.274Z</time>
      </trkpt>
      <trkpt lat="45.77877" lon="4.62652">
        <ele>507.39999389648</ele>
        <time>2021-09-28T07:44:50.260Z</time>
      </trkpt>
      <trkpt lat="45.77876" lon="4.62653">
        <ele>507.79998779297</ele>
        <time>2021-09-28T07:44:54.247Z</time>
      </trkpt>
      <trkpt lat="45.77874" lon="4.62653">
        <ele>508</ele>
        <time>2021-09-28T07:44:58.235Z</time>
      </trkpt>
      <trkpt lat="45.77873" lon="4.62653">
        <ele>508.20001220703</ele>
        <time>2021-09-28T07:45:02.223Z</time>
      </trkpt>
      <trkpt lat="45.77872" lon="4.62653">
        <ele>508.39999389648</ele>
        <time>2021-09-28T07:45:06.211Z</time>
      </trkpt>
      <trkpt lat="45.77868" lon="4.62655">
        <ele>509</ele>
        <time>2021-09-28T07:45:10.201Z</time>
      </trkpt>
      <trkpt lat="45.77868" lon="4.62655">
        <ele>509.20001220703</ele>
        <time>2021-09-28T07:45:14.191Z</time>
      </trkpt>
      <trkpt lat="45.77865" lon="4.62654">
        <ele>509.79998779297</ele>
        <time>2021-09-28T07:45:18.182Z</time>
      </trkpt>
      <trkpt lat="45.77861" lon="4.62656">
        <ele>510.79998779297</ele>
        <time>2021-09-28T07:45:22.174Z</time>
      </trkpt>
      <trkpt lat="45.77854" lon="4.6266">
        <ele>512.20001220703</ele>
        <time>2021-09-28T07:45:26.168Z</time>
      </trkpt>
      <trkpt lat="45.77846" lon="4.62661">
        <ele>513.79998779297</ele>
        <time>2021-09-28T07:45:30.165Z</time>
      </trkpt>
      <trkpt lat="45.77836" lon="4.62664">
        <ele>516.20001220703</ele>
        <time>2021-09-28T07:45:34.166Z</time>
      </trkpt>
      <trkpt lat="45.77826" lon="4.62666">
        <ele>518.59997558594</ele>
        <time>2021-09-28T07:45:38.170Z</time>
      </trkpt>
      <trkpt lat="45.77816" lon="4.62668">
        <ele>521.20001220703</ele>
        <time>2021-09-28T07:45:42.177Z</time>
      </trkpt>
      <trkpt lat="45.77808" lon="4.62671">
        <ele>523</ele>
        <time>2021-09-28T07:45:46.187Z</time>
      </trkpt>
      <trkpt lat="45.778" lon="4.62673">
        <ele>524.20001220703</ele>
        <time>2021-09-28T07:45:50.200Z</time>
      </trkpt>
      <trkpt lat="45.77794" lon="4.62674">
        <ele>525.40002441406</ele>
        <time>2021-09-28T07:45:54.215Z</time>
      </trkpt>
      <trkpt lat="45.77792" lon="4.62675">
        <ele>525.59997558594</ele>
        <time>2021-09-28T07:45:58.230Z</time>
      </trkpt>
      <trkpt lat="45.77778" lon="4.62678">
        <ele>527.20001220703</ele>
        <time>2021-09-28T07:46:02.250Z</time>
      </trkpt>
      <trkpt lat="45.77776" lon="4.62679">
        <ele>527.40002441406</ele>
        <time>2021-09-28T07:46:06.271Z</time>
      </trkpt>
      <trkpt lat="45.77766" lon="4.62683">
        <ele>528.59997558594</ele>
        <time>2021-09-28T07:46:10.296Z</time>
      </trkpt>
      <trkpt lat="45.77755" lon="4.62687">
        <ele>530.59997558594</ele>
        <time>2021-09-28T07:46:14.324Z</time>
      </trkpt>
      <trkpt lat="45.77747" lon="4.6269">
        <ele>532.20001220703</ele>
        <time>2021-09-28T07:46:18.355Z</time>
      </trkpt>
      <trkpt lat="45.77741" lon="4.62695">
        <ele>533.59997558594</ele>
        <time>2021-09-28T07:46:22.388Z</time>
      </trkpt>
      <trkpt lat="45.77724" lon="4.62712">
        <ele>536</ele>
        <time>2021-09-28T07:46:26.428Z</time>
      </trkpt>
      <trkpt lat="45.77721" lon="4.62714">
        <ele>536.59997558594</ele>
        <time>2021-09-28T07:46:30.469Z</time>
      </trkpt>
      <trkpt lat="45.77712" lon="4.62719">
        <ele>539</ele>
        <time>2021-09-28T07:46:34.513Z</time>
      </trkpt>
      <trkpt lat="45.77707" lon="4.62724">
        <ele>540.40002441406</ele>
        <time>2021-09-28T07:46:38.559Z</time>
      </trkpt>
      <trkpt lat="45.77705" lon="4.62725">
        <ele>541.20001220703</ele>
        <time>2021-09-28T07:46:42.606Z</time>
      </trkpt>
      <trkpt lat="45.77704" lon="4.62727">
        <ele>541.20001220703</ele>
        <time>2021-09-28T07:46:46.654Z</time>
      </trkpt>
      <trkpt lat="45.777" lon="4.62731">
        <ele>541.79998779297</ele>
        <time>2021-09-28T07:46:50.703Z</time>
      </trkpt>
      <trkpt lat="45.77697" lon="4.62734">
        <ele>542.79998779297</ele>
        <time>2021-09-28T07:46:54.754Z</time>
      </trkpt>
      <trkpt lat="45.77689" lon="4.62738">
        <ele>544.79998779297</ele>
        <time>2021-09-28T07:46:58.807Z</time>
      </trkpt>
      <trkpt lat="45.77687" lon="4.62739">
        <ele>545.59997558594</ele>
        <time>2021-09-28T07:47:02.861Z</time>
      </trkpt>
      <trkpt lat="45.77683" lon="4.62741">
        <ele>547</ele>
        <time>2021-09-28T07:47:06.917Z</time>
      </trkpt>
      <trkpt lat="45.77676" lon="4.62748">
        <ele>549</ele>
        <time>2021-09-28T07:47:10.975Z</time>
      </trkpt>
      <trkpt lat="45.77672" lon="4.62757">
        <ele>549.40002441406</ele>
        <time>2021-09-28T07:47:15.036Z</time>
      </trkpt>
      <trkpt lat="45.7767" lon="4.62759">
        <ele>549.59997558594</ele>
        <time>2021-09-28T07:47:19.098Z</time>
      </trkpt>
      <trkpt lat="45.77665" lon="4.62766">
        <ele>550.59997558594</ele>
        <time>2021-09-28T07:47:23.162Z</time>
      </trkpt>
      <trkpt lat="45.77663" lon="4.62767">
        <ele>551</ele>
        <time>2021-09-28T07:47:27.227Z</time>
      </trkpt>
      <trkpt lat="45.77661" lon="4.62772">
        <ele>551</ele>
        <time>2021-09-28T07:47:31.293Z</time>
      </trkpt>
      <trkpt lat="45.7766" lon="4.62773">
        <ele>551.40002441406</ele>
        <time>2021-09-28T07:47:35.360Z</time>
      </trkpt>
      <trkpt lat="45.77657" lon="4.62777">
        <ele>551.40002441406</ele>
        <time>2021-09-28T07:47:39.428Z</time>
      </trkpt>
      <trkpt lat="45.77656" lon="4.62779">
        <ele>551.59997558594</ele>
        <time>2021-09-28T07:47:43.496Z</time>
      </trkpt>
      <trkpt lat="45.77654" lon="4.62784">
        <ele>551.79998779297</ele>
        <time>2021-09-28T07:47:47.566Z</time>
      </trkpt>
      <trkpt lat="45.77653" lon="4.62786">
        <ele>551.79998779297</ele>
        <time>2021-09-28T07:47:51.636Z</time>
      </trkpt>
      <trkpt lat="45.77648" lon="4.62792">
        <ele>552.59997558594</ele>
        <time>2021-09-28T07:47:55.708Z</time>
      </trkpt>
      <trkpt lat="45.77642" lon="4.62795">
        <ele>554.40002441406</ele>
        <time>2021-09-28T07:47:59.783Z</time>
      </trkpt>
      <trkpt lat="45.77637" lon="4.62798">
        <ele>555.59997558594</ele>
        <time>2021-09-28T07:48:03.859Z</time>
      </trkpt>
      <trkpt lat="45.77636" lon="4.62801">
        <ele>555.20001220703</ele>
        <time>2021-09-28T07:48:07.936Z</time>
      </trkpt>
      <trkpt lat="45.77635" lon="4.62805">
        <ele>554.59997558594</ele>
        <time>2021-09-28T07:48:12.014Z</time>
      </trkpt>
      <trkpt lat="45.77635" lon="4.62807">
        <ele>554.20001220703</ele>
        <time>2021-09-28T07:48:16.093Z</time>
      </trkpt>
      <trkpt lat="45.77633" lon="4.62816">
        <ele>554</ele>
        <time>2021-09-28T07:48:20.174Z</time>
      </trkpt>
      <trkpt lat="45.77631" lon="4.62822">
        <ele>554.20001220703</ele>
        <time>2021-09-28T07:48:24.256Z</time>
      </trkpt>
      <trkpt lat="45.7763" lon="4.62824">
        <ele>554.20001220703</ele>
        <time>2021-09-28T07:48:28.339Z</time>
      </trkpt>
      <trkpt lat="45.77632" lon="4.62839">
        <ele>552.59997558594</ele>
        <time>2021-09-28T07:48:32.425Z</time>
      </trkpt>
      <trkpt lat="45.77633" lon="4.62841">
        <ele>552.20001220703</ele>
        <time>2021-09-28T07:48:36.512Z</time>
      </trkpt>
      <trkpt lat="45.77629" lon="4.62865">
        <ele>554.79998779297</ele>
        <time>2021-09-28T07:48:40.605Z</time>
      </trkpt>
      <trkpt lat="45.7763" lon="4.62868">
        <ele>554.40002441406</ele>
        <time>2021-09-28T07:48:44.698Z</time>
      </trkpt>
      <trkpt lat="45.77634" lon="4.62878">
        <ele>553.40002441406</ele>
        <time>2021-09-28T07:48:48.794Z</time>
      </trkpt>
      <trkpt lat="45.77635" lon="4.62881">
        <ele>553.20001220703</ele>
        <time>2021-09-28T07:48:52.891Z</time>
      </trkpt>
      <trkpt lat="45.77637" lon="4.62887">
        <ele>553.20001220703</ele>
        <time>2021-09-28T07:48:56.990Z</time>
      </trkpt>
      <trkpt lat="45.77638" lon="4.62891">
        <ele>552.79998779297</ele>
        <time>2021-09-28T07:49:01.090Z</time>
      </trkpt>
      <trkpt lat="45.77639" lon="4.62893">
        <ele>552.40002441406</ele>
        <time>2021-09-28T07:49:05.190Z</time>
      </trkpt>
      <trkpt lat="45.77643" lon="4.62898">
        <ele>551.59997558594</ele>
        <time>2021-09-28T07:49:09.292Z</time>
      </trkpt>
      <trkpt lat="45.77644" lon="4.62899">
        <ele>551.40002441406</ele>
        <time>2021-09-28T07:49:13.394Z</time>
      </trkpt>
      <trkpt lat="45.77646" lon="4.62907">
        <ele>551.20001220703</ele>
        <time>2021-09-28T07:49:17.498Z</time>
      </trkpt>
      <trkpt lat="45.77649" lon="4.62916">
        <ele>551.20001220703</ele>
        <time>2021-09-28T07:49:21.605Z</time>
      </trkpt>
      <trkpt lat="45.7765" lon="4.62922">
        <ele>551.79998779297</ele>
        <time>2021-09-28T07:49:25.713Z</time>
      </trkpt>
      <trkpt lat="45.77654" lon="4.62933">
        <ele>551.40002441406</ele>
        <time>2021-09-28T07:49:29.824Z</time>
      </trkpt>
      <trkpt lat="45.77656" lon="4.62935">
        <ele>551</ele>
        <time>2021-09-28T07:49:33.936Z</time>
      </trkpt>
      <trkpt lat="45.77659" lon="4.62941">
        <ele>550.20001220703</ele>
        <time>2021-09-28T07:49:38.049Z</time>
      </trkpt>
      <trkpt lat="45.77662" lon="4.62948">
        <ele>549.79998779297</ele>
        <time>2021-09-28T07:49:42.164Z</time>
      </trkpt>
      <trkpt lat="45.77664" lon="4.62956">
        <ele>550.59997558594</ele>
        <time>2021-09-28T07:49:46.281Z</time>
      </trkpt>
      <trkpt lat="45.77666" lon="4.62959">
        <ele>550.79998779297</ele>
        <time>2021-09-28T07:49:50.399Z</time>
      </trkpt>
      <trkpt lat="45.7767" lon="4.62971">
        <ele>551.59997558594</ele>
        <time>2021-09-28T07:49:54.520Z</time>
      </trkpt>
      <trkpt lat="45.77672" lon="4.62975">
        <ele>551.59997558594</ele>
        <time>2021-09-28T07:49:58.642Z</time>
      </trkpt>
      <trkpt lat="45.77706" lon="4.63032">
        <ele>557.40002441406</ele>
        <time>2021-09-28T07:50:02.782Z</time>
      </trkpt>
      <trkpt lat="45.77708" lon="4.63039">
        <ele>558.20001220703</ele>
        <time>2021-09-28T07:50:06.924Z</time>
      </trkpt>
      <trkpt lat="45.77709" lon="4.63041">
        <ele>558.20001220703</ele>
        <time>2021-09-28T07:50:11.066Z</time>
      </trkpt>
      <trkpt lat="45.77711" lon="4.63048">
        <ele>558.79998779297</ele>
        <time>2021-09-28T07:50:15.210Z</time>
      </trkpt>
      <trkpt lat="45.77711" lon="4.63052">
        <ele>559.20001220703</ele>
        <time>2021-09-28T07:50:19.355Z</time>
      </trkpt>
      <trkpt lat="45.77711" lon="4.63056">
        <ele>559.79998779297</ele>
        <time>2021-09-28T07:50:23.501Z</time>
      </trkpt>
      <trkpt lat="45.7771" lon="4.63063">
        <ele>560.59997558594</ele>
        <time>2021-09-28T07:50:27.649Z</time>
      </trkpt>
      <trkpt lat="45.7771" lon="4.63064">
        <ele>560.59997558594</ele>
        <time>2021-09-28T07:50:31.797Z</time>
      </trkpt>
      <trkpt lat="45.77709" lon="4.63072">
        <ele>562</ele>
        <time>2021-09-28T07:50:35.947Z</time>
      </trkpt>
      <trkpt lat="45.77711" lon="4.6308">
        <ele>563.20001220703</ele>
        <time>2021-09-28T07:50:40.099Z</time>
      </trkpt>
      <trkpt lat="45.7771" lon="4.63085">
        <ele>564</ele>
        <time>2021-09-28T07:50:44.252Z</time>
      </trkpt>
      <trkpt lat="45.7771" lon="4.63086">
        <ele>564.40002441406</ele>
        <time>2021-09-28T07:50:48.405Z</time>
      </trkpt>
      <trkpt lat="45.77711" lon="4.6309">
        <ele>565.20001220703</ele>
        <time>2021-09-28T07:50:52.559Z</time>
      </trkpt>
      <trkpt lat="45.77711" lon="4.63094">
        <ele>565.79998779297</ele>
        <time>2021-09-28T07:50:56.714Z</time>
      </trkpt>
      <trkpt lat="45.77711" lon="4.63096">
        <ele>566.20001220703</ele>
        <time>2021-09-28T07:51:00.870Z</time>
      </trkpt>
      <trkpt lat="45.77711" lon="4.63104">
        <ele>568</ele>
        <time>2021-09-28T07:51:05.027Z</time>
      </trkpt>
      <trkpt lat="45.77712" lon="4.63108">
        <ele>568.79998779297</ele>
        <time>2021-09-28T07:51:09.185Z</time>
      </trkpt>
      <trkpt lat="45.77713" lon="4.6311">
        <ele>569.20001220703</ele>
        <time>2021-09-28T07:51:13.344Z</time>
      </trkpt>
      <trkpt lat="45.77711" lon="4.63116">
        <ele>570.79998779297</ele>
        <time>2021-09-28T07:51:17.504Z</time>
      </trkpt>
      <trkpt lat="45.77712" lon="4.6312">
        <ele>571.59997558594</ele>
        <time>2021-09-28T07:51:21.665Z</time>
      </trkpt>
      <trkpt lat="45.77713" lon="4.63125">
        <ele>572</ele>
        <time>2021-09-28T07:51:25.827Z</time>
      </trkpt>
      <trkpt lat="45.77712" lon="4.63132">
        <ele>574.40002441406</ele>
        <time>2021-09-28T07:51:29.991Z</time>
      </trkpt>
      <trkpt lat="45.7771" lon="4.6314">
        <ele>577.20001220703</ele>
        <time>2021-09-28T07:51:34.157Z</time>
      </trkpt>
      <trkpt lat="45.77712" lon="4.63144">
        <ele>577.59997558594</ele>
        <time>2021-09-28T07:51:38.324Z</time>
      </trkpt>
      <trkpt lat="45.77712" lon="4.63148">
        <ele>577.40002441406</ele>
        <time>2021-09-28T07:51:42.492Z</time>
      </trkpt>
      <trkpt lat="45.7771" lon="4.63154">
        <ele>578.79998779297</ele>
        <time>2021-09-28T07:51:46.662Z</time>
      </trkpt>
      <trkpt lat="45.77711" lon="4.63162">
        <ele>579.20001220703</ele>
        <time>2021-09-28T07:51:50.833Z</time>
      </trkpt>
      <trkpt lat="45.77712" lon="4.63176">
        <ele>579.40002441406</ele>
        <time>2021-09-28T07:51:55.008Z</time>
      </trkpt>
      <trkpt lat="45.77712" lon="4.63178">
        <ele>579.20001220703</ele>
        <time>2021-09-28T07:51:59.183Z</time>
      </trkpt>
      <trkpt lat="45.77712" lon="4.63182">
        <ele>579.40002441406</ele>
        <time>2021-09-28T07:52:03.359Z</time>
      </trkpt>
      <trkpt lat="45.77712" lon="4.63186">
        <ele>579.20001220703</ele>
        <time>2021-09-28T07:52:07.536Z</time>
      </trkpt>
      <trkpt lat="45.77712" lon="4.63189">
        <ele>579.20001220703</ele>
        <time>2021-09-28T07:52:11.714Z</time>
      </trkpt>
      <trkpt lat="45.77712" lon="4.63195">
        <ele>579</ele>
        <time>2021-09-28T07:52:15.893Z</time>
      </trkpt>
      <trkpt lat="45.77711" lon="4.63202">
        <ele>579</ele>
        <time>2021-09-28T07:52:20.074Z</time>
      </trkpt>
      <trkpt lat="45.77711" lon="4.63211">
        <ele>579</ele>
        <time>2021-09-28T07:52:24.257Z</time>
      </trkpt>
      <trkpt lat="45.77708" lon="4.63219">
        <ele>580</ele>
        <time>2021-09-28T07:52:28.442Z</time>
      </trkpt>
      <trkpt lat="45.77708" lon="4.63222">
        <ele>580.40002441406</ele>
        <time>2021-09-28T07:52:32.628Z</time>
      </trkpt>
      <trkpt lat="45.77706" lon="4.63224">
        <ele>581</ele>
        <time>2021-09-28T07:52:36.814Z</time>
      </trkpt>
      <trkpt lat="45.77703" lon="4.63228">
        <ele>582.40002441406</ele>
        <time>2021-09-28T07:52:41.002Z</time>
      </trkpt>
      <trkpt lat="45.77703" lon="4.63231">
        <ele>582.20001220703</ele>
        <time>2021-09-28T07:52:45.191Z</time>
      </trkpt>
      <trkpt lat="45.77702" lon="4.63239">
        <ele>582.20001220703</ele>
        <time>2021-09-28T07:52:49.381Z</time>
      </trkpt>
      <trkpt lat="45.77699" lon="4.63243">
        <ele>583.20001220703</ele>
        <time>2021-09-28T07:52:53.573Z</time>
      </trkpt>
      <trkpt lat="45.77696" lon="4.63247">
        <ele>584</ele>
        <time>2021-09-28T07:52:57.766Z</time>
      </trkpt>
      <trkpt lat="45.77691" lon="4.63256">
        <ele>584.40002441406</ele>
        <time>2021-09-28T07:53:01.962Z</time>
      </trkpt>
      <trkpt lat="45.77689" lon="4.63263">
        <ele>584.20001220703</ele>
        <time>2021-09-28T07:53:06.159Z</time>
      </trkpt>
      <trkpt lat="45.77689" lon="4.63264">
        <ele>583.79998779297</ele>
        <time>2021-09-28T07:53:10.357Z</time>
      </trkpt>
      <trkpt lat="45.77685" lon="4.63268">
        <ele>584.79998779297</ele>
        <time>2021-09-28T07:53:14.556Z</time>
      </trkpt>
      <trkpt lat="45.77681" lon="4.63271">
        <ele>586</ele>
        <time>2021-09-28T07:53:18.757Z</time>
      </trkpt>
      <trkpt lat="45.77678" lon="4.63272">
        <ele>586.59997558594</ele>
        <time>2021-09-28T07:53:22.959Z</time>
      </trkpt>
      <trkpt lat="45.77669" lon="4.63276">
        <ele>589.59997558594</ele>
        <time>2021-09-28T07:53:27.164Z</time>
      </trkpt>
      <trkpt lat="45.77658" lon="4.63278">
        <ele>591.79998779297</ele>
        <time>2021-09-28T07:53:31.373Z</time>
      </trkpt>
      <trkpt lat="45.77647" lon="4.63279">
        <ele>594.40002441406</ele>
        <time>2021-09-28T07:53:35.585Z</time>
      </trkpt>
      <trkpt lat="45.77642" lon="4.63281">
        <ele>595.20001220703</ele>
        <time>2021-09-28T07:53:39.799Z</time>
      </trkpt>
      <trkpt lat="45.77638" lon="4.63283">
        <ele>595.79998779297</ele>
        <time>2021-09-28T07:53:44.015Z</time>
      </trkpt>
      <trkpt lat="45.77631" lon="4.63288">
        <ele>596.40002441406</ele>
        <time>2021-09-28T07:53:48.233Z</time>
      </trkpt>
      <trkpt lat="45.77616" lon="4.63298">
        <ele>596.40002441406</ele>
        <time>2021-09-28T07:53:52.457Z</time>
      </trkpt>
      <trkpt lat="45.7761" lon="4.63302">
        <ele>596.59997558594</ele>
        <time>2021-09-28T07:53:56.683Z</time>
      </trkpt>
      <trkpt lat="45.77607" lon="4.63303">
        <ele>597</ele>
        <time>2021-09-28T07:54:00.910Z</time>
      </trkpt>
      <trkpt lat="45.77597" lon="4.63307">
        <ele>599.59997558594</ele>
        <time>2021-09-28T07:54:05.140Z</time>
      </trkpt>
      <trkpt lat="45.77587" lon="4.63313">
        <ele>601.59997558594</ele>
        <time>2021-09-28T07:54:09.374Z</time>
      </trkpt>
      <trkpt lat="45.77585" lon="4.63315">
        <ele>601.40002441406</ele>
        <time>2021-09-28T07:54:13.609Z</time>
      </trkpt>
      <trkpt lat="45.77583" lon="4.63319">
        <ele>600.79998779297</ele>
        <time>2021-09-28T07:54:17.845Z</time>
      </trkpt>
      <trkpt lat="45.77581" lon="4.6332">
        <ele>601.59997558594</ele>
        <time>2021-09-28T07:54:22.082Z</time>
      </trkpt>
      <trkpt lat="45.77575" lon="4.63326">
        <ele>602</ele>
        <time>2021-09-28T07:54:26.321Z</time>
      </trkpt>
      <trkpt lat="45.77565" lon="4.63332">
        <ele>603.79998779297</ele>
        <time>2021-09-28T07:54:30.564Z</time>
      </trkpt>
      <trkpt lat="45.77555" lon="4.63342">
        <ele>604.20001220703</ele>
        <time>2021-09-28T07:54:34.811Z</time>
      </trkpt>
      <trkpt lat="45.77548" lon="4.63349">
        <ele>604.59997558594</ele>
        <time>2021-09-28T07:54:39.061Z</time>
      </trkpt>
      <trkpt lat="45.77538" lon="4.63353">
        <ele>606.59997558594</ele>
        <time>2021-09-28T07:54:43.314Z</time>
      </trkpt>
      <trkpt lat="45.77529" lon="4.63359">
        <ele>607.40002441406</ele>
        <time>2021-09-28T07:54:47.570Z</time>
      </trkpt>
      <trkpt lat="45.77521" lon="4.63362">
        <ele>609</ele>
        <time>2021-09-28T07:54:51.829Z</time>
      </trkpt>
      <trkpt lat="45.77516" lon="4.63367">
        <ele>609.20001220703</ele>
        <time>2021-09-28T07:54:56.090Z</time>
      </trkpt>
      <trkpt lat="45.77509" lon="4.63372">
        <ele>610.20001220703</ele>
        <time>2021-09-28T07:55:00.354Z</time>
      </trkpt>
      <trkpt lat="45.77504" lon="4.63376">
        <ele>610.59997558594</ele>
        <time>2021-09-28T07:55:04.620Z</time>
      </trkpt>
      <trkpt lat="45.77499" lon="4.63385">
        <ele>610.40002441406</ele>
        <time>2021-09-28T07:55:08.889Z</time>
      </trkpt>
      <trkpt lat="45.77496" lon="4.63387">
        <ele>610.79998779297</ele>
        <time>2021-09-28T07:55:13.159Z</time>
      </trkpt>
      <trkpt lat="45.77492" lon="4.63392">
        <ele>610.59997558594</ele>
        <time>2021-09-28T07:55:17.430Z</time>
      </trkpt>
      <trkpt lat="45.7749" lon="4.63395">
        <ele>610.79998779297</ele>
        <time>2021-09-28T07:55:21.702Z</time>
      </trkpt>
      <trkpt lat="45.77488" lon="4.63397">
        <ele>611.40002441406</ele>
        <time>2021-09-28T07:55:25.975Z</time>
      </trkpt>
      <trkpt lat="45.77485" lon="4.63401">
        <ele>611.59997558594</ele>
        <time>2021-09-28T07:55:30.250Z</time>
      </trkpt>
      <trkpt lat="45.77482" lon="4.63409">
        <ele>611.79998779297</ele>
        <time>2021-09-28T07:55:34.527Z</time>
      </trkpt>
      <trkpt lat="45.77482" lon="4.63412">
        <ele>611.40002441406</ele>
        <time>2021-09-28T07:55:38.804Z</time>
      </trkpt>
      <trkpt lat="45.77483" lon="4.63421">
        <ele>610.20001220703</ele>
        <time>2021-09-28T07:55:43.083Z</time>
      </trkpt>
      <trkpt lat="45.77483" lon="4.63429">
        <ele>609.59997558594</ele>
        <time>2021-09-28T07:55:47.364Z</time>
      </trkpt>
      <trkpt lat="45.77484" lon="4.63434">
        <ele>609</ele>
        <time>2021-09-28T07:55:51.647Z</time>
      </trkpt>
      <trkpt lat="45.77489" lon="4.63443">
        <ele>607.20001220703</ele>
        <time>2021-09-28T07:55:55.932Z</time>
      </trkpt>
      <trkpt lat="45.7749" lon="4.63446">
        <ele>606.59997558594</ele>
        <time>2021-09-28T07:56:00.218Z</time>
      </trkpt>
      <trkpt lat="45.77491" lon="4.63451">
        <ele>605.79998779297</ele>
        <time>2021-09-28T07:56:04.505Z</time>
      </trkpt>
      <trkpt lat="45.77503" lon="4.63469">
        <ele>600.79998779297</ele>
        <time>2021-09-28T07:56:08.798Z</time>
      </trkpt>
      <trkpt lat="45.77506" lon="4.63473">
        <ele>599.79998779297</ele>
        <time>2021-09-28T07:56:13.092Z</time>
      </trkpt>
      <trkpt lat="45.77507" lon="4.63482">
        <ele>599.59997558594</ele>
        <time>2021-09-28T07:56:17.389Z</time>
      </trkpt>
      <trkpt lat="45.77509" lon="4.63492">
        <ele>599.40002441406</ele>
        <time>2021-09-28T07:56:21.688Z</time>
      </trkpt>
      <trkpt lat="45.77508" lon="4.63498">
        <ele>600.40002441406</ele>
        <time>2021-09-28T07:56:25.988Z</time>
      </trkpt>
      <trkpt lat="45.77508" lon="4.63503">
        <ele>600.79998779297</ele>
        <time>2021-09-28T07:56:30.290Z</time>
      </trkpt>
      <trkpt lat="45.77506" lon="4.63509">
        <ele>601.59997558594</ele>
        <time>2021-09-28T07:56:34.593Z</time>
      </trkpt>
      <trkpt lat="45.77503" lon="4.63514">
        <ele>602.59997558594</ele>
        <time>2021-09-28T07:56:38.898Z</time>
      </trkpt>
      <trkpt lat="45.77503" lon="4.63519">
        <ele>602.79998779297</ele>
        <time>2021-09-28T07:56:43.204Z</time>
      </trkpt>
      <trkpt lat="45.77503" lon="4.63522">
        <ele>603</ele>
        <time>2021-09-28T07:56:47.510Z</time>
      </trkpt>
      <trkpt lat="45.77502" lon="4.63527">
        <ele>603.59997558594</ele>
        <time>2021-09-28T07:56:51.818Z</time>
      </trkpt>
      <trkpt lat="45.77502" lon="4.6353">
        <ele>603.59997558594</ele>
        <time>2021-09-28T07:56:56.126Z</time>
      </trkpt>
      <trkpt lat="45.77504" lon="4.63541">
        <ele>603.40002441406</ele>
        <time>2021-09-28T07:57:00.437Z</time>
      </trkpt>
      <trkpt lat="45.77506" lon="4.63543">
        <ele>603</ele>
        <time>2021-09-28T07:57:04.749Z</time>
      </trkpt>
      <trkpt lat="45.77511" lon="4.63555">
        <ele>601.40002441406</ele>
        <time>2021-09-28T07:57:09.064Z</time>
      </trkpt>
      <trkpt lat="45.77517" lon="4.63567">
        <ele>599.79998779297</ele>
        <time>2021-09-28T07:57:13.382Z</time>
      </trkpt>
      <trkpt lat="45.77521" lon="4.63583">
        <ele>600.40002441406</ele>
        <time>2021-09-28T07:57:17.704Z</time>
      </trkpt>
      <trkpt lat="45.77521" lon="4.63587">
        <ele>600.79998779297</ele>
        <time>2021-09-28T07:57:22.027Z</time>
      </trkpt>
      <trkpt lat="45.77523" lon="4.63598">
        <ele>601.79998779297</ele>
        <time>2021-09-28T07:57:26.353Z</time>
      </trkpt>
      <trkpt lat="45.77524" lon="4.63602">
        <ele>602.20001220703</ele>
        <time>2021-09-28T07:57:30.680Z</time>
      </trkpt>
      <trkpt lat="45.77523" lon="4.63611">
        <ele>603.79998779297</ele>
        <time>2021-09-28T07:57:35.009Z</time>
      </trkpt>
      <trkpt lat="45.77524" lon="4.63618">
        <ele>604.59997558594</ele>
        <time>2021-09-28T07:57:39.340Z</time>
      </trkpt>
      <trkpt lat="45.77527" lon="4.63632">
        <ele>606.20001220703</ele>
        <time>2021-09-28T07:57:43.674Z</time>
      </trkpt>
      <trkpt lat="45.77528" lon="4.63636">
        <ele>606.40002441406</ele>
        <time>2021-09-28T07:57:48.009Z</time>
      </trkpt>
      <trkpt lat="45.7753" lon="4.63644">
        <ele>606.79998779297</ele>
        <time>2021-09-28T07:57:52.346Z</time>
      </trkpt>
      <trkpt lat="45.77532" lon="4.63651">
        <ele>607</ele>
        <time>2021-09-28T07:57:56.685Z</time>
      </trkpt>
      <trkpt lat="45.77536" lon="4.63661">
        <ele>607.59997558594</ele>
        <time>2021-09-28T07:58:01.027Z</time>
      </trkpt>
      <trkpt lat="45.77536" lon="4.63664">
        <ele>607.79998779297</ele>
        <time>2021-09-28T07:58:05.369Z</time>
      </trkpt>
      <trkpt lat="45.77538" lon="4.63674">
        <ele>608.59997558594</ele>
        <time>2021-09-28T07:58:09.714Z</time>
      </trkpt>
      <trkpt lat="45.77541" lon="4.63683">
        <ele>609.20001220703</ele>
        <time>2021-09-28T07:58:14.061Z</time>
      </trkpt>
      <trkpt lat="45.77542" lon="4.63689">
        <ele>610</ele>
        <time>2021-09-28T07:58:18.410Z</time>
      </trkpt>
      <trkpt lat="45.77545" lon="4.63697">
        <ele>610.40002441406</ele>
        <time>2021-09-28T07:58:22.761Z</time>
      </trkpt>
      <trkpt lat="45.77546" lon="4.637">
        <ele>610.59997558594</ele>
        <time>2021-09-28T07:58:27.112Z</time>
      </trkpt>
      <trkpt lat="45.77546" lon="4.63706">
        <ele>611.59997558594</ele>
        <time>2021-09-28T07:58:31.465Z</time>
      </trkpt>
      <trkpt lat="45.7755" lon="4.63722">
        <ele>612.79998779297</ele>
        <time>2021-09-28T07:58:35.822Z</time>
      </trkpt>
      <trkpt lat="45.77548" lon="4.63725">
        <ele>614.20001220703</ele>
        <time>2021-09-28T07:58:40.180Z</time>
      </trkpt>
      <trkpt lat="45.77546" lon="4.63726">
        <ele>615</ele>
        <time>2021-09-28T07:58:44.539Z</time>
      </trkpt>
      <trkpt lat="45.77543" lon="4.63729">
        <ele>616.59997558594</ele>
        <time>2021-09-28T07:58:48.899Z</time>
      </trkpt>
      <trkpt lat="45.77551" lon="4.63743">
        <ele>615.20001220703</ele>
        <time>2021-09-28T07:58:53.263Z</time>
      </trkpt>
      <trkpt lat="45.77552" lon="4.63746">
        <ele>615</ele>
        <time>2021-09-28T07:58:57.628Z</time>
      </trkpt>
      <trkpt lat="45.77554" lon="4.63753">
        <ele>615</ele>
        <time>2021-09-28T07:59:01.995Z</time>
      </trkpt>
      <trkpt lat="45.77554" lon="4.63755">
        <ele>615</ele>
        <time>2021-09-28T07:59:06.362Z</time>
      </trkpt>
      <trkpt lat="45.77555" lon="4.63756">
        <ele>614.79998779297</ele>
        <time>2021-09-28T07:59:10.730Z</time>
      </trkpt>
      <trkpt lat="45.77555" lon="4.63766">
        <ele>615.59997558594</ele>
        <time>2021-09-28T07:59:15.100Z</time>
      </trkpt>
      <trkpt lat="45.77556" lon="4.63769">
        <ele>615.59997558594</ele>
        <time>2021-09-28T07:59:19.471Z</time>
      </trkpt>
      <trkpt lat="45.77558" lon="4.63777">
        <ele>615.20001220703</ele>
        <time>2021-09-28T07:59:23.844Z</time>
      </trkpt>
      <trkpt lat="45.77562" lon="4.63786">
        <ele>614.59997558594</ele>
        <time>2021-09-28T07:59:28.219Z</time>
      </trkpt>
      <trkpt lat="45.77567" lon="4.63799">
        <ele>614.40002441406</ele>
        <time>2021-09-28T07:59:32.598Z</time>
      </trkpt>
      <trkpt lat="45.77568" lon="4.63802">
        <ele>614.40002441406</ele>
        <time>2021-09-28T07:59:36.977Z</time>
      </trkpt>
      <trkpt lat="45.77573" lon="4.63813">
        <ele>614</ele>
        <time>2021-09-28T07:59:41.359Z</time>
      </trkpt>
      <trkpt lat="45.77574" lon="4.63816">
        <ele>614</ele>
        <time>2021-09-28T07:59:45.742Z</time>
      </trkpt>
      <trkpt lat="45.77576" lon="4.63824">
        <ele>613.59997558594</ele>
        <time>2021-09-28T07:59:50.127Z</time>
      </trkpt>
      <trkpt lat="45.77577" lon="4.63828">
        <ele>613.59997558594</ele>
        <time>2021-09-28T07:59:54.513Z</time>
      </trkpt>
      <trkpt lat="45.7758" lon="4.63837">
        <ele>613</ele>
        <time>2021-09-28T07:59:58.902Z</time>
      </trkpt>
      <trkpt lat="45.77582" lon="4.63842">
        <ele>612.59997558594</ele>
        <time>2021-09-28T08:00:03.292Z</time>
      </trkpt>
      <trkpt lat="45.77583" lon="4.63847">
        <ele>612.40002441406</ele>
        <time>2021-09-28T08:00:07.683Z</time>
      </trkpt>
      <trkpt lat="45.77583" lon="4.63854">
        <ele>612.40002441406</ele>
        <time>2021-09-28T08:00:12.076Z</time>
      </trkpt>
      <trkpt lat="45.77579" lon="4.63872">
        <ele>612.59997558594</ele>
        <time>2021-09-28T08:00:16.473Z</time>
      </trkpt>
      <trkpt lat="45.77578" lon="4.63883">
        <ele>612.79998779297</ele>
        <time>2021-09-28T08:00:20.873Z</time>
      </trkpt>
      <trkpt lat="45.77576" lon="4.63888">
        <ele>612.79998779297</ele>
        <time>2021-09-28T08:00:25.274Z</time>
      </trkpt>
      <trkpt lat="45.77569" lon="4.63897">
        <ele>613</ele>
        <time>2021-09-28T08:00:29.678Z</time>
      </trkpt>
      <trkpt lat="45.77563" lon="4.63903">
        <ele>613.20001220703</ele>
        <time>2021-09-28T08:00:34.084Z</time>
      </trkpt>
      <trkpt lat="45.77558" lon="4.63904">
        <ele>614.59997558594</ele>
        <time>2021-09-28T08:00:38.492Z</time>
      </trkpt>
      <trkpt lat="45.77555" lon="4.63908">
        <ele>615.40002441406</ele>
        <time>2021-09-28T08:00:42.902Z</time>
      </trkpt>
      <trkpt lat="45.77547" lon="4.63918">
        <ele>615.20001220703</ele>
        <time>2021-09-28T08:00:47.315Z</time>
      </trkpt>
      <trkpt lat="45.77544" lon="4.63923">
        <ele>614.79998779297</ele>
        <time>2021-09-28T08:00:51.730Z</time>
      </trkpt>
      <trkpt lat="45.77535" lon="4.63932">
        <ele>614.20001220703</ele>
        <time>2021-09-28T08:00:56.148Z</time>
      </trkpt>
      <trkpt lat="45.77531" lon="4.63936">
        <ele>614.20001220703</ele>
        <time>2021-09-28T08:01:00.568Z</time>
      </trkpt>
      <trkpt lat="45.77514" lon="4.63947">
        <ele>613.40002441406</ele>
        <time>2021-09-28T08:01:04.994Z</time>
      </trkpt>
      <trkpt lat="45.77508" lon="4.63951">
        <ele>613.20001220703</ele>
        <time>2021-09-28T08:01:09.422Z</time>
      </trkpt>
      <trkpt lat="45.77502" lon="4.63954">
        <ele>613.59997558594</ele>
        <time>2021-09-28T08:01:13.853Z</time>
      </trkpt>
      <trkpt lat="45.7749" lon="4.63957">
        <ele>615.20001220703</ele>
        <time>2021-09-28T08:01:18.287Z</time>
      </trkpt>
      <trkpt lat="45.77476" lon="4.6396">
        <ele>617.40002441406</ele>
        <time>2021-09-28T08:01:22.726Z</time>
      </trkpt>
      <trkpt lat="45.77472" lon="4.63961">
        <ele>618</ele>
        <time>2021-09-28T08:01:27.167Z</time>
      </trkpt>
      <trkpt lat="45.77465" lon="4.63963">
        <ele>619.20001220703</ele>
        <time>2021-09-28T08:01:31.610Z</time>
      </trkpt>
      <trkpt lat="45.77459" lon="4.63966">
        <ele>620</ele>
        <time>2021-09-28T08:01:36.055Z</time>
      </trkpt>
      <trkpt lat="45.77455" lon="4.63968">
        <ele>621</ele>
        <time>2021-09-28T08:01:40.502Z</time>
      </trkpt>
      <trkpt lat="45.7744" lon="4.63975">
        <ele>623.20001220703</ele>
        <time>2021-09-28T08:01:44.954Z</time>
      </trkpt>
      <trkpt lat="45.77437" lon="4.63977">
        <ele>623.59997558594</ele>
        <time>2021-09-28T08:01:49.407Z</time>
      </trkpt>
      <trkpt lat="45.77432" lon="4.63982">
        <ele>623.59997558594</ele>
        <time>2021-09-28T08:01:53.862Z</time>
      </trkpt>
      <trkpt lat="45.77426" lon="4.63989">
        <ele>624.59997558594</ele>
        <time>2021-09-28T08:01:58.320Z</time>
      </trkpt>
      <trkpt lat="45.77421" lon="4.63996">
        <ele>625</ele>
        <time>2021-09-28T08:02:02.780Z</time>
      </trkpt>
      <trkpt lat="45.77416" lon="4.64005">
        <ele>625</ele>
        <time>2021-09-28T08:02:07.243Z</time>
      </trkpt>
      <trkpt lat="45.77415" lon="4.64011">
        <ele>624</ele>
        <time>2021-09-28T08:02:11.707Z</time>
      </trkpt>
      <trkpt lat="45.7741" lon="4.64018">
        <ele>623.59997558594</ele>
        <time>2021-09-28T08:02:16.173Z</time>
      </trkpt>
      <trkpt lat="45.77403" lon="4.64025">
        <ele>625</ele>
        <time>2021-09-28T08:02:20.642Z</time>
      </trkpt>
      <trkpt lat="45.77397" lon="4.64033">
        <ele>625.59997558594</ele>
        <time>2021-09-28T08:02:25.114Z</time>
      </trkpt>
      <trkpt lat="45.7739" lon="4.6404">
        <ele>626</ele>
        <time>2021-09-28T08:02:29.589Z</time>
      </trkpt>
      <trkpt lat="45.77386" lon="4.64047">
        <ele>625.40002441406</ele>
        <time>2021-09-28T08:02:34.066Z</time>
      </trkpt>
      <trkpt lat="45.77382" lon="4.64054">
        <ele>625.59997558594</ele>
        <time>2021-09-28T08:02:38.545Z</time>
      </trkpt>
      <trkpt lat="45.77377" lon="4.64062">
        <ele>626</ele>
        <time>2021-09-28T08:02:43.027Z</time>
      </trkpt>
      <trkpt lat="45.77363" lon="4.64086">
        <ele>626.20001220703</ele>
        <time>2021-09-28T08:02:47.516Z</time>
      </trkpt>
      <trkpt lat="45.77354" lon="4.64102">
        <ele>624.59997558594</ele>
        <time>2021-09-28T08:02:52.010Z</time>
      </trkpt>
      <trkpt lat="45.77348" lon="4.64115">
        <ele>622.79998779297</ele>
        <time>2021-09-28T08:02:56.507Z</time>
      </trkpt>
      <trkpt lat="45.77345" lon="4.64118">
        <ele>622.79998779297</ele>
        <time>2021-09-28T08:03:01.006Z</time>
      </trkpt>
      <trkpt lat="45.7734" lon="4.64126">
        <ele>621.79998779297</ele>
        <time>2021-09-28T08:03:05.507Z</time>
      </trkpt>
      <trkpt lat="45.77336" lon="4.6413">
        <ele>621.40002441406</ele>
        <time>2021-09-28T08:03:10.010Z</time>
      </trkpt>
      <trkpt lat="45.77328" lon="4.64137">
        <ele>621</ele>
        <time>2021-09-28T08:03:14.516Z</time>
      </trkpt>
      <trkpt lat="45.77325" lon="4.64146">
        <ele>619.59997558594</ele>
        <time>2021-09-28T08:03:19.024Z</time>
      </trkpt>
      <trkpt lat="45.77323" lon="4.64151">
        <ele>618.79998779297</ele>
        <time>2021-09-28T08:03:23.533Z</time>
      </trkpt>
      <trkpt lat="45.77318" lon="4.64163">
        <ele>617.59997558594</ele>
        <time>2021-09-28T08:03:28.046Z</time>
      </trkpt>
      <trkpt lat="45.77316" lon="4.64167">
        <ele>617</ele>
        <time>2021-09-28T08:03:32.560Z</time>
      </trkpt>
      <trkpt lat="45.77311" lon="4.64173">
        <ele>616.59997558594</ele>
        <time>2021-09-28T08:03:37.076Z</time>
      </trkpt>
      <trkpt lat="45.77308" lon="4.64176">
        <ele>616.20001220703</ele>
        <time>2021-09-28T08:03:41.593Z</time>
      </trkpt>
      <trkpt lat="45.77298" lon="4.64182">
        <ele>615.59997558594</ele>
        <time>2021-09-28T08:03:46.114Z</time>
      </trkpt>
      <trkpt lat="45.77294" lon="4.64187">
        <ele>614.79998779297</ele>
        <time>2021-09-28T08:03:50.637Z</time>
      </trkpt>
      <trkpt lat="45.77289" lon="4.64189">
        <ele>614.79998779297</ele>
        <time>2021-09-28T08:03:55.161Z</time>
      </trkpt>
      <trkpt lat="45.77285" lon="4.64189">
        <ele>615</ele>
        <time>2021-09-28T08:03:59.687Z</time>
      </trkpt>
      <trkpt lat="45.77281" lon="4.6419">
        <ele>614.40002441406</ele>
        <time>2021-09-28T08:04:04.214Z</time>
      </trkpt>
      <trkpt lat="45.7727" lon="4.64186">
        <ele>614.79998779297</ele>
        <time>2021-09-28T08:04:08.745Z</time>
      </trkpt>
      <trkpt lat="45.77266" lon="4.64184">
        <ele>615</ele>
        <time>2021-09-28T08:04:13.277Z</time>
      </trkpt>
      <trkpt lat="45.77256" lon="4.6418">
        <ele>615.20001220703</ele>
        <time>2021-09-28T08:04:17.813Z</time>
      </trkpt>
      <trkpt lat="45.77248" lon="4.64178">
        <ele>615</ele>
        <time>2021-09-28T08:04:22.351Z</time>
      </trkpt>
      <trkpt lat="45.77244" lon="4.64179">
        <ele>614.59997558594</ele>
        <time>2021-09-28T08:04:26.891Z</time>
      </trkpt>
      <trkpt lat="45.77242" lon="4.64179">
        <ele>614.40002441406</ele>
        <time>2021-09-28T08:04:31.431Z</time>
      </trkpt>
      <trkpt lat="45.77234" lon="4.64178">
        <ele>613.59997558594</ele>
        <time>2021-09-28T08:04:35.974Z</time>
      </trkpt>
      <trkpt lat="45.77215" lon="4.64175">
        <ele>611.59997558594</ele>
        <time>2021-09-28T08:04:40.523Z</time>
      </trkpt>
      <trkpt lat="45.7721" lon="4.64175">
        <ele>611</ele>
        <time>2021-09-28T08:04:45.074Z</time>
      </trkpt>
      <trkpt lat="45.77198" lon="4.64173">
        <ele>610</ele>
        <time>2021-09-28T08:04:49.629Z</time>
      </trkpt>
      <trkpt lat="45.77186" lon="4.64169">
        <ele>609.40002441406</ele>
        <time>2021-09-28T08:04:54.188Z</time>
      </trkpt>
      <trkpt lat="45.77168" lon="4.64162">
        <ele>609</ele>
        <time>2021-09-28T08:04:58.753Z</time>
      </trkpt>
      <trkpt lat="45.77155" lon="4.64156">
        <ele>609.40002441406</ele>
        <time>2021-09-28T08:05:03.323Z</time>
      </trkpt>
      <trkpt lat="45.7715" lon="4.64153">
        <ele>609.59997558594</ele>
        <time>2021-09-28T08:05:07.895Z</time>
      </trkpt>
      <trkpt lat="45.77138" lon="4.64146">
        <ele>611</ele>
        <time>2021-09-28T08:05:12.471Z</time>
      </trkpt>
      <trkpt lat="45.77128" lon="4.64146">
        <ele>612</ele>
        <time>2021-09-28T08:05:17.051Z</time>
      </trkpt>
      <trkpt lat="45.77112" lon="4.64163">
        <ele>611.79998779297</ele>
        <time>2021-09-28T08:05:21.637Z</time>
      </trkpt>
      <trkpt lat="45.77108" lon="4.64169">
        <ele>612</ele>
        <time>2021-09-28T08:05:26.225Z</time>
      </trkpt>
      <trkpt lat="45.77102" lon="4.64182">
        <ele>612.59997558594</ele>
        <time>2021-09-28T08:05:30.817Z</time>
      </trkpt>
      <trkpt lat="45.77095" lon="4.64196">
        <ele>614</ele>
        <time>2021-09-28T08:05:35.413Z</time>
      </trkpt>
      <trkpt lat="45.77092" lon="4.64205">
        <ele>614.20001220703</ele>
        <time>2021-09-28T08:05:40.011Z</time>
      </trkpt>
      <trkpt lat="45.77089" lon="4.64222">
        <ele>614</ele>
        <time>2021-09-28T08:05:44.613Z</time>
      </trkpt>
      <trkpt lat="45.77084" lon="4.64239">
        <ele>613.59997558594</ele>
        <time>2021-09-28T08:05:49.219Z</time>
      </trkpt>
      <trkpt lat="45.77083" lon="4.64247">
        <ele>613</ele>
        <time>2021-09-28T08:05:53.827Z</time>
      </trkpt>
      <trkpt lat="45.77087" lon="4.64271">
        <ele>609</ele>
        <time>2021-09-28T08:05:58.441Z</time>
      </trkpt>
      <trkpt lat="45.77094" lon="4.64317">
        <ele>600.20001220703</ele>
        <time>2021-09-28T08:06:03.066Z</time>
      </trkpt>
      <trkpt lat="45.77098" lon="4.64385">
        <ele>591.59997558594</ele>
        <time>2021-09-28T08:06:07.707Z</time>
      </trkpt>
      <trkpt lat="45.77098" lon="4.64418">
        <ele>587.20001220703</ele>
        <time>2021-09-28T08:06:12.356Z</time>
      </trkpt>
      <trkpt lat="45.77097" lon="4.64434">
        <ele>585.59997558594</ele>
        <time>2021-09-28T08:06:17.008Z</time>
      </trkpt>
      <trkpt lat="45.77097" lon="4.64449">
        <ele>583.59997558594</ele>
        <time>2021-09-28T08:06:21.664Z</time>
      </trkpt>
      <trkpt lat="45.77097" lon="4.6446">
        <ele>581.79998779297</ele>
        <time>2021-09-28T08:06:26.323Z</time>
      </trkpt>
      <trkpt lat="45.77094" lon="4.6447">
        <ele>580.40002441406</ele>
        <time>2021-09-28T08:06:30.984Z</time>
      </trkpt>
      <trkpt lat="45.77084" lon="4.64489">
        <ele>578.20001220703</ele>
        <time>2021-09-28T08:06:35.651Z</time>
      </trkpt>
      <trkpt lat="45.77071" lon="4.64509">
        <ele>575</ele>
        <time>2021-09-28T08:06:40.324Z</time>
      </trkpt>
      <trkpt lat="45.77057" lon="4.64528">
        <ele>572.59997558594</ele>
        <time>2021-09-28T08:06:45.004Z</time>
      </trkpt>
      <trkpt lat="45.77024" lon="4.64592">
        <ele>561.79998779297</ele>
        <time>2021-09-28T08:06:49.702Z</time>
      </trkpt>
      <trkpt lat="45.77002" lon="4.64633">
        <ele>556</ele>
        <time>2021-09-28T08:06:54.412Z</time>
      </trkpt>
      <trkpt lat="45.76991" lon="4.6465">
        <ele>554.20001220703</ele>
        <time>2021-09-28T08:06:59.127Z</time>
      </trkpt>
      <trkpt lat="45.76979" lon="4.64674">
        <ele>550.40002441406</ele>
        <time>2021-09-28T08:07:03.849Z</time>
      </trkpt>
      <trkpt lat="45.76976" lon="4.64682">
        <ele>549</ele>
        <time>2021-09-28T08:07:08.573Z</time>
      </trkpt>
      <trkpt lat="45.76973" lon="4.64691">
        <ele>547.20001220703</ele>
        <time>2021-09-28T08:07:13.300Z</time>
      </trkpt>
      <trkpt lat="45.76968" lon="4.64707">
        <ele>544</ele>
        <time>2021-09-28T08:07:18.031Z</time>
      </trkpt>
      <trkpt lat="45.7696" lon="4.6472">
        <ele>542</ele>
        <time>2021-09-28T08:07:22.766Z</time>
      </trkpt>
      <trkpt lat="45.76953" lon="4.64726">
        <ele>541.20001220703</ele>
        <time>2021-09-28T08:07:27.504Z</time>
      </trkpt>
      <trkpt lat="45.76951" lon="4.6473">
        <ele>540.40002441406</ele>
        <time>2021-09-28T08:07:32.243Z</time>
      </trkpt>
      <trkpt lat="45.76948" lon="4.64735">
        <ele>539.59997558594</ele>
        <time>2021-09-28T08:07:36.983Z</time>
      </trkpt>
      <trkpt lat="45.76947" lon="4.64746">
        <ele>538</ele>
        <time>2021-09-28T08:07:41.726Z</time>
      </trkpt>
      <trkpt lat="45.76947" lon="4.64751">
        <ele>537.40002441406</ele>
        <time>2021-09-28T08:07:46.470Z</time>
      </trkpt>
      <trkpt lat="45.76947" lon="4.64766">
        <ele>535.20001220703</ele>
        <time>2021-09-28T08:07:51.218Z</time>
      </trkpt>
      <trkpt lat="45.76953" lon="4.64796">
        <ele>530.79998779297</ele>
        <time>2021-09-28T08:07:55.973Z</time>
      </trkpt>
      <trkpt lat="45.76956" lon="4.64813">
        <ele>528.40002441406</ele>
        <time>2021-09-28T08:08:00.732Z</time>
      </trkpt>
      <trkpt lat="45.76957" lon="4.64822">
        <ele>527.20001220703</ele>
        <time>2021-09-28T08:08:05.493Z</time>
      </trkpt>
      <trkpt lat="45.76958" lon="4.64837">
        <ele>524.79998779297</ele>
        <time>2021-09-28T08:08:10.258Z</time>
      </trkpt>
      <trkpt lat="45.76961" lon="4.64849">
        <ele>523.79998779297</ele>
        <time>2021-09-28T08:08:15.026Z</time>
      </trkpt>
      <trkpt lat="45.76965" lon="4.64861">
        <ele>522.79998779297</ele>
        <time>2021-09-28T08:08:19.797Z</time>
      </trkpt>
      <trkpt lat="45.76968" lon="4.64869">
        <ele>522.20001220703</ele>
        <time>2021-09-28T08:08:24.570Z</time>
      </trkpt>
      <trkpt lat="45.7697" lon="4.6488">
        <ele>521.20001220703</ele>
        <time>2021-09-28T08:08:29.346Z</time>
      </trkpt>
      <trkpt lat="45.76971" lon="4.64883">
        <ele>521</ele>
        <time>2021-09-28T08:08:34.122Z</time>
      </trkpt>
      <trkpt lat="45.76972" lon="4.64889">
        <ele>520.40002441406</ele>
        <time>2021-09-28T08:08:38.900Z</time>
      </trkpt>
      <trkpt lat="45.76974" lon="4.64894">
        <ele>520</ele>
        <time>2021-09-28T08:08:43.679Z</time>
      </trkpt>
      <trkpt lat="45.76975" lon="4.64903">
        <ele>519.20001220703</ele>
        <time>2021-09-28T08:08:48.460Z</time>
      </trkpt>
      <trkpt lat="45.76976" lon="4.6491">
        <ele>518.79998779297</ele>
        <time>2021-09-28T08:08:53.243Z</time>
      </trkpt>
      <trkpt lat="45.76987" lon="4.64948">
        <ele>514.79998779297</ele>
        <time>2021-09-28T08:08:58.035Z</time>
      </trkpt>
      <trkpt lat="45.77" lon="4.64976">
        <ele>513</ele>
        <time>2021-09-28T08:09:02.835Z</time>
      </trkpt>
      <trkpt lat="45.77004" lon="4.64983">
        <ele>512</ele>
        <time>2021-09-28T08:09:07.637Z</time>
      </trkpt>
      <trkpt lat="45.77008" lon="4.64987">
        <ele>511.39999389648</ele>
        <time>2021-09-28T08:09:12.441Z</time>
      </trkpt>
      <trkpt lat="45.7701" lon="4.64988">
        <ele>511.20001220703</ele>
        <time>2021-09-28T08:09:17.246Z</time>
      </trkpt>
      <trkpt lat="45.77011" lon="4.64987">
        <ele>511.39999389648</ele>
        <time>2021-09-28T08:09:22.051Z</time>
      </trkpt>
      <trkpt lat="45.77018" lon="4.64979">
        <ele>512</ele>
        <time>2021-09-28T08:09:26.859Z</time>
      </trkpt>
      <trkpt lat="45.7703" lon="4.64956">
        <ele>512.59997558594</ele>
        <time>2021-09-28T08:09:31.674Z</time>
      </trkpt>
      <trkpt lat="45.7704" lon="4.6493">
        <ele>514</ele>
        <time>2021-09-28T08:09:36.496Z</time>
      </trkpt>
      <trkpt lat="45.77046" lon="4.64922">
        <ele>514.20001220703</ele>
        <time>2021-09-28T08:09:41.320Z</time>
      </trkpt>
      <trkpt lat="45.77051" lon="4.64919">
        <ele>514</ele>
        <time>2021-09-28T08:09:46.146Z</time>
      </trkpt>
      <trkpt lat="45.7706" lon="4.64905">
        <ele>514.40002441406</ele>
        <time>2021-09-28T08:09:50.977Z</time>
      </trkpt>
      <trkpt lat="45.77062" lon="4.649">
        <ele>514.59997558594</ele>
        <time>2021-09-28T08:09:55.809Z</time>
      </trkpt>
      <trkpt lat="45.77067" lon="4.64883">
        <ele>515.79998779297</ele>
        <time>2021-09-28T08:10:00.645Z</time>
      </trkpt>
      <trkpt lat="45.77066" lon="4.64876">
        <ele>516.59997558594</ele>
        <time>2021-09-28T08:10:05.483Z</time>
      </trkpt>
      <trkpt lat="45.77066" lon="4.64865">
        <ele>517.59997558594</ele>
        <time>2021-09-28T08:10:10.324Z</time>
      </trkpt>
      <trkpt lat="45.77068" lon="4.64859">
        <ele>517.59997558594</ele>
        <time>2021-09-28T08:10:15.166Z</time>
      </trkpt>
      <trkpt lat="45.77069" lon="4.64854">
        <ele>517.59997558594</ele>
        <time>2021-09-28T08:10:20.009Z</time>
      </trkpt>
      <trkpt lat="45.7707" lon="4.6484">
        <ele>518</ele>
        <time>2021-09-28T08:10:24.856Z</time>
      </trkpt>
      <trkpt lat="45.77073" lon="4.64823">
        <ele>518.59997558594</ele>
        <time>2021-09-28T08:10:29.707Z</time>
      </trkpt>
      <trkpt lat="45.77077" lon="4.64814">
        <ele>518</ele>
        <time>2021-09-28T08:10:34.560Z</time>
      </trkpt>
      <trkpt lat="45.77083" lon="4.64793">
        <ele>517.59997558594</ele>
        <time>2021-09-28T08:10:39.418Z</time>
      </trkpt>
      <trkpt lat="45.77091" lon="4.64774">
        <ele>518</ele>
        <time>2021-09-28T08:10:44.282Z</time>
      </trkpt>
      <trkpt lat="45.77095" lon="4.64766">
        <ele>518</ele>
        <time>2021-09-28T08:10:49.148Z</time>
      </trkpt>
      <trkpt lat="45.77104" lon="4.64754">
        <ele>518</ele>
        <time>2021-09-28T08:10:54.018Z</time>
      </trkpt>
      <trkpt lat="45.77116" lon="4.64755">
        <ele>515.40002441406</ele>
        <time>2021-09-28T08:10:58.892Z</time>
      </trkpt>
      <trkpt lat="45.77123" lon="4.64758">
        <ele>512.79998779297</ele>
        <time>2021-09-28T08:11:03.768Z</time>
      </trkpt>
      <trkpt lat="45.7713" lon="4.64761">
        <ele>510.39999389648</ele>
        <time>2021-09-28T08:11:08.647Z</time>
      </trkpt>
      <trkpt lat="45.7714" lon="4.64765">
        <ele>507.20001220703</ele>
        <time>2021-09-28T08:11:13.529Z</time>
      </trkpt>
      <trkpt lat="45.7715" lon="4.64767">
        <ele>505</ele>
        <time>2021-09-28T08:11:18.414Z</time>
      </trkpt>
      <trkpt lat="45.77156" lon="4.64768">
        <ele>504.20001220703</ele>
        <time>2021-09-28T08:11:23.302Z</time>
      </trkpt>
      <trkpt lat="45.77166" lon="4.64766">
        <ele>504.20001220703</ele>
        <time>2021-09-28T08:11:28.193Z</time>
      </trkpt>
      <trkpt lat="45.77172" lon="4.64762">
        <ele>505</ele>
        <time>2021-09-28T08:11:33.086Z</time>
      </trkpt>
      <trkpt lat="45.77174" lon="4.6476">
        <ele>505.20001220703</ele>
        <time>2021-09-28T08:11:37.980Z</time>
      </trkpt>
      <trkpt lat="45.77182" lon="4.64752">
        <ele>508.20001220703</ele>
        <time>2021-09-28T08:11:42.877Z</time>
      </trkpt>
      <trkpt lat="45.77194" lon="4.6474">
        <ele>512</ele>
        <time>2021-09-28T08:11:47.779Z</time>
      </trkpt>
      <trkpt lat="45.77195" lon="4.64738">
        <ele>512.40002441406</ele>
        <time>2021-09-28T08:11:52.682Z</time>
      </trkpt>
      <trkpt lat="45.77198" lon="4.64733">
        <ele>513.59997558594</ele>
        <time>2021-09-28T08:11:57.586Z</time>
      </trkpt>
      <trkpt lat="45.77201" lon="4.64731">
        <ele>514</ele>
        <time>2021-09-28T08:12:02.491Z</time>
      </trkpt>
      <trkpt lat="45.77209" lon="4.64727">
        <ele>515</ele>
        <time>2021-09-28T08:12:07.399Z</time>
      </trkpt>
      <trkpt lat="45.77215" lon="4.64726">
        <ele>515.20001220703</ele>
        <time>2021-09-28T08:12:12.309Z</time>
      </trkpt>
      <trkpt lat="45.7722" lon="4.64726">
        <ele>515.20001220703</ele>
        <time>2021-09-28T08:12:17.221Z</time>
      </trkpt>
      <trkpt lat="45.77237" lon="4.64728">
        <ele>513.79998779297</ele>
        <time>2021-09-28T08:12:22.139Z</time>
      </trkpt>
      <trkpt lat="45.77243" lon="4.64733">
        <ele>512.79998779297</ele>
        <time>2021-09-28T08:12:27.059Z</time>
      </trkpt>
      <trkpt lat="45.77255" lon="4.64748">
        <ele>510.60000610352</ele>
        <time>2021-09-28T08:12:31.984Z</time>
      </trkpt>
      <trkpt lat="45.77261" lon="4.6475">
        <ele>509.79998779297</ele>
        <time>2021-09-28T08:12:36.911Z</time>
      </trkpt>
      <trkpt lat="45.77267" lon="4.64751">
        <ele>509</ele>
        <time>2021-09-28T08:12:41.840Z</time>
      </trkpt>
      <trkpt lat="45.7728" lon="4.64753">
        <ele>507.60000610352</ele>
        <time>2021-09-28T08:12:46.774Z</time>
      </trkpt>
      <trkpt lat="45.77301" lon="4.6476">
        <ele>504.79998779297</ele>
        <time>2021-09-28T08:12:51.715Z</time>
      </trkpt>
      <trkpt lat="45.77306" lon="4.64764">
        <ele>504</ele>
        <time>2021-09-28T08:12:56.658Z</time>
      </trkpt>
      <trkpt lat="45.77307" lon="4.64764">
        <ele>504</ele>
        <time>2021-09-28T08:13:01.601Z</time>
      </trkpt>
      <trkpt lat="45.77313" lon="4.64751">
        <ele>504</ele>
        <time>2021-09-28T08:13:06.548Z</time>
      </trkpt>
      <trkpt lat="45.77317" lon="4.64748">
        <ele>503.79998779297</ele>
        <time>2021-09-28T08:13:11.496Z</time>
      </trkpt>
      <trkpt lat="45.77319" lon="4.64744">
        <ele>503.60000610352</ele>
        <time>2021-09-28T08:13:16.445Z</time>
      </trkpt>
      <trkpt lat="45.7732" lon="4.64734">
        <ele>503.39999389648</ele>
        <time>2021-09-28T08:13:21.397Z</time>
      </trkpt>
      <trkpt lat="45.77321" lon="4.64721">
        <ele>503</ele>
        <time>2021-09-28T08:13:26.352Z</time>
      </trkpt>
      <trkpt lat="45.77316" lon="4.64713">
        <ele>503.20001220703</ele>
        <time>2021-09-28T08:13:31.309Z</time>
      </trkpt>
      <trkpt lat="45.77313" lon="4.64706">
        <ele>503.20001220703</ele>
        <time>2021-09-28T08:13:36.268Z</time>
      </trkpt>
      <trkpt lat="45.77313" lon="4.64698">
        <ele>503</ele>
        <time>2021-09-28T08:13:41.229Z</time>
      </trkpt>
      <trkpt lat="45.77315" lon="4.6469">
        <ele>502.79998779297</ele>
        <time>2021-09-28T08:13:46.192Z</time>
      </trkpt>
      <trkpt lat="45.77317" lon="4.6469">
        <ele>502.79998779297</ele>
        <time>2021-09-28T08:13:51.156Z</time>
      </trkpt>
      <trkpt lat="45.77321" lon="4.64693">
        <ele>502.39999389648</ele>
        <time>2021-09-28T08:13:56.121Z</time>
      </trkpt>
      <trkpt lat="45.77325" lon="4.64689">
        <ele>502.20001220703</ele>
        <time>2021-09-28T08:14:01.088Z</time>
      </trkpt>
      <trkpt lat="45.77326" lon="4.64687">
        <ele>502.20001220703</ele>
        <time>2021-09-28T08:14:06.055Z</time>
      </trkpt>
      <trkpt lat="45.77333" lon="4.64687">
        <ele>501.60000610352</ele>
        <time>2021-09-28T08:14:11.025Z</time>
      </trkpt>
      <trkpt lat="45.77341" lon="4.6469">
        <ele>501</ele>
        <time>2021-09-28T08:14:15.997Z</time>
      </trkpt>
      <trkpt lat="45.77343" lon="4.64692">
        <ele>500.79998779297</ele>
        <time>2021-09-28T08:14:20.970Z</time>
      </trkpt>
      <trkpt lat="45.77357" lon="4.64698">
        <ele>499.20001220703</ele>
        <time>2021-09-28T08:14:25.948Z</time>
      </trkpt>
      <trkpt lat="45.77369" lon="4.64705">
        <ele>498</ele>
        <time>2021-09-28T08:14:30.930Z</time>
      </trkpt>
      <trkpt lat="45.77382" lon="4.64707">
        <ele>495.39999389648</ele>
        <time>2021-09-28T08:14:35.917Z</time>
      </trkpt>
      <trkpt lat="45.77388" lon="4.64708">
        <ele>494.20001220703</ele>
        <time>2021-09-28T08:14:40.906Z</time>
      </trkpt>
      <trkpt lat="45.77393" lon="4.6471">
        <ele>493.20001220703</ele>
        <time>2021-09-28T08:14:45.897Z</time>
      </trkpt>
      <trkpt lat="45.77404" lon="4.64719">
        <ele>491</ele>
        <time>2021-09-28T08:14:50.892Z</time>
      </trkpt>
      <trkpt lat="45.77419" lon="4.64728">
        <ele>488.20001220703</ele>
        <time>2021-09-28T08:14:55.892Z</time>
      </trkpt>
      <trkpt lat="45.77429" lon="4.64736">
        <ele>486</ele>
        <time>2021-09-28T08:15:00.896Z</time>
      </trkpt>
      <trkpt lat="45.77435" lon="4.64739">
        <ele>485</ele>
        <time>2021-09-28T08:15:05.902Z</time>
      </trkpt>
      <trkpt lat="45.77458" lon="4.64752">
        <ele>482.20001220703</ele>
        <time>2021-09-28T08:15:10.916Z</time>
      </trkpt>
      <trkpt lat="45.77464" lon="4.64758">
        <ele>481.60000610352</ele>
        <time>2021-09-28T08:15:15.933Z</time>
      </trkpt>
      <trkpt lat="45.77466" lon="4.64759">
        <ele>481.39999389648</ele>
        <time>2021-09-28T08:15:20.950Z</time>
      </trkpt>
      <trkpt lat="45.7747" lon="4.64761">
        <ele>481.20001220703</ele>
        <time>2021-09-28T08:15:25.969Z</time>
      </trkpt>
      <trkpt lat="45.77479" lon="4.64767">
        <ele>480.60000610352</ele>
        <time>2021-09-28T08:15:30.991Z</time>
      </trkpt>
      <trkpt lat="45.77484" lon="4.6478">
        <ele>480</ele>
        <time>2021-09-28T08:15:36.017Z</time>
      </trkpt>
      <trkpt lat="45.77487" lon="4.64791">
        <ele>479</ele>
        <time>2021-09-28T08:15:41.046Z</time>
      </trkpt>
      <trkpt lat="45.77488" lon="4.64798">
        <ele>478.39999389648</ele>
        <time>2021-09-28T08:15:46.076Z</time>
      </trkpt>
      <trkpt lat="45.77485" lon="4.64813">
        <ele>476.39999389648</ele>
        <time>2021-09-28T08:15:51.110Z</time>
      </trkpt>
      <trkpt lat="45.77479" lon="4.64826">
        <ele>474.20001220703</ele>
        <time>2021-09-28T08:15:56.147Z</time>
      </trkpt>
      <trkpt lat="45.77476" lon="4.64843">
        <ele>472.79998779297</ele>
        <time>2021-09-28T08:16:01.189Z</time>
      </trkpt>
      <trkpt lat="45.77474" lon="4.64852">
        <ele>472.20001220703</ele>
        <time>2021-09-28T08:16:06.233Z</time>
      </trkpt>
      <trkpt lat="45.77467" lon="4.6487">
        <ele>470.60000610352</ele>
        <time>2021-09-28T08:16:11.281Z</time>
      </trkpt>
      <trkpt lat="45.77464" lon="4.6488">
        <ele>469.79998779297</ele>
        <time>2021-09-28T08:16:16.332Z</time>
      </trkpt>
      <trkpt lat="45.77456" lon="4.64899">
        <ele>466.79998779297</ele>
        <time>2021-09-28T08:16:21.388Z</time>
      </trkpt>
      <trkpt lat="45.7745" lon="4.64917">
        <ele>465.39999389648</ele>
        <time>2021-09-28T08:16:26.449Z</time>
      </trkpt>
      <trkpt lat="45.77445" lon="4.64946">
        <ele>462.20001220703</ele>
        <time>2021-09-28T08:16:31.517Z</time>
      </trkpt>
      <trkpt lat="45.77444" lon="4.64956">
        <ele>461.79998779297</ele>
        <time>2021-09-28T08:16:36.587Z</time>
      </trkpt>
      <trkpt lat="45.77441" lon="4.64965">
        <ele>461.39999389648</ele>
        <time>2021-09-28T08:16:41.659Z</time>
      </trkpt>
      <trkpt lat="45.77436" lon="4.64983">
        <ele>459.60000610352</ele>
        <time>2021-09-28T08:16:46.736Z</time>
      </trkpt>
      <trkpt lat="45.77433" lon="4.64993">
        <ele>458.79998779297</ele>
        <time>2021-09-28T08:16:51.815Z</time>
      </trkpt>
      <trkpt lat="45.77427" lon="4.65009">
        <ele>457.39999389648</ele>
        <time>2021-09-28T08:16:56.899Z</time>
      </trkpt>
      <trkpt lat="45.77424" lon="4.65017">
        <ele>456.60000610352</ele>
        <time>2021-09-28T08:17:01.985Z</time>
      </trkpt>
      <trkpt lat="45.77421" lon="4.65025">
        <ele>456.39999389648</ele>
        <time>2021-09-28T08:17:07.073Z</time>
      </trkpt>
      <trkpt lat="45.77415" lon="4.6504">
        <ele>455.39999389648</ele>
        <time>2021-09-28T08:17:12.165Z</time>
      </trkpt>
      <trkpt lat="45.77406" lon="4.65043">
        <ele>454.60000610352</ele>
        <time>2021-09-28T08:17:17.260Z</time>
      </trkpt>
      <trkpt lat="45.77397" lon="4.65049">
        <ele>453.39999389648</ele>
        <time>2021-09-28T08:17:22.358Z</time>
      </trkpt>
      <trkpt lat="45.77393" lon="4.65053">
        <ele>454</ele>
        <time>2021-09-28T08:17:27.458Z</time>
      </trkpt>
      <trkpt lat="45.77388" lon="4.65058">
        <ele>453.60000610352</ele>
        <time>2021-09-28T08:17:32.560Z</time>
      </trkpt>
      <trkpt lat="45.77377" lon="4.6507">
        <ele>453.60000610352</ele>
        <time>2021-09-28T08:17:37.667Z</time>
      </trkpt>
      <trkpt lat="45.77374" lon="4.65076">
        <ele>453.39999389648</ele>
        <time>2021-09-28T08:17:42.776Z</time>
      </trkpt>
      <trkpt lat="45.77365" lon="4.65088">
        <ele>453.20001220703</ele>
        <time>2021-09-28T08:17:47.889Z</time>
      </trkpt>
      <trkpt lat="45.77346" lon="4.65119">
        <ele>452.39999389648</ele>
        <time>2021-09-28T08:17:53.011Z</time>
      </trkpt>
      <trkpt lat="45.77342" lon="4.65125">
        <ele>451.79998779297</ele>
        <time>2021-09-28T08:17:58.135Z</time>
      </trkpt>
      <trkpt lat="45.7733" lon="4.65144">
        <ele>450.60000610352</ele>
        <time>2021-09-28T08:18:03.265Z</time>
      </trkpt>
      <trkpt lat="45.77319" lon="4.65164">
        <ele>449.39999389648</ele>
        <time>2021-09-28T08:18:08.401Z</time>
      </trkpt>
      <trkpt lat="45.77316" lon="4.6517">
        <ele>448.39999389648</ele>
        <time>2021-09-28T08:18:13.539Z</time>
      </trkpt>
      <trkpt lat="45.77312" lon="4.65177">
        <ele>448</ele>
        <time>2021-09-28T08:18:18.679Z</time>
      </trkpt>
      <trkpt lat="45.77302" lon="4.65196">
        <ele>446.60000610352</ele>
        <time>2021-09-28T08:18:23.824Z</time>
      </trkpt>
      <trkpt lat="45.77295" lon="4.6521">
        <ele>445.79998779297</ele>
        <time>2021-09-28T08:18:28.973Z</time>
      </trkpt>
      <trkpt lat="45.77286" lon="4.65222">
        <ele>444</ele>
        <time>2021-09-28T08:18:34.127Z</time>
      </trkpt>
      <trkpt lat="45.77264" lon="4.65254">
        <ele>445</ele>
        <time>2021-09-28T08:18:39.291Z</time>
      </trkpt>
      <trkpt lat="45.77248" lon="4.65283">
        <ele>445.39999389648</ele>
        <time>2021-09-28T08:18:44.464Z</time>
      </trkpt>
      <trkpt lat="45.77242" lon="4.65294">
        <ele>445.79998779297</ele>
        <time>2021-09-28T08:18:49.640Z</time>
      </trkpt>
      <trkpt lat="45.7722" lon="4.65341">
        <ele>441.60000610352</ele>
        <time>2021-09-28T08:18:54.829Z</time>
      </trkpt>
      <trkpt lat="45.77213" lon="4.65352">
        <ele>441.60000610352</ele>
        <time>2021-09-28T08:19:00.021Z</time>
      </trkpt>
      <trkpt lat="45.772" lon="4.65373">
        <ele>439.79998779297</ele>
        <time>2021-09-28T08:19:05.220Z</time>
      </trkpt>
      <trkpt lat="45.77188" lon="4.65392">
        <ele>441.79998779297</ele>
        <time>2021-09-28T08:19:10.425Z</time>
      </trkpt>
      <trkpt lat="45.77168" lon="4.65424">
        <ele>442.60000610352</ele>
        <time>2021-09-28T08:19:15.640Z</time>
      </trkpt>
      <trkpt lat="45.77155" lon="4.65452">
        <ele>441.20001220703</ele>
        <time>2021-09-28T08:19:20.863Z</time>
      </trkpt>
      <trkpt lat="45.77148" lon="4.65476">
        <ele>438.79998779297</ele>
        <time>2021-09-28T08:19:26.092Z</time>
      </trkpt>
      <trkpt lat="45.7714" lon="4.65518">
        <ele>435.79998779297</ele>
        <time>2021-09-28T08:19:31.331Z</time>
      </trkpt>
      <trkpt lat="45.77138" lon="4.65549">
        <ele>433.20001220703</ele>
        <time>2021-09-28T08:19:36.577Z</time>
      </trkpt>
      <trkpt lat="45.77137" lon="4.65563">
        <ele>431</ele>
        <time>2021-09-28T08:19:41.827Z</time>
      </trkpt>
      <trkpt lat="45.77137" lon="4.65577">
        <ele>429</ele>
        <time>2021-09-28T08:19:47.080Z</time>
      </trkpt>
      <trkpt lat="45.77135" lon="4.656">
        <ele>427</ele>
        <time>2021-09-28T08:19:52.338Z</time>
      </trkpt>
      <trkpt lat="45.77124" lon="4.65647">
        <ele>424</ele>
        <time>2021-09-28T08:19:57.608Z</time>
      </trkpt>
      <trkpt lat="45.77121" lon="4.65658">
        <ele>422.79998779297</ele>
        <time>2021-09-28T08:20:02.881Z</time>
      </trkpt>
      <trkpt lat="45.77115" lon="4.65691">
        <ele>420</ele>
        <time>2021-09-28T08:20:08.162Z</time>
      </trkpt>
      <trkpt lat="45.77113" lon="4.65702">
        <ele>418.79998779297</ele>
        <time>2021-09-28T08:20:13.445Z</time>
      </trkpt>
      <trkpt lat="45.7711" lon="4.65734">
        <ele>416.79998779297</ele>
        <time>2021-09-28T08:20:18.736Z</time>
      </trkpt>
      <trkpt lat="45.77108" lon="4.65745">
        <ele>416</ele>
        <time>2021-09-28T08:20:24.029Z</time>
      </trkpt>
      <trkpt lat="45.77106" lon="4.65761">
        <ele>413.60000610352</ele>
        <time>2021-09-28T08:20:29.326Z</time>
      </trkpt>
      <trkpt lat="45.77104" lon="4.65772">
        <ele>412.60000610352</ele>
        <time>2021-09-28T08:20:34.626Z</time>
      </trkpt>
      <trkpt lat="45.77107" lon="4.6578">
        <ele>411.60000610352</ele>
        <time>2021-09-28T08:20:39.928Z</time>
      </trkpt>
      <trkpt lat="45.77108" lon="4.65781">
        <ele>411.20001220703</ele>
        <time>2021-09-28T08:20:45.230Z</time>
      </trkpt>
      <trkpt lat="45.77117" lon="4.65787">
        <ele>409.79998779297</ele>
        <time>2021-09-28T08:20:50.536Z</time>
      </trkpt>
      <trkpt lat="45.77127" lon="4.65789">
        <ele>409.79998779297</ele>
        <time>2021-09-28T08:20:55.845Z</time>
      </trkpt>
      <trkpt lat="45.7713" lon="4.65793">
        <ele>409.60000610352</ele>
        <time>2021-09-28T08:21:01.156Z</time>
      </trkpt>
      <trkpt lat="45.77131" lon="4.65797">
        <ele>409.39999389648</ele>
        <time>2021-09-28T08:21:06.467Z</time>
      </trkpt>
      <trkpt lat="45.77131" lon="4.65799">
        <ele>409.20001220703</ele>
        <time>2021-09-28T08:21:11.779Z</time>
      </trkpt>
      <trkpt lat="45.77134" lon="4.65803">
        <ele>409</ele>
        <time>2021-09-28T08:21:17.092Z</time>
      </trkpt>
      <trkpt lat="45.77135" lon="4.65804">
        <ele>409</ele>
        <time>2021-09-28T08:21:22.406Z</time>
      </trkpt>
      <trkpt lat="45.77136" lon="4.65805">
        <ele>409</ele>
        <time>2021-09-28T08:21:27.720Z</time>
      </trkpt>
      <trkpt lat="45.77138" lon="4.65797">
        <ele>409.39999389648</ele>
        <time>2021-09-28T08:21:33.036Z</time>
      </trkpt>
      <trkpt lat="45.77139" lon="4.6579">
        <ele>409.79998779297</ele>
        <time>2021-09-28T08:21:38.354Z</time>
      </trkpt>
      <trkpt lat="45.7714" lon="4.65785">
        <ele>410</ele>
        <time>2021-09-28T08:21:43.673Z</time>
      </trkpt>
      <trkpt lat="45.77141" lon="4.65778">
        <ele>410.39999389648</ele>
        <time>2021-09-28T08:21:48.993Z</time>
      </trkpt>
      <trkpt lat="45.77145" lon="4.65763">
        <ele>410.79998779297</ele>
        <time>2021-09-28T08:21:54.317Z</time>
      </trkpt>
      <trkpt lat="45.77147" lon="4.65758">
        <ele>411</ele>
        <time>2021-09-28T08:21:59.643Z</time>
      </trkpt>
      <trkpt lat="45.77149" lon="4.65754">
        <ele>411.39999389648</ele>
        <time>2021-09-28T08:22:04.970Z</time>
      </trkpt>
      <trkpt lat="45.77153" lon="4.65747">
        <ele>412.39999389648</ele>
        <time>2021-09-28T08:22:10.299Z</time>
      </trkpt>
      <trkpt lat="45.77154" lon="4.65746">
        <ele>412.60000610352</ele>
        <time>2021-09-28T08:22:15.628Z</time>
      </trkpt>
      <trkpt lat="45.77163" lon="4.65742">
        <ele>414.20001220703</ele>
        <time>2021-09-28T08:22:20.960Z</time>
      </trkpt>
      <trkpt lat="45.77166" lon="4.65745">
        <ele>414.39999389648</ele>
        <time>2021-09-28T08:22:26.294Z</time>
      </trkpt>
      <trkpt lat="45.77167" lon="4.6575">
        <ele>414.39999389648</ele>
        <time>2021-09-28T08:22:31.629Z</time>
      </trkpt>
      <trkpt lat="45.77169" lon="4.65757">
        <ele>414.20001220703</ele>
        <time>2021-09-28T08:22:36.966Z</time>
      </trkpt>
      <trkpt lat="45.77173" lon="4.65776">
        <ele>414</ele>
        <time>2021-09-28T08:22:42.307Z</time>
      </trkpt>
      <trkpt lat="45.77175" lon="4.65791">
        <ele>414.39999389648</ele>
        <time>2021-09-28T08:22:47.652Z</time>
      </trkpt>
      <trkpt lat="45.77176" lon="4.65802">
        <ele>415.20001220703</ele>
        <time>2021-09-28T08:22:52.999Z</time>
      </trkpt>
      <trkpt lat="45.77177" lon="4.65806">
        <ele>415.60000610352</ele>
        <time>2021-09-28T08:22:58.347Z</time>
      </trkpt>
      <trkpt lat="45.77178" lon="4.6581">
        <ele>416</ele>
        <time>2021-09-28T08:23:03.696Z</time>
      </trkpt>
      <trkpt lat="45.77183" lon="4.65823">
        <ele>417</ele>
        <time>2021-09-28T08:23:09.049Z</time>
      </trkpt>
      <trkpt lat="45.77184" lon="4.65826">
        <ele>417.39999389648</ele>
        <time>2021-09-28T08:23:14.403Z</time>
      </trkpt>
      <trkpt lat="45.77186" lon="4.6583">
        <ele>418</ele>
        <time>2021-09-28T08:23:19.758Z</time>
      </trkpt>
      <trkpt lat="45.77192" lon="4.65832">
        <ele>419</ele>
        <time>2021-09-28T08:23:25.115Z</time>
      </trkpt>
      <trkpt lat="45.77197" lon="4.65832">
        <ele>420</ele>
        <time>2021-09-28T08:23:30.473Z</time>
      </trkpt>
      <trkpt lat="45.77201" lon="4.65835">
        <ele>420.79998779297</ele>
        <time>2021-09-28T08:23:35.833Z</time>
      </trkpt>
      <trkpt lat="45.77202" lon="4.65836">
        <ele>421</ele>
        <time>2021-09-28T08:23:41.193Z</time>
      </trkpt>
      <trkpt lat="45.77202" lon="4.65838">
        <ele>421</ele>
        <time>2021-09-28T08:23:46.554Z</time>
      </trkpt>
      <trkpt lat="45.77206" lon="4.65842">
        <ele>422</ele>
        <time>2021-09-28T08:23:51.916Z</time>
      </trkpt>
      <trkpt lat="45.77209" lon="4.65847">
        <ele>422.60000610352</ele>
        <time>2021-09-28T08:23:57.280Z</time>
      </trkpt>
      <trkpt lat="45.77211" lon="4.65851">
        <ele>423.20001220703</ele>
        <time>2021-09-28T08:24:02.645Z</time>
      </trkpt>
      <trkpt lat="45.77217" lon="4.65861">
        <ele>424.60000610352</ele>
        <time>2021-09-28T08:24:08.013Z</time>
      </trkpt>
      <trkpt lat="45.77223" lon="4.65872">
        <ele>426</ele>
        <time>2021-09-28T08:24:13.384Z</time>
      </trkpt>
      <trkpt lat="45.77224" lon="4.65873">
        <ele>426.39999389648</ele>
        <time>2021-09-28T08:24:18.756Z</time>
      </trkpt>
      <trkpt lat="45.77227" lon="4.65876">
        <ele>427</ele>
        <time>2021-09-28T08:24:24.129Z</time>
      </trkpt>
      <trkpt lat="45.77229" lon="4.65876">
        <ele>427.39999389648</ele>
        <time>2021-09-28T08:24:29.503Z</time>
      </trkpt>
      <trkpt lat="45.77236" lon="4.6587">
        <ele>428</ele>
        <time>2021-09-28T08:24:34.879Z</time>
      </trkpt>
      <trkpt lat="45.77237" lon="4.65869">
        <ele>428.20001220703</ele>
        <time>2021-09-28T08:24:40.256Z</time>
      </trkpt>
      <trkpt lat="45.77242" lon="4.65865">
        <ele>429.20001220703</ele>
        <time>2021-09-28T08:24:45.635Z</time>
      </trkpt>
      <trkpt lat="45.7725" lon="4.6586">
        <ele>430.60000610352</ele>
        <time>2021-09-28T08:24:51.016Z</time>
      </trkpt>
      <trkpt lat="45.77258" lon="4.65856">
        <ele>432.20001220703</ele>
        <time>2021-09-28T08:24:56.400Z</time>
      </trkpt>
      <trkpt lat="45.77263" lon="4.65859">
        <ele>432.79998779297</ele>
        <time>2021-09-28T08:25:01.786Z</time>
      </trkpt>
      <trkpt lat="45.77263" lon="4.65864">
        <ele>432.79998779297</ele>
        <time>2021-09-28T08:25:07.173Z</time>
      </trkpt>
      <trkpt lat="45.77262" lon="4.65871">
        <ele>432.39999389648</ele>
        <time>2021-09-28T08:25:12.562Z</time>
      </trkpt>
      <trkpt lat="45.77264" lon="4.65894">
        <ele>431.60000610352</ele>
        <time>2021-09-28T08:25:17.956Z</time>
      </trkpt>
      <trkpt lat="45.77266" lon="4.65907">
        <ele>430.79998779297</ele>
        <time>2021-09-28T08:25:23.353Z</time>
      </trkpt>
      <trkpt lat="45.77271" lon="4.65926">
        <ele>430</ele>
        <time>2021-09-28T08:25:28.755Z</time>
      </trkpt>
      <trkpt lat="45.77277" lon="4.65941">
        <ele>428.60000610352</ele>
        <time>2021-09-28T08:25:34.161Z</time>
      </trkpt>
      <trkpt lat="45.77281" lon="4.65947">
        <ele>428</ele>
        <time>2021-09-28T08:25:39.569Z</time>
      </trkpt>
      <trkpt lat="45.77297" lon="4.6596">
        <ele>426.79998779297</ele>
        <time>2021-09-28T08:25:44.983Z</time>
      </trkpt>
      <trkpt lat="45.77302" lon="4.65963">
        <ele>426.39999389648</ele>
        <time>2021-09-28T08:25:50.399Z</time>
      </trkpt>
      <trkpt lat="45.77312" lon="4.65967">
        <ele>426</ele>
        <time>2021-09-28T08:25:55.818Z</time>
      </trkpt>
      <trkpt lat="45.77318" lon="4.65969">
        <ele>426</ele>
        <time>2021-09-28T08:26:01.240Z</time>
      </trkpt>
      <trkpt lat="45.77324" lon="4.65972">
        <ele>426</ele>
        <time>2021-09-28T08:26:06.664Z</time>
      </trkpt>
      <trkpt lat="45.77334" lon="4.65982">
        <ele>425.39999389648</ele>
        <time>2021-09-28T08:26:12.092Z</time>
      </trkpt>
      <trkpt lat="45.77341" lon="4.65994">
        <ele>424.79998779297</ele>
        <time>2021-09-28T08:26:17.523Z</time>
      </trkpt>
      <trkpt lat="45.77348" lon="4.66013">
        <ele>424.39999389648</ele>
        <time>2021-09-28T08:26:22.959Z</time>
      </trkpt>
      <trkpt lat="45.7735" lon="4.66019">
        <ele>424.20001220703</ele>
        <time>2021-09-28T08:26:28.397Z</time>
      </trkpt>
      <trkpt lat="45.77352" lon="4.66031">
        <ele>423.60000610352</ele>
        <time>2021-09-28T08:26:33.838Z</time>
      </trkpt>
      <trkpt lat="45.77352" lon="4.66042">
        <ele>423.60000610352</ele>
        <time>2021-09-28T08:26:39.281Z</time>
      </trkpt>
      <trkpt lat="45.7735" lon="4.66055">
        <ele>422.79998779297</ele>
        <time>2021-09-28T08:26:44.727Z</time>
      </trkpt>
      <trkpt lat="45.77349" lon="4.66058">
        <ele>422.39999389648</ele>
        <time>2021-09-28T08:26:50.174Z</time>
      </trkpt>
      <trkpt lat="45.77343" lon="4.66065">
        <ele>421.20001220703</ele>
        <time>2021-09-28T08:26:55.624Z</time>
      </trkpt>
      <trkpt lat="45.7734" lon="4.66071">
        <ele>420.39999389648</ele>
        <time>2021-09-28T08:27:01.076Z</time>
      </trkpt>
      <trkpt lat="45.77337" lon="4.66087">
        <ele>419.60000610352</ele>
        <time>2021-09-28T08:27:06.531Z</time>
      </trkpt>
      <trkpt lat="45.77339" lon="4.66106">
        <ele>419.79998779297</ele>
        <time>2021-09-28T08:27:11.991Z</time>
      </trkpt>
      <trkpt lat="45.77341" lon="4.66119">
        <ele>420.20001220703</ele>
        <time>2021-09-28T08:27:17.454Z</time>
      </trkpt>
      <trkpt lat="45.77346" lon="4.66141">
        <ele>422</ele>
        <time>2021-09-28T08:27:22.922Z</time>
      </trkpt>
      <trkpt lat="45.77346" lon="4.66162">
        <ele>422.20001220703</ele>
        <time>2021-09-28T08:27:28.395Z</time>
      </trkpt>
      <trkpt lat="45.77346" lon="4.66204">
        <ele>421.20001220703</ele>
        <time>2021-09-28T08:27:33.878Z</time>
      </trkpt>
      <trkpt lat="45.7735" lon="4.66221">
        <ele>420.39999389648</ele>
        <time>2021-09-28T08:27:39.365Z</time>
      </trkpt>
      <trkpt lat="45.77354" lon="4.66227">
        <ele>420.39999389648</ele>
        <time>2021-09-28T08:27:44.854Z</time>
      </trkpt>
      <trkpt lat="45.77358" lon="4.66232">
        <ele>420.20001220703</ele>
        <time>2021-09-28T08:27:50.345Z</time>
      </trkpt>
      <trkpt lat="45.77367" lon="4.6624">
        <ele>420.39999389648</ele>
        <time>2021-09-28T08:27:55.839Z</time>
      </trkpt>
      <trkpt lat="45.77373" lon="4.66252">
        <ele>420.20001220703</ele>
        <time>2021-09-28T08:28:01.337Z</time>
      </trkpt>
      <trkpt lat="45.7738" lon="4.66283">
        <ele>418</ele>
        <time>2021-09-28T08:28:06.842Z</time>
      </trkpt>
      <trkpt lat="45.77385" lon="4.663">
        <ele>416.79998779297</ele>
        <time>2021-09-28T08:28:12.352Z</time>
      </trkpt>
      <trkpt lat="45.77391" lon="4.66317">
        <ele>416</ele>
        <time>2021-09-28T08:28:17.866Z</time>
      </trkpt>
      <trkpt lat="45.77394" lon="4.66328">
        <ele>415.60000610352</ele>
        <time>2021-09-28T08:28:23.383Z</time>
      </trkpt>
      <trkpt lat="45.77393" lon="4.66348">
        <ele>413.79998779297</ele>
        <time>2021-09-28T08:28:28.905Z</time>
      </trkpt>
      <trkpt lat="45.7739" lon="4.66375">
        <ele>411.39999389648</ele>
        <time>2021-09-28T08:28:34.433Z</time>
      </trkpt>
      <trkpt lat="45.77389" lon="4.66385">
        <ele>410.60000610352</ele>
        <time>2021-09-28T08:28:39.963Z</time>
      </trkpt>
      <trkpt lat="45.77388" lon="4.66394">
        <ele>409.79998779297</ele>
        <time>2021-09-28T08:28:45.496Z</time>
      </trkpt>
      <trkpt lat="45.77384" lon="4.66413">
        <ele>407.79998779297</ele>
        <time>2021-09-28T08:28:51.033Z</time>
      </trkpt>
      <trkpt lat="45.77371" lon="4.6646">
        <ele>404.39999389648</ele>
        <time>2021-09-28T08:28:56.582Z</time>
      </trkpt>
      <trkpt lat="45.77365" lon="4.66483">
        <ele>402.39999389648</ele>
        <time>2021-09-28T08:29:02.137Z</time>
      </trkpt>
      <trkpt lat="45.77363" lon="4.66489">
        <ele>401.79998779297</ele>
        <time>2021-09-28T08:29:07.693Z</time>
      </trkpt>
      <trkpt lat="45.7736" lon="4.66504">
        <ele>400.20001220703</ele>
        <time>2021-09-28T08:29:13.253Z</time>
      </trkpt>
      <trkpt lat="45.77358" lon="4.66512">
        <ele>398.79998779297</ele>
        <time>2021-09-28T08:29:18.815Z</time>
      </trkpt>
      <trkpt lat="45.77349" lon="4.66558">
        <ele>392.39999389648</ele>
        <time>2021-09-28T08:29:24.388Z</time>
      </trkpt>
      <trkpt lat="45.77347" lon="4.66564">
        <ele>391.79998779297</ele>
        <time>2021-09-28T08:29:29.963Z</time>
      </trkpt>
      <trkpt lat="45.77343" lon="4.66571">
        <ele>390.79998779297</ele>
        <time>2021-09-28T08:29:35.540Z</time>
      </trkpt>
      <trkpt lat="45.77343" lon="4.66577">
        <ele>390.20001220703</ele>
        <time>2021-09-28T08:29:41.118Z</time>
      </trkpt>
      <trkpt lat="45.77345" lon="4.66581">
        <ele>389.79998779297</ele>
        <time>2021-09-28T08:29:46.697Z</time>
      </trkpt>
      <trkpt lat="45.77346" lon="4.66585">
        <ele>389.39999389648</ele>
        <time>2021-09-28T08:29:52.277Z</time>
      </trkpt>
      <trkpt lat="45.77344" lon="4.66588">
        <ele>389</ele>
        <time>2021-09-28T08:29:57.858Z</time>
      </trkpt>
      <trkpt lat="45.77333" lon="4.66588">
        <ele>388</ele>
        <time>2021-09-28T08:30:03.443Z</time>
      </trkpt>
      <trkpt lat="45.77312" lon="4.66596">
        <ele>385</ele>
        <time>2021-09-28T08:30:09.035Z</time>
      </trkpt>
      <trkpt lat="45.77295" lon="4.66608">
        <ele>382.20001220703</ele>
        <time>2021-09-28T08:30:14.634Z</time>
      </trkpt>
      <trkpt lat="45.77293" lon="4.66618">
        <ele>381.39999389648</ele>
        <time>2021-09-28T08:30:20.235Z</time>
      </trkpt>
      <trkpt lat="45.77293" lon="4.66624">
        <ele>381</ele>
        <time>2021-09-28T08:30:25.838Z</time>
      </trkpt>
      <trkpt lat="45.77299" lon="4.66668">
        <ele>378.79998779297</ele>
        <time>2021-09-28T08:30:31.451Z</time>
      </trkpt>
      <trkpt lat="45.77301" lon="4.66684">
        <ele>378.79998779297</ele>
        <time>2021-09-28T08:30:37.068Z</time>
      </trkpt>
      <trkpt lat="45.77301" lon="4.66697">
        <ele>378.60000610352</ele>
        <time>2021-09-28T08:30:42.688Z</time>
      </trkpt>
      <trkpt lat="45.77295" lon="4.66729">
        <ele>379</ele>
        <time>2021-09-28T08:30:48.316Z</time>
      </trkpt>
      <trkpt lat="45.77294" lon="4.66744">
        <ele>379</ele>
        <time>2021-09-28T08:30:53.947Z</time>
      </trkpt>
      <trkpt lat="45.77293" lon="4.6675">
        <ele>378.79998779297</ele>
        <time>2021-09-28T08:30:59.580Z</time>
      </trkpt>
      <trkpt lat="45.77289" lon="4.66771">
        <ele>378.79998779297</ele>
        <time>2021-09-28T08:31:05.218Z</time>
      </trkpt>
      <trkpt lat="45.77289" lon="4.66773">
        <ele>379</ele>
        <time>2021-09-28T08:31:10.856Z</time>
      </trkpt>
      <trkpt lat="45.77295" lon="4.66785">
        <ele>379.60000610352</ele>
        <time>2021-09-28T08:31:16.498Z</time>
      </trkpt>
      <trkpt lat="45.77297" lon="4.66783">
        <ele>379.79998779297</ele>
        <time>2021-09-28T08:31:22.141Z</time>
      </trkpt>
      <trkpt lat="45.77298" lon="4.66779">
        <ele>379.79998779297</ele>
        <time>2021-09-28T08:31:27.784Z</time>
      </trkpt>
      <trkpt lat="45.77297" lon="4.66774">
        <ele>379.60000610352</ele>
        <time>2021-09-28T08:31:33.429Z</time>
      </trkpt>
      <trkpt lat="45.77293" lon="4.66772">
        <ele>379.20001220703</ele>
        <time>2021-09-28T08:31:39.075Z</time>
      </trkpt>
      <trkpt lat="45.77289" lon="4.66774">
        <ele>379</ele>
        <time>2021-09-28T08:31:44.723Z</time>
      </trkpt>
      <trkpt lat="45.77289" lon="4.66775">
        <ele>379</ele>
        <time>2021-09-28T08:31:50.371Z</time>
      </trkpt>
      <trkpt lat="45.77292" lon="4.66784">
        <ele>379.39999389648</ele>
        <time>2021-09-28T08:31:56.021Z</time>
      </trkpt>
      <trkpt lat="45.77293" lon="4.66785">
        <ele>379.60000610352</ele>
        <time>2021-09-28T08:32:01.672Z</time>
      </trkpt>
      <trkpt lat="45.77295" lon="4.66785">
        <ele>379.60000610352</ele>
        <time>2021-09-28T08:32:07.323Z</time>
      </trkpt>
      <trkpt lat="45.77297" lon="4.66783">
        <ele>379.79998779297</ele>
        <time>2021-09-28T08:32:12.975Z</time>
      </trkpt>
      <trkpt lat="45.77298" lon="4.66779">
        <ele>379.79998779297</ele>
        <time>2021-09-28T08:32:18.628Z</time>
      </trkpt>
      <trkpt lat="45.77297" lon="4.66776">
        <ele>379.60000610352</ele>
        <time>2021-09-28T08:32:24.282Z</time>
      </trkpt>
      <trkpt lat="45.77294" lon="4.66781">
        <ele>379.60000610352</ele>
        <time>2021-09-28T08:32:29.937Z</time>
      </trkpt>
      <trkpt lat="45.77294" lon="4.66783">
        <ele>379.60000610352</ele>
        <time>2021-09-28T08:32:35.593Z</time>
      </trkpt>
      <trkpt lat="45.77298" lon="4.66784">
        <ele>380</ele>
        <time>2021-09-28T08:32:41.250Z</time>
      </trkpt>
      <trkpt lat="45.77308" lon="4.66783">
        <ele>380.60000610352</ele>
        <time>2021-09-28T08:32:46.910Z</time>
      </trkpt>
      <trkpt lat="45.77317" lon="4.66783">
        <ele>381.39999389648</ele>
        <time>2021-09-28T08:32:52.573Z</time>
      </trkpt>
      <trkpt lat="45.77325" lon="4.66784">
        <ele>381.79998779297</ele>
        <time>2021-09-28T08:32:58.239Z</time>
      </trkpt>
      <trkpt lat="45.77329" lon="4.66782">
        <ele>382.20001220703</ele>
        <time>2021-09-28T08:33:03.906Z</time>
      </trkpt>
      <trkpt lat="45.77333" lon="4.66782">
        <ele>382.39999389648</ele>
        <time>2021-09-28T08:33:09.575Z</time>
      </trkpt>
      <trkpt lat="45.77336" lon="4.66783">
        <ele>382.60000610352</ele>
        <time>2021-09-28T08:33:15.245Z</time>
      </trkpt>
      <trkpt lat="45.77346" lon="4.66784">
        <ele>383.60000610352</ele>
        <time>2021-09-28T08:33:20.918Z</time>
      </trkpt>
      <trkpt lat="45.77354" lon="4.66784">
        <ele>384.39999389648</ele>
        <time>2021-09-28T08:33:26.594Z</time>
      </trkpt>
      <trkpt lat="45.77365" lon="4.66783">
        <ele>385.60000610352</ele>
        <time>2021-09-28T08:33:32.273Z</time>
      </trkpt>
      <trkpt lat="45.77373" lon="4.6678">
        <ele>386.60000610352</ele>
        <time>2021-09-28T08:33:37.955Z</time>
      </trkpt>
      <trkpt lat="45.77382" lon="4.66776">
        <ele>387.60000610352</ele>
        <time>2021-09-28T08:33:43.640Z</time>
      </trkpt>
      <trkpt lat="45.77393" lon="4.66772">
        <ele>389.39999389648</ele>
        <time>2021-09-28T08:33:49.329Z</time>
      </trkpt>
      <trkpt lat="45.774" lon="4.66768">
        <ele>390.39999389648</ele>
        <time>2021-09-28T08:33:55.021Z</time>
      </trkpt>
      <trkpt lat="45.77408" lon="4.66766">
        <ele>391.20001220703</ele>
        <time>2021-09-28T08:34:00.715Z</time>
      </trkpt>
      <trkpt lat="45.7742" lon="4.66762">
        <ele>393.60000610352</ele>
        <time>2021-09-28T08:34:06.413Z</time>
      </trkpt>
      <trkpt lat="45.77432" lon="4.66759">
        <ele>395.60000610352</ele>
        <time>2021-09-28T08:34:12.115Z</time>
      </trkpt>
      <trkpt lat="45.7745" lon="4.66756">
        <ele>397.60000610352</ele>
        <time>2021-09-28T08:34:17.823Z</time>
      </trkpt>
      <trkpt lat="45.77459" lon="4.66755">
        <ele>398.39999389648</ele>
        <time>2021-09-28T08:34:23.534Z</time>
      </trkpt>
      <trkpt lat="45.77466" lon="4.66754">
        <ele>399</ele>
        <time>2021-09-28T08:34:29.248Z</time>
      </trkpt>
      <trkpt lat="45.77475" lon="4.66754">
        <ele>399.60000610352</ele>
        <time>2021-09-28T08:34:34.965Z</time>
      </trkpt>
      <trkpt lat="45.77493" lon="4.66755">
        <ele>401.39999389648</ele>
        <time>2021-09-28T08:34:40.688Z</time>
      </trkpt>
      <trkpt lat="45.7751" lon="4.66758">
        <ele>403</ele>
        <time>2021-09-28T08:34:46.416Z</time>
      </trkpt>
      <trkpt lat="45.77528" lon="4.66765">
        <ele>403.79998779297</ele>
        <time>2021-09-28T08:34:52.151Z</time>
      </trkpt>
      <trkpt lat="45.77551" lon="4.6678">
        <ele>404.39999389648</ele>
        <time>2021-09-28T08:34:57.894Z</time>
      </trkpt>
      <trkpt lat="45.77571" lon="4.66794">
        <ele>405.79998779297</ele>
        <time>2021-09-28T08:35:03.645Z</time>
      </trkpt>
      <trkpt lat="45.77591" lon="4.66804">
        <ele>408</ele>
        <time>2021-09-28T08:35:09.403Z</time>
      </trkpt>
      <trkpt lat="45.77602" lon="4.66807">
        <ele>409.79998779297</ele>
        <time>2021-09-28T08:35:15.164Z</time>
      </trkpt>
      <trkpt lat="45.77617" lon="4.66812">
        <ele>412.79998779297</ele>
        <time>2021-09-28T08:35:20.931Z</time>
      </trkpt>
      <trkpt lat="45.77628" lon="4.66817">
        <ele>415</ele>
        <time>2021-09-28T08:35:26.702Z</time>
      </trkpt>
      <trkpt lat="45.77636" lon="4.66821">
        <ele>416.60000610352</ele>
        <time>2021-09-28T08:35:32.475Z</time>
      </trkpt>
      <trkpt lat="45.77646" lon="4.66827">
        <ele>418.39999389648</ele>
        <time>2021-09-28T08:35:38.252Z</time>
      </trkpt>
      <trkpt lat="45.77654" lon="4.66832">
        <ele>419.60000610352</ele>
        <time>2021-09-28T08:35:44.032Z</time>
      </trkpt>
      <trkpt lat="45.77666" lon="4.66835">
        <ele>421</ele>
        <time>2021-09-28T08:35:49.816Z</time>
      </trkpt>
      <trkpt lat="45.77675" lon="4.66838">
        <ele>422</ele>
        <time>2021-09-28T08:35:55.603Z</time>
      </trkpt>
      <trkpt lat="45.77685" lon="4.66839">
        <ele>423.39999389648</ele>
        <time>2021-09-28T08:36:01.393Z</time>
      </trkpt>
      <trkpt lat="45.77695" lon="4.6684">
        <ele>424.79998779297</ele>
        <time>2021-09-28T08:36:07.187Z</time>
      </trkpt>
      <trkpt lat="45.77704" lon="4.66842">
        <ele>426</ele>
        <time>2021-09-28T08:36:12.984Z</time>
      </trkpt>
      <trkpt lat="45.77715" lon="4.66844">
        <ele>426.60000610352</ele>
        <time>2021-09-28T08:36:18.784Z</time>
      </trkpt>
      <trkpt lat="45.77729" lon="4.6685">
        <ele>427.60000610352</ele>
        <time>2021-09-28T08:36:24.589Z</time>
      </trkpt>
      <trkpt lat="45.7774" lon="4.66856">
        <ele>427.79998779297</ele>
        <time>2021-09-28T08:36:30.398Z</time>
      </trkpt>
      <trkpt lat="45.77754" lon="4.66863">
        <ele>428</ele>
        <time>2021-09-28T08:36:36.212Z</time>
      </trkpt>
      <trkpt lat="45.77766" lon="4.66865">
        <ele>428.39999389648</ele>
        <time>2021-09-28T08:36:42.030Z</time>
      </trkpt>
      <trkpt lat="45.77778" lon="4.66862">
        <ele>429</ele>
        <time>2021-09-28T08:36:47.852Z</time>
      </trkpt>
      <trkpt lat="45.77789" lon="4.6686">
        <ele>429.60000610352</ele>
        <time>2021-09-28T08:36:53.678Z</time>
      </trkpt>
      <trkpt lat="45.77793" lon="4.6686">
        <ele>429.79998779297</ele>
        <time>2021-09-28T08:36:59.505Z</time>
      </trkpt>
      <trkpt lat="45.77795" lon="4.66857">
        <ele>430</ele>
        <time>2021-09-28T08:37:05.333Z</time>
      </trkpt>
      <trkpt lat="45.77797" lon="4.66856">
        <ele>430.20001220703</ele>
        <time>2021-09-28T08:37:11.162Z</time>
      </trkpt>
      <trkpt lat="45.77797" lon="4.66856">
        <ele>430</ele>
        <time>2021-09-28T08:37:16.991Z</time>
      </trkpt>
      <trkpt lat="45.77797" lon="4.66858">
        <ele>430</ele>
        <time>2021-09-28T08:37:22.821Z</time>
      </trkpt>
      <trkpt lat="45.77798" lon="4.66855">
        <ele>430.20001220703</ele>
        <time>2021-09-28T08:37:28.652Z</time>
      </trkpt>
      <trkpt lat="45.77806" lon="4.6687">
        <ele>429.20001220703</ele>
        <time>2021-09-28T08:37:34.487Z</time>
      </trkpt>
      <trkpt lat="45.7781" lon="4.66907">
        <ele>426.20001220703</ele>
        <time>2021-09-28T08:37:40.331Z</time>
      </trkpt>
      <trkpt lat="45.77817" lon="4.66971">
        <ele>422.79998779297</ele>
        <time>2021-09-28T08:37:46.190Z</time>
      </trkpt>
      <trkpt lat="45.77823" lon="4.6702">
        <ele>421</ele>
        <time>2021-09-28T08:37:52.060Z</time>
      </trkpt>
      <trkpt lat="45.77832" lon="4.67096">
        <ele>420.20001220703</ele>
        <time>2021-09-28T08:37:57.948Z</time>
      </trkpt>
      <trkpt lat="45.77834" lon="4.67106">
        <ele>420</ele>
        <time>2021-09-28T08:38:03.839Z</time>
      </trkpt>
      <trkpt lat="45.7784" lon="4.67154">
        <ele>419.20001220703</ele>
        <time>2021-09-28T08:38:09.741Z</time>
      </trkpt>
      <trkpt lat="45.77842" lon="4.67171">
        <ele>418.79998779297</ele>
        <time>2021-09-28T08:38:15.647Z</time>
      </trkpt>
      <trkpt lat="45.77844" lon="4.67184">
        <ele>418.79998779297</ele>
        <time>2021-09-28T08:38:21.556Z</time>
      </trkpt>
      <trkpt lat="45.77847" lon="4.67186">
        <ele>418.60000610352</ele>
        <time>2021-09-28T08:38:27.466Z</time>
      </trkpt>
      <trkpt lat="45.77865" lon="4.67195">
        <ele>417.20001220703</ele>
        <time>2021-09-28T08:38:33.382Z</time>
      </trkpt>
      <trkpt lat="45.7788" lon="4.672">
        <ele>417</ele>
        <time>2021-09-28T08:38:39.304Z</time>
      </trkpt>
      <trkpt lat="45.77888" lon="4.67203">
        <ele>417.20001220703</ele>
        <time>2021-09-28T08:38:45.228Z</time>
      </trkpt>
      <trkpt lat="45.7792" lon="4.67219">
        <ele>419.20001220703</ele>
        <time>2021-09-28T08:38:51.164Z</time>
      </trkpt>
      <trkpt lat="45.77947" lon="4.67234">
        <ele>419.39999389648</ele>
        <time>2021-09-28T08:38:57.109Z</time>
      </trkpt>
      <trkpt lat="45.77953" lon="4.67236">
        <ele>419.39999389648</ele>
        <time>2021-09-28T08:39:03.056Z</time>
      </trkpt>
      <trkpt lat="45.77974" lon="4.67246">
        <ele>418</ele>
        <time>2021-09-28T08:39:09.011Z</time>
      </trkpt>
      <trkpt lat="45.77991" lon="4.67254">
        <ele>417.20001220703</ele>
        <time>2021-09-28T08:39:14.972Z</time>
      </trkpt>
      <trkpt lat="45.77997" lon="4.67258">
        <ele>417</ele>
        <time>2021-09-28T08:39:20.935Z</time>
      </trkpt>
      <trkpt lat="45.78022" lon="4.67277">
        <ele>418.60000610352</ele>
        <time>2021-09-28T08:39:26.907Z</time>
      </trkpt>
      <trkpt lat="45.78052" lon="4.67297">
        <ele>421</ele>
        <time>2021-09-28T08:39:32.890Z</time>
      </trkpt>
      <trkpt lat="45.78071" lon="4.67313">
        <ele>422</ele>
        <time>2021-09-28T08:39:38.881Z</time>
      </trkpt>
      <trkpt lat="45.78081" lon="4.67322">
        <ele>422</ele>
        <time>2021-09-28T08:39:44.876Z</time>
      </trkpt>
      <trkpt lat="45.78092" lon="4.67332">
        <ele>421.79998779297</ele>
        <time>2021-09-28T08:39:50.875Z</time>
      </trkpt>
      <trkpt lat="45.7811" lon="4.67347">
        <ele>420.20001220703</ele>
        <time>2021-09-28T08:39:56.881Z</time>
      </trkpt>
      <trkpt lat="45.78119" lon="4.67355">
        <ele>419.60000610352</ele>
        <time>2021-09-28T08:40:02.891Z</time>
      </trkpt>
      <trkpt lat="45.78128" lon="4.67364">
        <ele>418.20001220703</ele>
        <time>2021-09-28T08:40:08.904Z</time>
      </trkpt>
      <trkpt lat="45.7814" lon="4.67373">
        <ele>417</ele>
        <time>2021-09-28T08:40:14.922Z</time>
      </trkpt>
      <trkpt lat="45.78151" lon="4.67381">
        <ele>415.79998779297</ele>
        <time>2021-09-28T08:40:20.944Z</time>
      </trkpt>
      <trkpt lat="45.78163" lon="4.67388">
        <ele>414.60000610352</ele>
        <time>2021-09-28T08:40:26.970Z</time>
      </trkpt>
      <trkpt lat="45.78169" lon="4.67394">
        <ele>414</ele>
        <time>2021-09-28T08:40:32.999Z</time>
      </trkpt>
      <trkpt lat="45.78175" lon="4.67399">
        <ele>413.60000610352</ele>
        <time>2021-09-28T08:40:39.030Z</time>
      </trkpt>
      <trkpt lat="45.78185" lon="4.67411">
        <ele>413</ele>
        <time>2021-09-28T08:40:45.065Z</time>
      </trkpt>
      <trkpt lat="45.78194" lon="4.67424">
        <ele>412.60000610352</ele>
        <time>2021-09-28T08:40:51.105Z</time>
      </trkpt>
      <trkpt lat="45.78213" lon="4.67459">
        <ele>412</ele>
        <time>2021-09-28T08:40:57.155Z</time>
      </trkpt>
      <trkpt lat="45.78217" lon="4.67464">
        <ele>412</ele>
        <time>2021-09-28T08:41:03.207Z</time>
      </trkpt>
      <trkpt lat="45.78227" lon="4.67477">
        <ele>411.60000610352</ele>
        <time>2021-09-28T08:41:09.263Z</time>
      </trkpt>
      <trkpt lat="45.78232" lon="4.67485">
        <ele>411.20001220703</ele>
        <time>2021-09-28T08:41:15.322Z</time>
      </trkpt>
      <trkpt lat="45.7824" lon="4.67502">
        <ele>410.20001220703</ele>
        <time>2021-09-28T08:41:21.386Z</time>
      </trkpt>
      <trkpt lat="45.78248" lon="4.67522">
        <ele>409</ele>
        <time>2021-09-28T08:41:27.455Z</time>
      </trkpt>
      <trkpt lat="45.78255" lon="4.67545">
        <ele>408.20001220703</ele>
        <time>2021-09-28T08:41:33.530Z</time>
      </trkpt>
      <trkpt lat="45.78267" lon="4.67589">
        <ele>404.79998779297</ele>
        <time>2021-09-28T08:41:39.616Z</time>
      </trkpt>
      <trkpt lat="45.78267" lon="4.67599">
        <ele>403.79998779297</ele>
        <time>2021-09-28T08:41:45.704Z</time>
      </trkpt>
      <trkpt lat="45.78267" lon="4.676">
        <ele>403.79998779297</ele>
        <time>2021-09-28T08:41:51.792Z</time>
      </trkpt>
      <trkpt lat="45.78267" lon="4.676">
        <ele>403.60000610352</ele>
        <time>2021-09-28T08:41:57.880Z</time>
      </trkpt>
      <trkpt lat="45.78267" lon="4.67595">
        <ele>404.20001220703</ele>
        <time>2021-09-28T08:42:03.970Z</time>
      </trkpt>
      <trkpt lat="45.78271" lon="4.6759">
        <ele>402.60000610352</ele>
        <time>2021-09-28T08:42:10.061Z</time>
      </trkpt>
      <trkpt lat="45.7829" lon="4.67569">
        <ele>394.79998779297</ele>
        <time>2021-09-28T08:42:16.160Z</time>
      </trkpt>
      <trkpt lat="45.783" lon="4.67544">
        <ele>392.60000610352</ele>
        <time>2021-09-28T08:42:22.266Z</time>
      </trkpt>
      <trkpt lat="45.78302" lon="4.67538">
        <ele>392.60000610352</ele>
        <time>2021-09-28T08:42:28.373Z</time>
      </trkpt>
      <trkpt lat="45.78304" lon="4.67533">
        <ele>392.79998779297</ele>
        <time>2021-09-28T08:42:34.482Z</time>
      </trkpt>
      <trkpt lat="45.78308" lon="4.67525">
        <ele>392.39999389648</ele>
        <time>2021-09-28T08:42:40.593Z</time>
      </trkpt>
      <trkpt lat="45.78311" lon="4.67522">
        <ele>392.20001220703</ele>
        <time>2021-09-28T08:42:46.705Z</time>
      </trkpt>
      <trkpt lat="45.78316" lon="4.67511">
        <ele>392</ele>
        <time>2021-09-28T08:42:52.820Z</time>
      </trkpt>
      <trkpt lat="45.78325" lon="4.67498">
        <ele>391</ele>
        <time>2021-09-28T08:42:58.940Z</time>
      </trkpt>
      <trkpt lat="45.78332" lon="4.67482">
        <ele>390</ele>
        <time>2021-09-28T08:43:05.064Z</time>
      </trkpt>
      <trkpt lat="45.78348" lon="4.67451">
        <ele>387.39999389648</ele>
        <time>2021-09-28T08:43:11.197Z</time>
      </trkpt>
      <trkpt lat="45.78352" lon="4.67444">
        <ele>386.20001220703</ele>
        <time>2021-09-28T08:43:17.332Z</time>
      </trkpt>
      <trkpt lat="45.78354" lon="4.67436">
        <ele>385.20001220703</ele>
        <time>2021-09-28T08:43:23.469Z</time>
      </trkpt>
      <trkpt lat="45.78356" lon="4.67415">
        <ele>383.39999389648</ele>
        <time>2021-09-28T08:43:29.611Z</time>
      </trkpt>
      <trkpt lat="45.78356" lon="4.67375">
        <ele>380.60000610352</ele>
        <time>2021-09-28T08:43:35.762Z</time>
      </trkpt>
      <trkpt lat="45.78349" lon="4.67349">
        <ele>379.60000610352</ele>
        <time>2021-09-28T08:43:41.920Z</time>
      </trkpt>
      <trkpt lat="45.78345" lon="4.67339">
        <ele>379.39999389648</ele>
        <time>2021-09-28T08:43:48.081Z</time>
      </trkpt>
      <trkpt lat="45.78345" lon="4.67336">
        <ele>379</ele>
        <time>2021-09-28T08:43:54.242Z</time>
      </trkpt>
      <trkpt lat="45.78344" lon="4.6733">
        <ele>378.60000610352</ele>
        <time>2021-09-28T08:44:00.405Z</time>
      </trkpt>
      <trkpt lat="45.78349" lon="4.67332">
        <ele>377.79998779297</ele>
        <time>2021-09-28T08:44:06.570Z</time>
      </trkpt>
      <trkpt lat="45.78352" lon="4.67336">
        <ele>377.60000610352</ele>
        <time>2021-09-28T08:44:12.736Z</time>
      </trkpt>
      <trkpt lat="45.7836" lon="4.67343">
        <ele>377.20001220703</ele>
        <time>2021-09-28T08:44:18.905Z</time>
      </trkpt>
      <trkpt lat="45.78368" lon="4.67353">
        <ele>376.60000610352</ele>
        <time>2021-09-28T08:44:25.078Z</time>
      </trkpt>
      <trkpt lat="45.78378" lon="4.67364">
        <ele>375.60000610352</ele>
        <time>2021-09-28T08:44:31.255Z</time>
      </trkpt>
      <trkpt lat="45.78384" lon="4.67376">
        <ele>375</ele>
        <time>2021-09-28T08:44:37.435Z</time>
      </trkpt>
      <trkpt lat="45.78387" lon="4.67382">
        <ele>374.60000610352</ele>
        <time>2021-09-28T08:44:43.617Z</time>
      </trkpt>
      <trkpt lat="45.784" lon="4.67404">
        <ele>373</ele>
        <time>2021-09-28T08:44:49.805Z</time>
      </trkpt>
      <trkpt lat="45.78413" lon="4.67431">
        <ele>371.60000610352</ele>
        <time>2021-09-28T08:44:56.001Z</time>
      </trkpt>
      <trkpt lat="45.78422" lon="4.67451">
        <ele>370.79998779297</ele>
        <time>2021-09-28T08:45:02.203Z</time>
      </trkpt>
      <trkpt lat="45.78432" lon="4.67459">
        <ele>369.60000610352</ele>
        <time>2021-09-28T08:45:08.409Z</time>
      </trkpt>
      <trkpt lat="45.78435" lon="4.67464">
        <ele>369.79998779297</ele>
        <time>2021-09-28T08:45:14.616Z</time>
      </trkpt>
      <trkpt lat="45.78441" lon="4.67471">
        <ele>369.39999389648</ele>
        <time>2021-09-28T08:45:20.826Z</time>
      </trkpt>
      <trkpt lat="45.78445" lon="4.67477">
        <ele>369.20001220703</ele>
        <time>2021-09-28T08:45:27.038Z</time>
      </trkpt>
      <trkpt lat="45.78455" lon="4.67486">
        <ele>367.60000610352</ele>
        <time>2021-09-28T08:45:33.254Z</time>
      </trkpt>
      <trkpt lat="45.78461" lon="4.67488">
        <ele>366.39999389648</ele>
        <time>2021-09-28T08:45:39.472Z</time>
      </trkpt>
      <trkpt lat="45.78463" lon="4.6749">
        <ele>366</ele>
        <time>2021-09-28T08:45:45.691Z</time>
      </trkpt>
      <trkpt lat="45.78469" lon="4.67496">
        <ele>365</ele>
        <time>2021-09-28T08:45:51.912Z</time>
      </trkpt>
      <trkpt lat="45.78472" lon="4.67497">
        <ele>364.39999389648</ele>
        <time>2021-09-28T08:45:58.134Z</time>
      </trkpt>
      <trkpt lat="45.78472" lon="4.67499">
        <ele>364.60000610352</ele>
        <time>2021-09-28T08:46:04.356Z</time>
      </trkpt>
      <trkpt lat="45.78475" lon="4.67499">
        <ele>363.79998779297</ele>
        <time>2021-09-28T08:46:10.579Z</time>
      </trkpt>
      <trkpt lat="45.78481" lon="4.67497">
        <ele>362.60000610352</ele>
        <time>2021-09-28T08:46:16.804Z</time>
      </trkpt>
      <trkpt lat="45.78491" lon="4.67494">
        <ele>360.60000610352</ele>
        <time>2021-09-28T08:46:23.033Z</time>
      </trkpt>
      <trkpt lat="45.78492" lon="4.67494">
        <ele>360.39999389648</ele>
        <time>2021-09-28T08:46:29.262Z</time>
      </trkpt>
      <trkpt lat="45.78494" lon="4.67491">
        <ele>360</ele>
        <time>2021-09-28T08:46:35.492Z</time>
      </trkpt>
      <trkpt lat="45.78498" lon="4.6749">
        <ele>359.39999389648</ele>
        <time>2021-09-28T08:46:41.723Z</time>
      </trkpt>
      <trkpt lat="45.78507" lon="4.67507">
        <ele>358</ele>
        <time>2021-09-28T08:46:47.960Z</time>
      </trkpt>
      <trkpt lat="45.7851" lon="4.67512">
        <ele>357.60000610352</ele>
        <time>2021-09-28T08:46:54.198Z</time>
      </trkpt>
      <trkpt lat="45.78517" lon="4.67523">
        <ele>357</ele>
        <time>2021-09-28T08:47:00.439Z</time>
      </trkpt>
      <trkpt lat="45.78532" lon="4.67546">
        <ele>355.60000610352</ele>
        <time>2021-09-28T08:47:06.688Z</time>
      </trkpt>
      <trkpt lat="45.78538" lon="4.6756">
        <ele>355.20001220703</ele>
        <time>2021-09-28T08:47:12.941Z</time>
      </trkpt>
      <trkpt lat="45.78542" lon="4.67569">
        <ele>355</ele>
        <time>2021-09-28T08:47:19.196Z</time>
      </trkpt>
      <trkpt lat="45.78545" lon="4.67577">
        <ele>354.79998779297</ele>
        <time>2021-09-28T08:47:25.453Z</time>
      </trkpt>
      <trkpt lat="45.78558" lon="4.6761">
        <ele>353.20001220703</ele>
        <time>2021-09-28T08:47:31.719Z</time>
      </trkpt>
      <trkpt lat="45.78566" lon="4.67627">
        <ele>352.60000610352</ele>
        <time>2021-09-28T08:47:37.990Z</time>
      </trkpt>
      <trkpt lat="45.78574" lon="4.67641">
        <ele>352</ele>
        <time>2021-09-28T08:47:44.265Z</time>
      </trkpt>
      <trkpt lat="45.78596" lon="4.67682">
        <ele>349.20001220703</ele>
        <time>2021-09-28T08:47:50.552Z</time>
      </trkpt>
      <trkpt lat="45.78613" lon="4.67713">
        <ele>347</ele>
        <time>2021-09-28T08:47:56.848Z</time>
      </trkpt>
      <trkpt lat="45.78621" lon="4.67726">
        <ele>346.20001220703</ele>
        <time>2021-09-28T08:48:03.148Z</time>
      </trkpt>
      <trkpt lat="45.7863" lon="4.67739">
        <ele>346</ele>
        <time>2021-09-28T08:48:09.453Z</time>
      </trkpt>
      <trkpt lat="45.78634" lon="4.67746">
        <ele>345.79998779297</ele>
        <time>2021-09-28T08:48:15.760Z</time>
      </trkpt>
      <trkpt lat="45.78641" lon="4.67762">
        <ele>345.79998779297</ele>
        <time>2021-09-28T08:48:22.071Z</time>
      </trkpt>
      <trkpt lat="45.78644" lon="4.6777">
        <ele>346</ele>
        <time>2021-09-28T08:48:28.384Z</time>
      </trkpt>
      <trkpt lat="45.78654" lon="4.67784">
        <ele>346</ele>
        <time>2021-09-28T08:48:34.702Z</time>
      </trkpt>
      <trkpt lat="45.78659" lon="4.67798">
        <ele>346</ele>
        <time>2021-09-28T08:48:41.024Z</time>
      </trkpt>
      <trkpt lat="45.7866" lon="4.67804">
        <ele>346</ele>
        <time>2021-09-28T08:48:47.347Z</time>
      </trkpt>
      <trkpt lat="45.78655" lon="4.67818">
        <ele>346</ele>
        <time>2021-09-28T08:48:53.674Z</time>
      </trkpt>
      <trkpt lat="45.78653" lon="4.67826">
        <ele>346.39999389648</ele>
        <time>2021-09-28T08:49:00.003Z</time>
      </trkpt>
      <trkpt lat="45.78655" lon="4.67834">
        <ele>346.60000610352</ele>
        <time>2021-09-28T08:49:06.334Z</time>
      </trkpt>
      <trkpt lat="45.7866" lon="4.67855">
        <ele>346.79998779297</ele>
        <time>2021-09-28T08:49:12.670Z</time>
      </trkpt>
      <trkpt lat="45.78664" lon="4.67864">
        <ele>346.60000610352</ele>
        <time>2021-09-28T08:49:19.008Z</time>
      </trkpt>
      <trkpt lat="45.78673" lon="4.67876">
        <ele>347.39999389648</ele>
        <time>2021-09-28T08:49:25.350Z</time>
      </trkpt>
      <trkpt lat="45.78682" lon="4.67889">
        <ele>348.39999389648</ele>
        <time>2021-09-28T08:49:31.697Z</time>
      </trkpt>
      <trkpt lat="45.78691" lon="4.67903">
        <ele>349.60000610352</ele>
        <time>2021-09-28T08:49:38.048Z</time>
      </trkpt>
      <trkpt lat="45.78698" lon="4.67917">
        <ele>350.60000610352</ele>
        <time>2021-09-28T08:49:44.403Z</time>
      </trkpt>
      <trkpt lat="45.78705" lon="4.67926">
        <ele>351.60000610352</ele>
        <time>2021-09-28T08:49:50.761Z</time>
      </trkpt>
      <trkpt lat="45.78711" lon="4.67935">
        <ele>353</ele>
        <time>2021-09-28T08:49:57.122Z</time>
      </trkpt>
      <trkpt lat="45.78723" lon="4.67948">
        <ele>355.60000610352</ele>
        <time>2021-09-28T08:50:03.488Z</time>
      </trkpt>
      <trkpt lat="45.78734" lon="4.67962">
        <ele>358.39999389648</ele>
        <time>2021-09-28T08:50:09.859Z</time>
      </trkpt>
      <trkpt lat="45.78746" lon="4.67975">
        <ele>361.20001220703</ele>
        <time>2021-09-28T08:50:16.235Z</time>
      </trkpt>
      <trkpt lat="45.78755" lon="4.67986">
        <ele>362.79998779297</ele>
        <time>2021-09-28T08:50:22.615Z</time>
      </trkpt>
      <trkpt lat="45.78758" lon="4.67989">
        <ele>363.39999389648</ele>
        <time>2021-09-28T08:50:28.996Z</time>
      </trkpt>
      <trkpt lat="45.7876" lon="4.67991">
        <ele>363.60000610352</ele>
        <time>2021-09-28T08:50:35.378Z</time>
      </trkpt>
      <trkpt lat="45.78768" lon="4.67998">
        <ele>364.20001220703</ele>
        <time>2021-09-28T08:50:41.763Z</time>
      </trkpt>
      <trkpt lat="45.78776" lon="4.68007">
        <ele>364.60000610352</ele>
        <time>2021-09-28T08:50:48.152Z</time>
      </trkpt>
      <trkpt lat="45.78784" lon="4.68016">
        <ele>365</ele>
        <time>2021-09-28T08:50:54.544Z</time>
      </trkpt>
      <trkpt lat="45.78792" lon="4.68026">
        <ele>365.39999389648</ele>
        <time>2021-09-28T08:51:00.940Z</time>
      </trkpt>
      <trkpt lat="45.78802" lon="4.68036">
        <ele>366</ele>
        <time>2021-09-28T08:51:07.339Z</time>
      </trkpt>
      <trkpt lat="45.78811" lon="4.68043">
        <ele>366.39999389648</ele>
        <time>2021-09-28T08:51:13.742Z</time>
      </trkpt>
      <trkpt lat="45.78818" lon="4.68051">
        <ele>367</ele>
        <time>2021-09-28T08:51:20.148Z</time>
      </trkpt>
      <trkpt lat="45.7883" lon="4.68066">
        <ele>368.20001220703</ele>
        <time>2021-09-28T08:51:26.559Z</time>
      </trkpt>
      <trkpt lat="45.78842" lon="4.68081">
        <ele>369.39999389648</ele>
        <time>2021-09-28T08:51:32.976Z</time>
      </trkpt>
      <trkpt lat="45.78855" lon="4.68094">
        <ele>370</ele>
        <time>2021-09-28T08:51:39.398Z</time>
      </trkpt>
      <trkpt lat="45.78865" lon="4.68103">
        <ele>370.39999389648</ele>
        <time>2021-09-28T08:51:45.824Z</time>
      </trkpt>
      <trkpt lat="45.78877" lon="4.68116">
        <ele>370.79998779297</ele>
        <time>2021-09-28T08:51:52.255Z</time>
      </trkpt>
      <trkpt lat="45.78889" lon="4.68124">
        <ele>371.60000610352</ele>
        <time>2021-09-28T08:51:58.690Z</time>
      </trkpt>
      <trkpt lat="45.78895" lon="4.68127">
        <ele>372</ele>
        <time>2021-09-28T08:52:05.127Z</time>
      </trkpt>
      <trkpt lat="45.78898" lon="4.6813">
        <ele>372</ele>
        <time>2021-09-28T08:52:11.566Z</time>
      </trkpt>
      <trkpt lat="45.7891" lon="4.68135">
        <ele>372.60000610352</ele>
        <time>2021-09-28T08:52:18.009Z</time>
      </trkpt>
      <trkpt lat="45.7892" lon="4.68138">
        <ele>373</ele>
        <time>2021-09-28T08:52:24.455Z</time>
      </trkpt>
      <trkpt lat="45.78931" lon="4.68141">
        <ele>373</ele>
        <time>2021-09-28T08:52:30.905Z</time>
      </trkpt>
      <trkpt lat="45.78938" lon="4.68143">
        <ele>373</ele>
        <time>2021-09-28T08:52:37.357Z</time>
      </trkpt>
      <trkpt lat="45.78946" lon="4.68148">
        <ele>373.20001220703</ele>
        <time>2021-09-28T08:52:43.812Z</time>
      </trkpt>
      <trkpt lat="45.78955" lon="4.6815">
        <ele>373</ele>
        <time>2021-09-28T08:52:50.270Z</time>
      </trkpt>
      <trkpt lat="45.78965" lon="4.68154">
        <ele>372.39999389648</ele>
        <time>2021-09-28T08:52:56.732Z</time>
      </trkpt>
      <trkpt lat="45.78968" lon="4.68155">
        <ele>372.20001220703</ele>
        <time>2021-09-28T08:53:03.195Z</time>
      </trkpt>
      <trkpt lat="45.78978" lon="4.68158">
        <ele>371.60000610352</ele>
        <time>2021-09-28T08:53:09.661Z</time>
      </trkpt>
      <trkpt lat="45.78982" lon="4.68159">
        <ele>371.39999389648</ele>
        <time>2021-09-28T08:53:16.128Z</time>
      </trkpt>
      <trkpt lat="45.79002" lon="4.68167">
        <ele>369.60000610352</ele>
        <time>2021-09-28T08:53:22.602Z</time>
      </trkpt>
      <trkpt lat="45.79007" lon="4.68169">
        <ele>369</ele>
        <time>2021-09-28T08:53:29.078Z</time>
      </trkpt>
      <trkpt lat="45.79013" lon="4.68167">
        <ele>369</ele>
        <time>2021-09-28T08:53:35.556Z</time>
      </trkpt>
      <trkpt lat="45.79017" lon="4.68161">
        <ele>369</ele>
        <time>2021-09-28T08:53:42.036Z</time>
      </trkpt>
      <trkpt lat="45.79024" lon="4.68148">
        <ele>369.39999389648</ele>
        <time>2021-09-28T08:53:48.520Z</time>
      </trkpt>
      <trkpt lat="45.79035" lon="4.68126">
        <ele>370</ele>
        <time>2021-09-28T08:53:55.010Z</time>
      </trkpt>
      <trkpt lat="45.79044" lon="4.68111">
        <ele>369.79998779297</ele>
        <time>2021-09-28T08:54:01.505Z</time>
      </trkpt>
      <trkpt lat="45.79056" lon="4.68098">
        <ele>369</ele>
        <time>2021-09-28T08:54:08.005Z</time>
      </trkpt>
      <trkpt lat="45.79058" lon="4.68098">
        <ele>368.79998779297</ele>
        <time>2021-09-28T08:54:14.505Z</time>
      </trkpt>
      <trkpt lat="45.7906" lon="4.681">
        <ele>368.60000610352</ele>
        <time>2021-09-28T08:54:21.006Z</time>
      </trkpt>
      <trkpt lat="45.79067" lon="4.68113">
        <ele>368.39999389648</ele>
        <time>2021-09-28T08:54:27.511Z</time>
      </trkpt>
      <trkpt lat="45.7907" lon="4.68117">
        <ele>368.39999389648</ele>
        <time>2021-09-28T08:54:34.018Z</time>
      </trkpt>
      <trkpt lat="45.79074" lon="4.6812">
        <ele>368</ele>
        <time>2021-09-28T08:54:40.526Z</time>
      </trkpt>
      <trkpt lat="45.79084" lon="4.68125">
        <ele>367</ele>
        <time>2021-09-28T08:54:47.038Z</time>
      </trkpt>
      <trkpt lat="45.79089" lon="4.68127">
        <ele>366.60000610352</ele>
        <time>2021-09-28T08:54:53.551Z</time>
      </trkpt>
      <trkpt lat="45.791" lon="4.68134">
        <ele>366</ele>
        <time>2021-09-28T08:55:00.068Z</time>
      </trkpt>
      <trkpt lat="45.79111" lon="4.68143">
        <ele>365.60000610352</ele>
        <time>2021-09-28T08:55:06.589Z</time>
      </trkpt>
      <trkpt lat="45.79116" lon="4.68146">
        <ele>365.20001220703</ele>
        <time>2021-09-28T08:55:13.112Z</time>
      </trkpt>
      <trkpt lat="45.7913" lon="4.68153">
        <ele>363.79998779297</ele>
        <time>2021-09-28T08:55:19.640Z</time>
      </trkpt>
      <trkpt lat="45.79137" lon="4.68159">
        <ele>363</ele>
        <time>2021-09-28T08:55:26.171Z</time>
      </trkpt>
      <trkpt lat="45.79152" lon="4.68167">
        <ele>361.60000610352</ele>
        <time>2021-09-28T08:55:32.707Z</time>
      </trkpt>
      <trkpt lat="45.79156" lon="4.6817">
        <ele>361.39999389648</ele>
        <time>2021-09-28T08:55:39.245Z</time>
      </trkpt>
      <trkpt lat="45.79172" lon="4.6818">
        <ele>359.60000610352</ele>
        <time>2021-09-28T08:55:45.789Z</time>
      </trkpt>
      <trkpt lat="45.79181" lon="4.68189">
        <ele>358.20001220703</ele>
        <time>2021-09-28T08:55:52.336Z</time>
      </trkpt>
      <trkpt lat="45.79184" lon="4.68196">
        <ele>357.60000610352</ele>
        <time>2021-09-28T08:55:58.885Z</time>
      </trkpt>
      <trkpt lat="45.79188" lon="4.68204">
        <ele>356.60000610352</ele>
        <time>2021-09-28T08:56:05.437Z</time>
      </trkpt>
      <trkpt lat="45.79194" lon="4.68215">
        <ele>355</ele>
        <time>2021-09-28T08:56:11.992Z</time>
      </trkpt>
      <trkpt lat="45.79202" lon="4.68233">
        <ele>352.20001220703</ele>
        <time>2021-09-28T08:56:18.552Z</time>
      </trkpt>
      <trkpt lat="45.79203" lon="4.68236">
        <ele>351.60000610352</ele>
        <time>2021-09-28T08:56:25.113Z</time>
      </trkpt>
      <trkpt lat="45.79201" lon="4.68244">
        <ele>350.79998779297</ele>
        <time>2021-09-28T08:56:31.675Z</time>
      </trkpt>
      <trkpt lat="45.79196" lon="4.68243">
        <ele>351.60000610352</ele>
        <time>2021-09-28T08:56:38.239Z</time>
      </trkpt>
      <trkpt lat="45.7919" lon="4.68242">
        <ele>352.20001220703</ele>
        <time>2021-09-28T08:56:44.805Z</time>
      </trkpt>
      <trkpt lat="45.79191" lon="4.68251">
        <ele>351.39999389648</ele>
        <time>2021-09-28T08:56:51.373Z</time>
      </trkpt>
      <trkpt lat="45.79191" lon="4.68256">
        <ele>351</ele>
        <time>2021-09-28T08:56:57.942Z</time>
      </trkpt>
      <trkpt lat="45.79191" lon="4.68261">
        <ele>350.60000610352</ele>
        <time>2021-09-28T08:57:04.513Z</time>
      </trkpt>
      <trkpt lat="45.79193" lon="4.68277">
        <ele>349.20001220703</ele>
        <time>2021-09-28T08:57:11.087Z</time>
      </trkpt>
      <trkpt lat="45.79197" lon="4.68291">
        <ele>347.39999389648</ele>
        <time>2021-09-28T08:57:17.665Z</time>
      </trkpt>
      <trkpt lat="45.79202" lon="4.68302">
        <ele>345.79998779297</ele>
        <time>2021-09-28T08:57:24.246Z</time>
      </trkpt>
      <trkpt lat="45.79206" lon="4.68313">
        <ele>344.20001220703</ele>
        <time>2021-09-28T08:57:30.830Z</time>
      </trkpt>
      <trkpt lat="45.7921" lon="4.68322">
        <ele>342.60000610352</ele>
        <time>2021-09-28T08:57:37.416Z</time>
      </trkpt>
      <trkpt lat="45.79214" lon="4.68327">
        <ele>341.60000610352</ele>
        <time>2021-09-28T08:57:44.004Z</time>
      </trkpt>
      <trkpt lat="45.7922" lon="4.68334">
        <ele>339.79998779297</ele>
        <time>2021-09-28T08:57:50.594Z</time>
      </trkpt>
      <trkpt lat="45.79227" lon="4.68338">
        <ele>337.79998779297</ele>
        <time>2021-09-28T08:57:57.187Z</time>
      </trkpt>
      <trkpt lat="45.79243" lon="4.68346">
        <ele>334.20001220703</ele>
        <time>2021-09-28T08:58:03.786Z</time>
      </trkpt>
      <trkpt lat="45.79252" lon="4.6835">
        <ele>332.20001220703</ele>
        <time>2021-09-28T08:58:10.388Z</time>
      </trkpt>
      <trkpt lat="45.79261" lon="4.68354">
        <ele>330.79998779297</ele>
        <time>2021-09-28T08:58:16.993Z</time>
      </trkpt>
      <trkpt lat="45.79267" lon="4.68362">
        <ele>330</ele>
        <time>2021-09-28T08:58:23.601Z</time>
      </trkpt>
      <trkpt lat="45.79272" lon="4.68364">
        <ele>329.79998779297</ele>
        <time>2021-09-28T08:58:30.210Z</time>
      </trkpt>
      <trkpt lat="45.79284" lon="4.68373">
        <ele>329.39999389648</ele>
        <time>2021-09-28T08:58:36.824Z</time>
      </trkpt>
      <trkpt lat="45.79292" lon="4.6838">
        <ele>330</ele>
        <time>2021-09-28T08:58:43.441Z</time>
      </trkpt>
      <trkpt lat="45.79297" lon="4.68385">
        <ele>330.60000610352</ele>
        <time>2021-09-28T08:58:50.060Z</time>
      </trkpt>
      <trkpt lat="45.79298" lon="4.68387">
        <ele>330.60000610352</ele>
        <time>2021-09-28T08:58:56.680Z</time>
      </trkpt>
      <trkpt lat="45.793" lon="4.68391">
        <ele>330.79998779297</ele>
        <time>2021-09-28T08:59:03.301Z</time>
      </trkpt>
      <trkpt lat="45.79299" lon="4.68393">
        <ele>330.39999389648</ele>
        <time>2021-09-28T08:59:09.922Z</time>
      </trkpt>
      <trkpt lat="45.793" lon="4.68401">
        <ele>330.79998779297</ele>
        <time>2021-09-28T08:59:16.545Z</time>
      </trkpt>
      <trkpt lat="45.79301" lon="4.68406">
        <ele>331.20001220703</ele>
        <time>2021-09-28T08:59:23.170Z</time>
      </trkpt>
      <trkpt lat="45.79306" lon="4.68424">
        <ele>332.20001220703</ele>
        <time>2021-09-28T08:59:29.799Z</time>
      </trkpt>
      <trkpt lat="45.79309" lon="4.68432">
        <ele>333.20001220703</ele>
        <time>2021-09-28T08:59:36.430Z</time>
      </trkpt>
      <trkpt lat="45.79313" lon="4.68443">
        <ele>334.60000610352</ele>
        <time>2021-09-28T08:59:43.064Z</time>
      </trkpt>
      <trkpt lat="45.79314" lon="4.68445">
        <ele>334.79998779297</ele>
        <time>2021-09-28T08:59:49.698Z</time>
      </trkpt>
      <trkpt lat="45.79318" lon="4.6845">
        <ele>335.79998779297</ele>
        <time>2021-09-28T08:59:56.334Z</time>
      </trkpt>
      <trkpt lat="45.79325" lon="4.68457">
        <ele>336.79998779297</ele>
        <time>2021-09-28T09:00:02.973Z</time>
      </trkpt>
      <trkpt lat="45.7933" lon="4.68466">
        <ele>337.39999389648</ele>
        <time>2021-09-28T09:00:09.615Z</time>
      </trkpt>
      <trkpt lat="45.79335" lon="4.68476">
        <ele>338</ele>
        <time>2021-09-28T09:00:16.260Z</time>
      </trkpt>
      <trkpt lat="45.7934" lon="4.68485">
        <ele>338.39999389648</ele>
        <time>2021-09-28T09:00:22.907Z</time>
      </trkpt>
      <trkpt lat="45.79346" lon="4.68497">
        <ele>339</ele>
        <time>2021-09-28T09:00:29.558Z</time>
      </trkpt>
      <trkpt lat="45.79354" lon="4.68508">
        <ele>339.60000610352</ele>
        <time>2021-09-28T09:00:36.212Z</time>
      </trkpt>
      <trkpt lat="45.79363" lon="4.68518">
        <ele>340.79998779297</ele>
        <time>2021-09-28T09:00:42.870Z</time>
      </trkpt>
      <trkpt lat="45.79369" lon="4.68525">
        <ele>341.20001220703</ele>
        <time>2021-09-28T09:00:49.531Z</time>
      </trkpt>
      <trkpt lat="45.79378" lon="4.68533">
        <ele>341.60000610352</ele>
        <time>2021-09-28T09:00:56.195Z</time>
      </trkpt>
      <trkpt lat="45.7939" lon="4.68543">
        <ele>342.20001220703</ele>
        <time>2021-09-28T09:01:02.864Z</time>
      </trkpt>
      <trkpt lat="45.79404" lon="4.68554">
        <ele>342.79998779297</ele>
        <time>2021-09-28T09:01:09.538Z</time>
      </trkpt>
      <trkpt lat="45.79419" lon="4.68565">
        <ele>343.39999389648</ele>
        <time>2021-09-28T09:01:16.218Z</time>
      </trkpt>
      <trkpt lat="45.79432" lon="4.68572">
        <ele>344</ele>
        <time>2021-09-28T09:01:22.903Z</time>
      </trkpt>
      <trkpt lat="45.79438" lon="4.68575">
        <ele>344.39999389648</ele>
        <time>2021-09-28T09:01:29.590Z</time>
      </trkpt>
      <trkpt lat="45.7944" lon="4.68576">
        <ele>344.60000610352</ele>
        <time>2021-09-28T09:01:36.278Z</time>
      </trkpt>
      <trkpt lat="45.7945" lon="4.6858">
        <ele>345</ele>
        <time>2021-09-28T09:01:42.969Z</time>
      </trkpt>
      <trkpt lat="45.79462" lon="4.68587">
        <ele>345.79998779297</ele>
        <time>2021-09-28T09:01:49.664Z</time>
      </trkpt>
      <trkpt lat="45.79477" lon="4.68595">
        <ele>346.20001220703</ele>
        <time>2021-09-28T09:01:56.365Z</time>
      </trkpt>
      <trkpt lat="45.79484" lon="4.68598">
        <ele>346.39999389648</ele>
        <time>2021-09-28T09:02:03.068Z</time>
      </trkpt>
      <trkpt lat="45.79496" lon="4.68604">
        <ele>346.39999389648</ele>
        <time>2021-09-28T09:02:09.775Z</time>
      </trkpt>
      <trkpt lat="45.79509" lon="4.68612">
        <ele>346.20001220703</ele>
        <time>2021-09-28T09:02:16.487Z</time>
      </trkpt>
      <trkpt lat="45.79527" lon="4.68622">
        <ele>345.79998779297</ele>
        <time>2021-09-28T09:02:23.205Z</time>
      </trkpt>
      <trkpt lat="45.79539" lon="4.68632">
        <ele>345.39999389648</ele>
        <time>2021-09-28T09:02:29.928Z</time>
      </trkpt>
      <trkpt lat="45.79541" lon="4.68633">
        <ele>345.39999389648</ele>
        <time>2021-09-28T09:02:36.652Z</time>
      </trkpt>
      <trkpt lat="45.79543" lon="4.68636">
        <ele>345.20001220703</ele>
        <time>2021-09-28T09:02:43.377Z</time>
      </trkpt>
      <trkpt lat="45.79538" lon="4.68652">
        <ele>344.60000610352</ele>
        <time>2021-09-28T09:02:50.106Z</time>
      </trkpt>
      <trkpt lat="45.79523" lon="4.6868">
        <ele>342.79998779297</ele>
        <time>2021-09-28T09:02:56.843Z</time>
      </trkpt>
      <trkpt lat="45.79504" lon="4.68719">
        <ele>341.60000610352</ele>
        <time>2021-09-28T09:03:03.591Z</time>
      </trkpt>
      <trkpt lat="45.79487" lon="4.68763">
        <ele>339.60000610352</ele>
        <time>2021-09-28T09:03:10.351Z</time>
      </trkpt>
      <trkpt lat="45.79485" lon="4.68771">
        <ele>339.39999389648</ele>
        <time>2021-09-28T09:03:17.113Z</time>
      </trkpt>
      <trkpt lat="45.79481" lon="4.68804">
        <ele>339.79998779297</ele>
        <time>2021-09-28T09:03:23.883Z</time>
      </trkpt>
      <trkpt lat="45.7948" lon="4.68812">
        <ele>340</ele>
        <time>2021-09-28T09:03:30.655Z</time>
      </trkpt>
      <trkpt lat="45.79479" lon="4.68833">
        <ele>340</ele>
        <time>2021-09-28T09:03:37.432Z</time>
      </trkpt>
      <trkpt lat="45.79479" lon="4.6884">
        <ele>340</ele>
        <time>2021-09-28T09:03:44.210Z</time>
      </trkpt>
      <trkpt lat="45.79477" lon="4.68861">
        <ele>340</ele>
        <time>2021-09-28T09:03:50.993Z</time>
      </trkpt>
      <trkpt lat="45.79476" lon="4.68868">
        <ele>339.79998779297</ele>
        <time>2021-09-28T09:03:57.778Z</time>
      </trkpt>
      <trkpt lat="45.79474" lon="4.68874">
        <ele>339.20001220703</ele>
        <time>2021-09-28T09:04:04.564Z</time>
      </trkpt>
      <trkpt lat="45.79472" lon="4.68897">
        <ele>338.20001220703</ele>
        <time>2021-09-28T09:04:11.356Z</time>
      </trkpt>
      <trkpt lat="45.79471" lon="4.68905">
        <ele>338</ele>
        <time>2021-09-28T09:04:18.150Z</time>
      </trkpt>
      <trkpt lat="45.79471" lon="4.68937">
        <ele>337.79998779297</ele>
        <time>2021-09-28T09:04:24.951Z</time>
      </trkpt>
      <trkpt lat="45.7947" lon="4.68993">
        <ele>337.20001220703</ele>
        <time>2021-09-28T09:04:31.765Z</time>
      </trkpt>
      <trkpt lat="45.79471" lon="4.69">
        <ele>336.79998779297</ele>
        <time>2021-09-28T09:04:38.581Z</time>
      </trkpt>
      <trkpt lat="45.79477" lon="4.69011">
        <ele>336.20001220703</ele>
        <time>2021-09-28T09:04:45.400Z</time>
      </trkpt>
      <trkpt lat="45.79486" lon="4.69016">
        <ele>335.79998779297</ele>
        <time>2021-09-28T09:04:52.222Z</time>
      </trkpt>
      <trkpt lat="45.79491" lon="4.69017">
        <ele>335.60000610352</ele>
        <time>2021-09-28T09:04:59.046Z</time>
      </trkpt>
      <trkpt lat="45.79527" lon="4.69019">
        <ele>333.79998779297</ele>
        <time>2021-09-28T09:05:05.882Z</time>
      </trkpt>
      <trkpt lat="45.7957" lon="4.69023">
        <ele>332.20001220703</ele>
        <time>2021-09-28T09:05:12.732Z</time>
      </trkpt>
      <trkpt lat="45.79585" lon="4.69029">
        <ele>331.39999389648</ele>
        <time>2021-09-28T09:05:19.588Z</time>
      </trkpt>
      <trkpt lat="45.79599" lon="4.6904">
        <ele>330.79998779297</ele>
        <time>2021-09-28T09:05:26.449Z</time>
      </trkpt>
      <trkpt lat="45.79613" lon="4.69057">
        <ele>330.20001220703</ele>
        <time>2021-09-28T09:05:33.316Z</time>
      </trkpt>
      <trkpt lat="45.79618" lon="4.69066">
        <ele>329.79998779297</ele>
        <time>2021-09-28T09:05:40.186Z</time>
      </trkpt>
      <trkpt lat="45.79636" lon="4.69096">
        <ele>328.39999389648</ele>
        <time>2021-09-28T09:05:47.065Z</time>
      </trkpt>
      <trkpt lat="45.79641" lon="4.69102">
        <ele>328.20001220703</ele>
        <time>2021-09-28T09:05:53.946Z</time>
      </trkpt>
      <trkpt lat="45.79671" lon="4.69125">
        <ele>326.79998779297</ele>
        <time>2021-09-28T09:06:00.838Z</time>
      </trkpt>
      <trkpt lat="45.79718" lon="4.69155">
        <ele>327.60000610352</ele>
        <time>2021-09-28T09:06:07.748Z</time>
      </trkpt>
      <trkpt lat="45.79747" lon="4.69172">
        <ele>328.60000610352</ele>
        <time>2021-09-28T09:06:14.668Z</time>
      </trkpt>
      <trkpt lat="45.79776" lon="4.69191">
        <ele>329.60000610352</ele>
        <time>2021-09-28T09:06:21.599Z</time>
      </trkpt>
      <trkpt lat="45.7978" lon="4.69196">
        <ele>329.79998779297</ele>
        <time>2021-09-28T09:06:28.532Z</time>
      </trkpt>
      <trkpt lat="45.79784" lon="4.69202">
        <ele>329.79998779297</ele>
        <time>2021-09-28T09:06:35.466Z</time>
      </trkpt>
      <trkpt lat="45.79795" lon="4.69222">
        <ele>329.20001220703</ele>
        <time>2021-09-28T09:06:42.406Z</time>
      </trkpt>
      <trkpt lat="45.79823" lon="4.69273">
        <ele>328</ele>
        <time>2021-09-28T09:06:49.362Z</time>
      </trkpt>
      <trkpt lat="45.79848" lon="4.6932">
        <ele>326.79998779297</ele>
        <time>2021-09-28T09:06:56.331Z</time>
      </trkpt>
      <trkpt lat="45.79884" lon="4.69381">
        <ele>323.39999389648</ele>
        <time>2021-09-28T09:07:03.319Z</time>
      </trkpt>
      <trkpt lat="45.79916" lon="4.69417">
        <ele>323</ele>
        <time>2021-09-28T09:07:10.320Z</time>
      </trkpt>
      <trkpt lat="45.79936" lon="4.69437">
        <ele>323</ele>
        <time>2021-09-28T09:07:17.330Z</time>
      </trkpt>
      <trkpt lat="45.79942" lon="4.69452">
        <ele>323</ele>
        <time>2021-09-28T09:07:24.344Z</time>
      </trkpt>
      <trkpt lat="45.79942" lon="4.69458">
        <ele>322.79998779297</ele>
        <time>2021-09-28T09:07:31.359Z</time>
      </trkpt>
      <trkpt lat="45.79941" lon="4.6947">
        <ele>322.20001220703</ele>
        <time>2021-09-28T09:07:38.377Z</time>
      </trkpt>
      <trkpt lat="45.79941" lon="4.69483">
        <ele>322</ele>
        <time>2021-09-28T09:07:45.398Z</time>
      </trkpt>
      <trkpt lat="45.79939" lon="4.69503">
        <ele>321.60000610352</ele>
        <time>2021-09-28T09:07:52.424Z</time>
      </trkpt>
      <trkpt lat="45.79939" lon="4.69511">
        <ele>321.39999389648</ele>
        <time>2021-09-28T09:07:59.452Z</time>
      </trkpt>
      <trkpt lat="45.79939" lon="4.69533">
        <ele>321</ele>
        <time>2021-09-28T09:08:06.485Z</time>
      </trkpt>
      <trkpt lat="45.79937" lon="4.69556">
        <ele>320.60000610352</ele>
        <time>2021-09-28T09:08:13.523Z</time>
      </trkpt>
      <trkpt lat="45.79929" lon="4.69609">
        <ele>318.79998779297</ele>
        <time>2021-09-28T09:08:20.574Z</time>
      </trkpt>
      <trkpt lat="45.79924" lon="4.69642">
        <ele>317</ele>
        <time>2021-09-28T09:08:27.633Z</time>
      </trkpt>
      <trkpt lat="45.79924" lon="4.69669">
        <ele>317</ele>
        <time>2021-09-28T09:08:34.698Z</time>
      </trkpt>
      <trkpt lat="45.79925" lon="4.69686">
        <ele>317.39999389648</ele>
        <time>2021-09-28T09:08:41.767Z</time>
      </trkpt>
      <trkpt lat="45.79923" lon="4.69711">
        <ele>318.20001220703</ele>
        <time>2021-09-28T09:08:48.842Z</time>
      </trkpt>
      <trkpt lat="45.79923" lon="4.69719">
        <ele>318.60000610352</ele>
        <time>2021-09-28T09:08:55.919Z</time>
      </trkpt>
      <trkpt lat="45.79923" lon="4.69752">
        <ele>319.79998779297</ele>
        <time>2021-09-28T09:09:03.003Z</time>
      </trkpt>
      <trkpt lat="45.79921" lon="4.69784">
        <ele>319.60000610352</ele>
        <time>2021-09-28T09:09:10.095Z</time>
      </trkpt>
      <trkpt lat="45.7992" lon="4.69792">
        <ele>319.39999389648</ele>
        <time>2021-09-28T09:09:17.189Z</time>
      </trkpt>
      <trkpt lat="45.79914" lon="4.69816">
        <ele>319.20001220703</ele>
        <time>2021-09-28T09:09:24.289Z</time>
      </trkpt>
      <trkpt lat="45.79912" lon="4.69823">
        <ele>319.39999389648</ele>
        <time>2021-09-28T09:09:31.390Z</time>
      </trkpt>
      <trkpt lat="45.7991" lon="4.69839">
        <ele>320.39999389648</ele>
        <time>2021-09-28T09:09:38.495Z</time>
      </trkpt>
      <trkpt lat="45.79903" lon="4.69865">
        <ele>320.60000610352</ele>
        <time>2021-09-28T09:09:45.607Z</time>
      </trkpt>
      <trkpt lat="45.79895" lon="4.6989">
        <ele>319.79998779297</ele>
        <time>2021-09-28T09:09:52.725Z</time>
      </trkpt>
      <trkpt lat="45.79892" lon="4.69898">
        <ele>319.20001220703</ele>
        <time>2021-09-28T09:09:59.845Z</time>
      </trkpt>
      <trkpt lat="45.79883" lon="4.69935">
        <ele>316.60000610352</ele>
        <time>2021-09-28T09:10:06.974Z</time>
      </trkpt>
      <trkpt lat="45.79882" lon="4.69945">
        <ele>316</ele>
        <time>2021-09-28T09:10:14.106Z</time>
      </trkpt>
      <trkpt lat="45.79881" lon="4.69966">
        <ele>315.20001220703</ele>
        <time>2021-09-28T09:10:21.243Z</time>
      </trkpt>
      <trkpt lat="45.79882" lon="4.69987">
        <ele>314.79998779297</ele>
        <time>2021-09-28T09:10:28.384Z</time>
      </trkpt>
      <trkpt lat="45.79887" lon="4.70015">
        <ele>314.60000610352</ele>
        <time>2021-09-28T09:10:35.532Z</time>
      </trkpt>
      <trkpt lat="45.79889" lon="4.70022">
        <ele>314.60000610352</ele>
        <time>2021-09-28T09:10:42.682Z</time>
      </trkpt>
      <trkpt lat="45.79896" lon="4.70038">
        <ele>314.39999389648</ele>
        <time>2021-09-28T09:10:49.836Z</time>
      </trkpt>
      <trkpt lat="45.79914" lon="4.70072">
        <ele>314.60000610352</ele>
        <time>2021-09-28T09:10:57.000Z</time>
      </trkpt>
      <trkpt lat="45.79921" lon="4.70085">
        <ele>314.60000610352</ele>
        <time>2021-09-28T09:11:04.168Z</time>
      </trkpt>
      <trkpt lat="45.79928" lon="4.70097">
        <ele>314.60000610352</ele>
        <time>2021-09-28T09:11:11.340Z</time>
      </trkpt>
      <trkpt lat="45.79932" lon="4.70103">
        <ele>314.39999389648</ele>
        <time>2021-09-28T09:11:18.514Z</time>
      </trkpt>
      <trkpt lat="45.79943" lon="4.70125">
        <ele>314</ele>
        <time>2021-09-28T09:11:25.694Z</time>
      </trkpt>
      <trkpt lat="45.79945" lon="4.70128">
        <ele>314</ele>
        <time>2021-09-28T09:11:32.875Z</time>
      </trkpt>
      <trkpt lat="45.79948" lon="4.70131">
        <ele>314.39999389648</ele>
        <time>2021-09-28T09:11:40.057Z</time>
      </trkpt>
      <trkpt lat="45.79961" lon="4.70132">
        <ele>315.60000610352</ele>
        <time>2021-09-28T09:11:47.244Z</time>
      </trkpt>
      <trkpt lat="45.79988" lon="4.70132">
        <ele>316.79998779297</ele>
        <time>2021-09-28T09:11:54.439Z</time>
      </trkpt>
      <trkpt lat="45.80015" lon="4.7013">
        <ele>317.79998779297</ele>
        <time>2021-09-28T09:12:01.643Z</time>
      </trkpt>
      <trkpt lat="45.80025" lon="4.70132">
        <ele>318</ele>
        <time>2021-09-28T09:12:08.851Z</time>
      </trkpt>
      <trkpt lat="45.80035" lon="4.70136">
        <ele>318.20001220703</ele>
        <time>2021-09-28T09:12:16.062Z</time>
      </trkpt>
      <trkpt lat="45.8004" lon="4.70139">
        <ele>318.20001220703</ele>
        <time>2021-09-28T09:12:23.275Z</time>
      </trkpt>
      <trkpt lat="45.80045" lon="4.70143">
        <ele>318</ele>
        <time>2021-09-28T09:12:30.490Z</time>
      </trkpt>
      <trkpt lat="45.80062" lon="4.7016">
        <ele>317.39999389648</ele>
        <time>2021-09-28T09:12:37.712Z</time>
      </trkpt>
      <trkpt lat="45.80065" lon="4.70165">
        <ele>317.20001220703</ele>
        <time>2021-09-28T09:12:44.936Z</time>
      </trkpt>
      <trkpt lat="45.80074" lon="4.70176">
        <ele>317</ele>
        <time>2021-09-28T09:12:52.164Z</time>
      </trkpt>
      <trkpt lat="45.80088" lon="4.702">
        <ele>317</ele>
        <time>2021-09-28T09:12:59.399Z</time>
      </trkpt>
      <trkpt lat="45.80094" lon="4.70211">
        <ele>317</ele>
        <time>2021-09-28T09:13:06.637Z</time>
      </trkpt>
      <trkpt lat="45.80096" lon="4.70223">
        <ele>316.79998779297</ele>
        <time>2021-09-28T09:13:13.878Z</time>
      </trkpt>
      <trkpt lat="45.80097" lon="4.70235">
        <ele>316.79998779297</ele>
        <time>2021-09-28T09:13:21.122Z</time>
      </trkpt>
      <trkpt lat="45.80092" lon="4.70245">
        <ele>316.39999389648</ele>
        <time>2021-09-28T09:13:28.369Z</time>
      </trkpt>
      <trkpt lat="45.80084" lon="4.70262">
        <ele>315.60000610352</ele>
        <time>2021-09-28T09:13:35.620Z</time>
      </trkpt>
      <trkpt lat="45.8008" lon="4.70274">
        <ele>315</ele>
        <time>2021-09-28T09:13:42.874Z</time>
      </trkpt>
      <trkpt lat="45.8007" lon="4.70297">
        <ele>314.20001220703</ele>
        <time>2021-09-28T09:13:50.135Z</time>
      </trkpt>
      <trkpt lat="45.80051" lon="4.70336">
        <ele>313</ele>
        <time>2021-09-28T09:13:57.407Z</time>
      </trkpt>
      <trkpt lat="45.80042" lon="4.70352">
        <ele>312.20001220703</ele>
        <time>2021-09-28T09:14:04.684Z</time>
      </trkpt>
      <trkpt lat="45.80039" lon="4.70364">
        <ele>312.20001220703</ele>
        <time>2021-09-28T09:14:11.964Z</time>
      </trkpt>
      <trkpt lat="45.80036" lon="4.70377">
        <ele>312.39999389648</ele>
        <time>2021-09-28T09:14:19.247Z</time>
      </trkpt>
      <trkpt lat="45.80033" lon="4.70389">
        <ele>312.39999389648</ele>
        <time>2021-09-28T09:14:26.533Z</time>
      </trkpt>
      <trkpt lat="45.80031" lon="4.70396">
        <ele>312.20001220703</ele>
        <time>2021-09-28T09:14:33.820Z</time>
      </trkpt>
      <trkpt lat="45.80021" lon="4.70447">
        <ele>310.39999389648</ele>
        <time>2021-09-28T09:14:41.120Z</time>
      </trkpt>
      <trkpt lat="45.80018" lon="4.70461">
        <ele>309.39999389648</ele>
        <time>2021-09-28T09:14:48.423Z</time>
      </trkpt>
      <trkpt lat="45.80018" lon="4.70478">
        <ele>309.39999389648</ele>
        <time>2021-09-28T09:14:55.730Z</time>
      </trkpt>
      <trkpt lat="45.80019" lon="4.70513">
        <ele>307.79998779297</ele>
        <time>2021-09-28T09:15:03.045Z</time>
      </trkpt>
      <trkpt lat="45.80021" lon="4.7052">
        <ele>307.60000610352</ele>
        <time>2021-09-28T09:15:10.362Z</time>
      </trkpt>
      <trkpt lat="45.80027" lon="4.70541">
        <ele>306.79998779297</ele>
        <time>2021-09-28T09:15:17.684Z</time>
      </trkpt>
      <trkpt lat="45.80047" lon="4.706">
        <ele>302.79998779297</ele>
        <time>2021-09-28T09:15:25.022Z</time>
      </trkpt>
      <trkpt lat="45.80068" lon="4.70644">
        <ele>300.79998779297</ele>
        <time>2021-09-28T09:15:32.372Z</time>
      </trkpt>
      <trkpt lat="45.80072" lon="4.70651">
        <ele>301</ele>
        <time>2021-09-28T09:15:39.724Z</time>
      </trkpt>
      <trkpt lat="45.80088" lon="4.70696">
        <ele>302</ele>
        <time>2021-09-28T09:15:47.088Z</time>
      </trkpt>
      <trkpt lat="45.80098" lon="4.70735">
        <ele>302</ele>
        <time>2021-09-28T09:15:54.462Z</time>
      </trkpt>
      <trkpt lat="45.80099" lon="4.70743">
        <ele>301.60000610352</ele>
        <time>2021-09-28T09:16:01.838Z</time>
      </trkpt>
      <trkpt lat="45.80099" lon="4.70751">
        <ele>301.39999389648</ele>
        <time>2021-09-28T09:16:09.215Z</time>
      </trkpt>
      <trkpt lat="45.80095" lon="4.70781">
        <ele>300.60000610352</ele>
        <time>2021-09-28T09:16:16.599Z</time>
      </trkpt>
      <trkpt lat="45.80087" lon="4.70842">
        <ele>299.20001220703</ele>
        <time>2021-09-28T09:16:23.998Z</time>
      </trkpt>
      <trkpt lat="45.80082" lon="4.70867">
        <ele>299.79998779297</ele>
        <time>2021-09-28T09:16:31.403Z</time>
      </trkpt>
      <trkpt lat="45.80076" lon="4.70883">
        <ele>300.20001220703</ele>
        <time>2021-09-28T09:16:38.812Z</time>
      </trkpt>
      <trkpt lat="45.80069" lon="4.70898">
        <ele>301.79998779297</ele>
        <time>2021-09-28T09:16:46.225Z</time>
      </trkpt>
      <trkpt lat="45.80059" lon="4.70911">
        <ele>303.60000610352</ele>
        <time>2021-09-28T09:16:53.643Z</time>
      </trkpt>
      <trkpt lat="45.80032" lon="4.70945">
        <ele>305.79998779297</ele>
        <time>2021-09-28T09:17:01.073Z</time>
      </trkpt>
      <trkpt lat="45.80028" lon="4.7095">
        <ele>305.79998779297</ele>
        <time>2021-09-28T09:17:08.505Z</time>
      </trkpt>
      <trkpt lat="45.80022" lon="4.70963">
        <ele>305</ele>
        <time>2021-09-28T09:17:15.940Z</time>
      </trkpt>
      <trkpt lat="45.8002" lon="4.7097">
        <ele>304.39999389648</ele>
        <time>2021-09-28T09:17:23.377Z</time>
      </trkpt>
      <trkpt lat="45.80017" lon="4.70984">
        <ele>303</ele>
        <time>2021-09-28T09:17:30.817Z</time>
      </trkpt>
      <trkpt lat="45.80016" lon="4.71">
        <ele>301.20001220703</ele>
        <time>2021-09-28T09:17:38.261Z</time>
      </trkpt>
      <trkpt lat="45.80005" lon="4.7105">
        <ele>295</ele>
        <time>2021-09-28T09:17:45.717Z</time>
      </trkpt>
      <trkpt lat="45.79982" lon="4.71101">
        <ele>293.39999389648</ele>
        <time>2021-09-28T09:17:53.187Z</time>
      </trkpt>
      <trkpt lat="45.79961" lon="4.71136">
        <ele>294.39999389648</ele>
        <time>2021-09-28T09:18:00.668Z</time>
      </trkpt>
      <trkpt lat="45.79951" lon="4.71149">
        <ele>295</ele>
        <time>2021-09-28T09:18:08.154Z</time>
      </trkpt>
      <trkpt lat="45.79917" lon="4.71184">
        <ele>295.20001220703</ele>
        <time>2021-09-28T09:18:15.654Z</time>
      </trkpt>
      <trkpt lat="45.79887" lon="4.71213">
        <ele>296.20001220703</ele>
        <time>2021-09-28T09:18:23.166Z</time>
      </trkpt>
      <trkpt lat="45.79858" lon="4.7125">
        <ele>296.39999389648</ele>
        <time>2021-09-28T09:18:30.691Z</time>
      </trkpt>
      <trkpt lat="45.79816" lon="4.71287">
        <ele>290</ele>
        <time>2021-09-28T09:18:38.232Z</time>
      </trkpt>
      <trkpt lat="45.79809" lon="4.71294">
        <ele>289</ele>
        <time>2021-09-28T09:18:45.776Z</time>
      </trkpt>
      <trkpt lat="45.79797" lon="4.7131">
        <ele>287.39999389648</ele>
        <time>2021-09-28T09:18:53.326Z</time>
      </trkpt>
      <trkpt lat="45.79792" lon="4.71332">
        <ele>285.79998779297</ele>
        <time>2021-09-28T09:19:00.881Z</time>
      </trkpt>
      <trkpt lat="45.79792" lon="4.71344">
        <ele>285</ele>
        <time>2021-09-28T09:19:08.439Z</time>
      </trkpt>
      <trkpt lat="45.79793" lon="4.71355">
        <ele>285</ele>
        <time>2021-09-28T09:19:15.999Z</time>
      </trkpt>
      <trkpt lat="45.79798" lon="4.71388">
        <ele>284.20001220703</ele>
        <time>2021-09-28T09:19:23.567Z</time>
      </trkpt>
      <trkpt lat="45.79814" lon="4.71468">
        <ele>285.60000610352</ele>
        <time>2021-09-28T09:19:31.155Z</time>
      </trkpt>
      <trkpt lat="45.79819" lon="4.71532">
        <ele>283.20001220703</ele>
        <time>2021-09-28T09:19:38.758Z</time>
      </trkpt>
      <trkpt lat="45.79817" lon="4.71559">
        <ele>282</ele>
        <time>2021-09-28T09:19:46.367Z</time>
      </trkpt>
      <trkpt lat="45.7982" lon="4.71578">
        <ele>281.20001220703</ele>
        <time>2021-09-28T09:19:53.980Z</time>
      </trkpt>
      <trkpt lat="45.79829" lon="4.71591">
        <ele>280.39999389648</ele>
        <time>2021-09-28T09:20:01.598Z</time>
      </trkpt>
      <trkpt lat="45.79842" lon="4.71591">
        <ele>280</ele>
        <time>2021-09-28T09:20:09.220Z</time>
      </trkpt>
      <trkpt lat="45.79888" lon="4.71565">
        <ele>278.60000610352</ele>
        <time>2021-09-28T09:20:16.859Z</time>
      </trkpt>
      <trkpt lat="45.79922" lon="4.71536">
        <ele>279</ele>
        <time>2021-09-28T09:20:24.511Z</time>
      </trkpt>
      <trkpt lat="45.79934" lon="4.71523">
        <ele>278.20001220703</ele>
        <time>2021-09-28T09:20:32.168Z</time>
      </trkpt>
      <trkpt lat="45.79946" lon="4.71508">
        <ele>278.39999389648</ele>
        <time>2021-09-28T09:20:39.830Z</time>
      </trkpt>
      <trkpt lat="45.79951" lon="4.715">
        <ele>278.79998779297</ele>
        <time>2021-09-28T09:20:47.495Z</time>
      </trkpt>
      <trkpt lat="45.79961" lon="4.71487">
        <ele>279.60000610352</ele>
        <time>2021-09-28T09:20:55.164Z</time>
      </trkpt>
      <trkpt lat="45.79966" lon="4.71485">
        <ele>279.39999389648</ele>
        <time>2021-09-28T09:21:02.835Z</time>
      </trkpt>
      <trkpt lat="45.79974" lon="4.71491">
        <ele>277.39999389648</ele>
        <time>2021-09-28T09:21:10.509Z</time>
      </trkpt>
      <trkpt lat="45.7997" lon="4.71502">
        <ele>276</ele>
        <time>2021-09-28T09:21:18.186Z</time>
      </trkpt>
      <trkpt lat="45.79961" lon="4.71512">
        <ele>276</ele>
        <time>2021-09-28T09:21:25.867Z</time>
      </trkpt>
      <trkpt lat="45.7995" lon="4.71526">
        <ele>276</ele>
        <time>2021-09-28T09:21:33.552Z</time>
      </trkpt>
      <trkpt lat="45.79945" lon="4.71533">
        <ele>276.20001220703</ele>
        <time>2021-09-28T09:21:41.240Z</time>
      </trkpt>
      <trkpt lat="45.7993" lon="4.71558">
        <ele>276</ele>
        <time>2021-09-28T09:21:48.935Z</time>
      </trkpt>
      <trkpt lat="45.79915" lon="4.71587">
        <ele>274.20001220703</ele>
        <time>2021-09-28T09:21:56.639Z</time>
      </trkpt>
      <trkpt lat="45.79903" lon="4.71605">
        <ele>273.39999389648</ele>
        <time>2021-09-28T09:22:04.349Z</time>
      </trkpt>
      <trkpt lat="45.79897" lon="4.71613">
        <ele>273.39999389648</ele>
        <time>2021-09-28T09:22:12.061Z</time>
      </trkpt>
      <trkpt lat="45.79873" lon="4.71646">
        <ele>273.39999389648</ele>
        <time>2021-09-28T09:22:19.785Z</time>
      </trkpt>
      <trkpt lat="45.79861" lon="4.71663">
        <ele>273</ele>
        <time>2021-09-28T09:22:27.514Z</time>
      </trkpt>
      <trkpt lat="45.79845" lon="4.71691">
        <ele>271.20001220703</ele>
        <time>2021-09-28T09:22:35.252Z</time>
      </trkpt>
      <trkpt lat="45.79839" lon="4.71701">
        <ele>270.20001220703</ele>
        <time>2021-09-28T09:22:42.992Z</time>
      </trkpt>
      <trkpt lat="45.79831" lon="4.71721">
        <ele>268.60000610352</ele>
        <time>2021-09-28T09:22:50.738Z</time>
      </trkpt>
      <trkpt lat="45.79826" lon="4.71747">
        <ele>266.60000610352</ele>
        <time>2021-09-28T09:22:58.490Z</time>
      </trkpt>
      <trkpt lat="45.79825" lon="4.71759">
        <ele>265.60000610352</ele>
        <time>2021-09-28T09:23:06.245Z</time>
      </trkpt>
      <trkpt lat="45.79827" lon="4.71763">
        <ele>265.79998779297</ele>
        <time>2021-09-28T09:23:14.001Z</time>
      </trkpt>
      <trkpt lat="45.7984" lon="4.71786">
        <ele>266.20001220703</ele>
        <time>2021-09-28T09:23:21.764Z</time>
      </trkpt>
      <trkpt lat="45.79852" lon="4.71791">
        <ele>266.79998779297</ele>
        <time>2021-09-28T09:23:29.531Z</time>
      </trkpt>
      <trkpt lat="45.79873" lon="4.71782">
        <ele>266.20001220703</ele>
        <time>2021-09-28T09:23:37.305Z</time>
      </trkpt>
      <trkpt lat="45.79887" lon="4.71766">
        <ele>267</ele>
        <time>2021-09-28T09:23:45.085Z</time>
      </trkpt>
      <trkpt lat="45.79905" lon="4.71746">
        <ele>268</ele>
        <time>2021-09-28T09:23:52.873Z</time>
      </trkpt>
      <trkpt lat="45.79923" lon="4.71721">
        <ele>267.79998779297</ele>
        <time>2021-09-28T09:24:00.669Z</time>
      </trkpt>
      <trkpt lat="45.79933" lon="4.71717">
        <ele>268.60000610352</ele>
        <time>2021-09-28T09:24:08.469Z</time>
      </trkpt>
      <trkpt lat="45.79948" lon="4.71719">
        <ele>269.60000610352</ele>
        <time>2021-09-28T09:24:16.274Z</time>
      </trkpt>
      <trkpt lat="45.79947" lon="4.71725">
        <ele>270.20001220703</ele>
        <time>2021-09-28T09:24:24.080Z</time>
      </trkpt>
      <trkpt lat="45.79936" lon="4.71738">
        <ele>270.20001220703</ele>
        <time>2021-09-28T09:24:31.891Z</time>
      </trkpt>
      <trkpt lat="45.79927" lon="4.7175">
        <ele>270.60000610352</ele>
        <time>2021-09-28T09:24:39.706Z</time>
      </trkpt>
      <trkpt lat="45.79916" lon="4.71764">
        <ele>270.60000610352</ele>
        <time>2021-09-28T09:24:47.526Z</time>
      </trkpt>
      <trkpt lat="45.79907" lon="4.71775">
        <ele>270</ele>
        <time>2021-09-28T09:24:55.350Z</time>
      </trkpt>
      <trkpt lat="45.79905" lon="4.7178">
        <ele>270.20001220703</ele>
        <time>2021-09-28T09:25:03.175Z</time>
      </trkpt>
      <trkpt lat="45.79905" lon="4.71785">
        <ele>270.39999389648</ele>
        <time>2021-09-28T09:25:11.001Z</time>
      </trkpt>
      <trkpt lat="45.79903" lon="4.71794">
        <ele>270.79998779297</ele>
        <time>2021-09-28T09:25:18.830Z</time>
      </trkpt>
      <trkpt lat="45.79904" lon="4.71796">
        <ele>271</ele>
        <time>2021-09-28T09:25:26.659Z</time>
      </trkpt>
      <trkpt lat="45.79906" lon="4.71801">
        <ele>271.79998779297</ele>
        <time>2021-09-28T09:25:34.490Z</time>
      </trkpt>
      <trkpt lat="45.79915" lon="4.71812">
        <ele>274</ele>
        <time>2021-09-28T09:25:42.324Z</time>
      </trkpt>
      <trkpt lat="45.79924" lon="4.71818">
        <ele>275.39999389648</ele>
        <time>2021-09-28T09:25:50.162Z</time>
      </trkpt>
      <trkpt lat="45.79926" lon="4.71819">
        <ele>275.60000610352</ele>
        <time>2021-09-28T09:25:58.000Z</time>
      </trkpt>
      <trkpt lat="45.79933" lon="4.71827">
        <ele>277</ele>
        <time>2021-09-28T09:26:05.841Z</time>
      </trkpt>
      <trkpt lat="45.79946" lon="4.71834">
        <ele>278.79998779297</ele>
        <time>2021-09-28T09:26:13.687Z</time>
      </trkpt>
      <trkpt lat="45.79962" lon="4.71838">
        <ele>281</ele>
        <time>2021-09-28T09:26:21.539Z</time>
      </trkpt>
      <trkpt lat="45.79964" lon="4.71839">
        <ele>281.20001220703</ele>
        <time>2021-09-28T09:26:29.391Z</time>
      </trkpt>
      <trkpt lat="45.79969" lon="4.71842">
        <ele>282</ele>
        <time>2021-09-28T09:26:37.245Z</time>
      </trkpt>
      <trkpt lat="45.79972" lon="4.71843">
        <ele>282.39999389648</ele>
        <time>2021-09-28T09:26:45.100Z</time>
      </trkpt>
      <trkpt lat="45.7998" lon="4.71844">
        <ele>283.20001220703</ele>
        <time>2021-09-28T09:26:52.958Z</time>
      </trkpt>
      <trkpt lat="45.79991" lon="4.71843">
        <ele>284.20001220703</ele>
        <time>2021-09-28T09:27:00.819Z</time>
      </trkpt>
      <trkpt lat="45.79997" lon="4.71841">
        <ele>284.79998779297</ele>
        <time>2021-09-28T09:27:08.682Z</time>
      </trkpt>
      <trkpt lat="45.8" lon="4.71842">
        <ele>285.20001220703</ele>
        <time>2021-09-28T09:27:16.546Z</time>
      </trkpt>
      <trkpt lat="45.80001" lon="4.71844">
        <ele>285.39999389648</ele>
        <time>2021-09-28T09:27:24.411Z</time>
      </trkpt>
      <trkpt lat="45.80006" lon="4.7185">
        <ele>286.20001220703</ele>
        <time>2021-09-28T09:27:32.278Z</time>
      </trkpt>
      <trkpt lat="45.80007" lon="4.71852">
        <ele>286.39999389648</ele>
        <time>2021-09-28T09:27:40.146Z</time>
      </trkpt>
      <trkpt lat="45.80009" lon="4.71856">
        <ele>286.60000610352</ele>
        <time>2021-09-28T09:27:48.015Z</time>
      </trkpt>
      <trkpt lat="45.80012" lon="4.71861">
        <ele>287</ele>
        <time>2021-09-28T09:27:55.885Z</time>
      </trkpt>
      <trkpt lat="45.80014" lon="4.71864">
        <ele>287.20001220703</ele>
        <time>2021-09-28T09:28:03.756Z</time>
      </trkpt>
      <trkpt lat="45.80016" lon="4.71867">
        <ele>287.60000610352</ele>
        <time>2021-09-28T09:28:11.628Z</time>
      </trkpt>
      <trkpt lat="45.80018" lon="4.71868">
        <ele>287.60000610352</ele>
        <time>2021-09-28T09:28:19.501Z</time>
      </trkpt>
      <trkpt lat="45.80025" lon="4.71875">
        <ele>288.60000610352</ele>
        <time>2021-09-28T09:28:27.377Z</time>
      </trkpt>
      <trkpt lat="45.80032" lon="4.71885">
        <ele>289.39999389648</ele>
        <time>2021-09-28T09:28:35.256Z</time>
      </trkpt>
      <trkpt lat="45.80041" lon="4.71895">
        <ele>290.20001220703</ele>
        <time>2021-09-28T09:28:43.139Z</time>
      </trkpt>
      <trkpt lat="45.80043" lon="4.71895">
        <ele>290.20001220703</ele>
        <time>2021-09-28T09:28:51.022Z</time>
      </trkpt>
      <trkpt lat="45.80046" lon="4.71897">
        <ele>290.60000610352</ele>
        <time>2021-09-28T09:28:58.907Z</time>
      </trkpt>
      <trkpt lat="45.8005" lon="4.71902">
        <ele>291</ele>
        <time>2021-09-28T09:29:06.794Z</time>
      </trkpt>
      <trkpt lat="45.80058" lon="4.7191">
        <ele>291.79998779297</ele>
        <time>2021-09-28T09:29:14.684Z</time>
      </trkpt>
      <trkpt lat="45.80064" lon="4.71919">
        <ele>292.79998779297</ele>
        <time>2021-09-28T09:29:22.577Z</time>
      </trkpt>
      <trkpt lat="45.8007" lon="4.71928">
        <ele>293.60000610352</ele>
        <time>2021-09-28T09:29:30.473Z</time>
      </trkpt>
      <trkpt lat="45.80077" lon="4.71935">
        <ele>294.39999389648</ele>
        <time>2021-09-28T09:29:38.371Z</time>
      </trkpt>
      <trkpt lat="45.80084" lon="4.71945">
        <ele>295.39999389648</ele>
        <time>2021-09-28T09:29:46.273Z</time>
      </trkpt>
      <trkpt lat="45.80088" lon="4.71948">
        <ele>295.60000610352</ele>
        <time>2021-09-28T09:29:54.176Z</time>
      </trkpt>
      <trkpt lat="45.80136" lon="4.7195">
        <ele>296.60000610352</ele>
        <time>2021-09-28T09:30:02.095Z</time>
      </trkpt>
      <trkpt lat="45.80138" lon="4.71951">
        <ele>296.60000610352</ele>
        <time>2021-09-28T09:30:10.015Z</time>
      </trkpt>
      <trkpt lat="45.80147" lon="4.71951">
        <ele>297</ele>
        <time>2021-09-28T09:30:17.938Z</time>
      </trkpt>
      <trkpt lat="45.80161" lon="4.71951">
        <ele>298</ele>
        <time>2021-09-28T09:30:25.865Z</time>
      </trkpt>
      <trkpt lat="45.80173" lon="4.71952">
        <ele>298.79998779297</ele>
        <time>2021-09-28T09:30:33.797Z</time>
      </trkpt>
      <trkpt lat="45.80187" lon="4.71953">
        <ele>299.39999389648</ele>
        <time>2021-09-28T09:30:41.733Z</time>
      </trkpt>
      <trkpt lat="45.80198" lon="4.71955">
        <ele>299.79998779297</ele>
        <time>2021-09-28T09:30:49.673Z</time>
      </trkpt>
      <trkpt lat="45.80212" lon="4.71955">
        <ele>300.39999389648</ele>
        <time>2021-09-28T09:30:57.617Z</time>
      </trkpt>
      <trkpt lat="45.80226" lon="4.71957">
        <ele>300.79998779297</ele>
        <time>2021-09-28T09:31:05.566Z</time>
      </trkpt>
      <trkpt lat="45.80239" lon="4.71958">
        <ele>301</ele>
        <time>2021-09-28T09:31:13.520Z</time>
      </trkpt>
      <trkpt lat="45.80252" lon="4.71957">
        <ele>301</ele>
        <time>2021-09-28T09:31:21.478Z</time>
      </trkpt>
      <trkpt lat="45.80263" lon="4.71955">
        <ele>301</ele>
        <time>2021-09-28T09:31:29.440Z</time>
      </trkpt>
      <trkpt lat="45.80268" lon="4.71958">
        <ele>301</ele>
        <time>2021-09-28T09:31:37.404Z</time>
      </trkpt>
      <trkpt lat="45.80269" lon="4.7196">
        <ele>301</ele>
        <time>2021-09-28T09:31:45.368Z</time>
      </trkpt>
      <trkpt lat="45.80275" lon="4.71981">
        <ele>301.20001220703</ele>
        <time>2021-09-28T09:31:53.337Z</time>
      </trkpt>
      <trkpt lat="45.80279" lon="4.72001">
        <ele>302.60000610352</ele>
        <time>2021-09-28T09:32:01.311Z</time>
      </trkpt>
      <trkpt lat="45.80283" lon="4.72018">
        <ele>303.39999389648</ele>
        <time>2021-09-28T09:32:09.290Z</time>
      </trkpt>
      <trkpt lat="45.80289" lon="4.72026">
        <ele>303.79998779297</ele>
        <time>2021-09-28T09:32:17.271Z</time>
      </trkpt>
      <trkpt lat="45.80291" lon="4.72025">
        <ele>303.79998779297</ele>
        <time>2021-09-28T09:32:25.253Z</time>
      </trkpt>
      <trkpt lat="45.80299" lon="4.72016">
        <ele>303.79998779297</ele>
        <time>2021-09-28T09:32:33.238Z</time>
      </trkpt>
      <trkpt lat="45.80309" lon="4.72005">
        <ele>303.79998779297</ele>
        <time>2021-09-28T09:32:41.228Z</time>
      </trkpt>
      <trkpt lat="45.80322" lon="4.71991">
        <ele>304</ele>
        <time>2021-09-28T09:32:49.223Z</time>
      </trkpt>
      <trkpt lat="45.80336" lon="4.71979">
        <ele>304.60000610352</ele>
        <time>2021-09-28T09:32:57.223Z</time>
      </trkpt>
      <trkpt lat="45.80347" lon="4.71971">
        <ele>305.39999389648</ele>
        <time>2021-09-28T09:33:05.228Z</time>
      </trkpt>
      <trkpt lat="45.80355" lon="4.71967">
        <ele>306</ele>
        <time>2021-09-28T09:33:13.236Z</time>
      </trkpt>
      <trkpt lat="45.80357" lon="4.71968">
        <ele>306</ele>
        <time>2021-09-28T09:33:21.244Z</time>
      </trkpt>
      <trkpt lat="45.8036" lon="4.71971">
        <ele>306.20001220703</ele>
        <time>2021-09-28T09:33:29.253Z</time>
      </trkpt>
      <trkpt lat="45.80361" lon="4.71972">
        <ele>306.39999389648</ele>
        <time>2021-09-28T09:33:37.263Z</time>
      </trkpt>
      <trkpt lat="45.80366" lon="4.71987">
        <ele>307</ele>
        <time>2021-09-28T09:33:45.277Z</time>
      </trkpt>
      <trkpt lat="45.8037" lon="4.72002">
        <ele>307.79998779297</ele>
        <time>2021-09-28T09:33:53.294Z</time>
      </trkpt>
      <trkpt lat="45.8037" lon="4.72017">
        <ele>308.79998779297</ele>
        <time>2021-09-28T09:34:01.315Z</time>
      </trkpt>
      <trkpt lat="45.80374" lon="4.72031">
        <ele>310</ele>
        <time>2021-09-28T09:34:09.339Z</time>
      </trkpt>
      <trkpt lat="45.80374" lon="4.72034">
        <ele>310.20001220703</ele>
        <time>2021-09-28T09:34:17.364Z</time>
      </trkpt>
      <trkpt lat="45.80377" lon="4.7204">
        <ele>310.20001220703</ele>
        <time>2021-09-28T09:34:25.391Z</time>
      </trkpt>
      <trkpt lat="45.80377" lon="4.72045">
        <ele>310.20001220703</ele>
        <time>2021-09-28T09:34:33.419Z</time>
      </trkpt>
      <trkpt lat="45.80378" lon="4.72047">
        <ele>310.39999389648</ele>
        <time>2021-09-28T09:34:41.447Z</time>
      </trkpt>
    </trkseg>
  </trk>
</gpx>